<?xml version="1.0" encoding="UTF-8" standalone="no" ?>
<gpx xmlns="http://www.topografix.com/GPX/1/1" xmlns:xsi="http://www.w3.org/2001/XMLSchema-instance" xsi:schemaLocation="http://www.topografix.com/GPX/1/1 http://www.topografix.com/GPX/1/1/gpx.xsd" version="1.1" creator="VisuGPX - https://www.visugpx.com">
  <metadata>
    <name>Royère de Vassivière -  tour du Lac de vassivière 36km</name>
    <desc><![CDATA[ACPTC 2013-08 ]]></desc>
  </metadata>
  <trk>
    <name><![CDATA[Tour du lac]]></name>
    <extensions>
      <line xmlns="http://www.topografix.com/GPX/gpx_style/0/2">
        <color>0000FF</color>
        <width>4</width>
      </line>
    </extensions>
    <trkseg>
      <trkpt lat="45.83615" lon="1.91043">
        <ele>721</ele>
        <time>2013-08-09T09:35:13Z</time>
      </trkpt>
      <trkpt lat="45.836" lon="1.91038">
        <ele>719</ele>
        <time>2013-08-09T09:35:25Z</time>
      </trkpt>
      <trkpt lat="45.836" lon="1.91038">
        <ele>719</ele>
        <time>2013-08-09T09:35:28Z</time>
      </trkpt>
      <trkpt lat="45.83583" lon="1.9103">
        <ele>716</ele>
        <time>2013-08-09T09:35:45Z</time>
      </trkpt>
      <trkpt lat="45.83568" lon="1.91015">
        <ele>714</ele>
        <time>2013-08-09T09:36:02Z</time>
      </trkpt>
      <trkpt lat="45.83555" lon="1.91005">
        <ele>714</ele>
        <time>2013-08-09T09:36:11Z</time>
      </trkpt>
      <trkpt lat="45.83543" lon="1.90998">
        <ele>714</ele>
        <time>2013-08-09T09:36:19Z</time>
      </trkpt>
      <trkpt lat="45.83513" lon="1.90988">
        <ele>715</ele>
        <time>2013-08-09T09:36:38Z</time>
      </trkpt>
      <trkpt lat="45.835" lon="1.9098">
        <ele>715</ele>
        <time>2013-08-09T09:36:46Z</time>
      </trkpt>
      <trkpt lat="45.83485" lon="1.90973">
        <ele>715</ele>
        <time>2013-08-09T09:36:56Z</time>
      </trkpt>
      <trkpt lat="45.83473" lon="1.90963">
        <ele>715</ele>
        <time>2013-08-09T09:37:06Z</time>
      </trkpt>
      <trkpt lat="45.8346" lon="1.9095">
        <ele>717</ele>
        <time>2013-08-09T09:37:23Z</time>
      </trkpt>
      <trkpt lat="45.83445" lon="1.90945">
        <ele>719</ele>
        <time>2013-08-09T09:37:36Z</time>
      </trkpt>
      <trkpt lat="45.83433" lon="1.90938">
        <ele>717</ele>
        <time>2013-08-09T09:37:54Z</time>
      </trkpt>
      <trkpt lat="45.8342" lon="1.90928">
        <ele>717</ele>
        <time>2013-08-09T09:38:05Z</time>
      </trkpt>
      <trkpt lat="45.83405" lon="1.90925">
        <ele>718</ele>
        <time>2013-08-09T09:38:13Z</time>
      </trkpt>
      <trkpt lat="45.83393" lon="1.90915">
        <ele>716</ele>
        <time>2013-08-09T09:38:22Z</time>
      </trkpt>
      <trkpt lat="45.83378" lon="1.9091">
        <ele>715</ele>
        <time>2013-08-09T09:38:31Z</time>
      </trkpt>
      <trkpt lat="45.83365" lon="1.90903">
        <ele>713</ele>
        <time>2013-08-09T09:38:39Z</time>
      </trkpt>
      <trkpt lat="45.8335" lon="1.90898">
        <ele>711</ele>
        <time>2013-08-09T09:38:49Z</time>
      </trkpt>
      <trkpt lat="45.83335" lon="1.90893">
        <ele>710</ele>
        <time>2013-08-09T09:39:02Z</time>
      </trkpt>
      <trkpt lat="45.8332" lon="1.90888">
        <ele>707</ele>
        <time>2013-08-09T09:39:12Z</time>
      </trkpt>
      <trkpt lat="45.83308" lon="1.90878">
        <ele>708</ele>
        <time>2013-08-09T09:39:25Z</time>
      </trkpt>
      <trkpt lat="45.83293" lon="1.90883">
        <ele>711</ele>
        <time>2013-08-09T09:39:42Z</time>
      </trkpt>
      <trkpt lat="45.8328" lon="1.90895">
        <ele>711</ele>
        <time>2013-08-09T09:39:51Z</time>
      </trkpt>
      <trkpt lat="45.83268" lon="1.90903">
        <ele>712</ele>
        <time>2013-08-09T09:40:00Z</time>
      </trkpt>
      <trkpt lat="45.83255" lon="1.90913">
        <ele>712</ele>
        <time>2013-08-09T09:40:07Z</time>
      </trkpt>
      <trkpt lat="45.83243" lon="1.9092">
        <ele>712</ele>
        <time>2013-08-09T09:40:17Z</time>
      </trkpt>
      <trkpt lat="45.83228" lon="1.90925">
        <ele>712</ele>
        <time>2013-08-09T09:40:29Z</time>
      </trkpt>
      <trkpt lat="45.83215" lon="1.90933">
        <ele>711</ele>
        <time>2013-08-09T09:40:37Z</time>
      </trkpt>
      <trkpt lat="45.832" lon="1.90938">
        <ele>706</ele>
        <time>2013-08-09T09:40:48Z</time>
      </trkpt>
      <trkpt lat="45.83183" lon="1.9094">
        <ele>708</ele>
        <time>2013-08-09T09:41:05Z</time>
      </trkpt>
      <trkpt lat="45.83168" lon="1.9094">
        <ele>707</ele>
        <time>2013-08-09T09:41:15Z</time>
      </trkpt>
      <trkpt lat="45.83153" lon="1.90945">
        <ele>706</ele>
        <time>2013-08-09T09:41:25Z</time>
      </trkpt>
      <trkpt lat="45.83138" lon="1.90945">
        <ele>704</ele>
        <time>2013-08-09T09:41:38Z</time>
      </trkpt>
      <trkpt lat="45.83123" lon="1.90948">
        <ele>705</ele>
        <time>2013-08-09T09:41:49Z</time>
      </trkpt>
      <trkpt lat="45.83105" lon="1.90948">
        <ele>706</ele>
        <time>2013-08-09T09:42:06Z</time>
      </trkpt>
      <trkpt lat="45.83085" lon="1.9095">
        <ele>700</ele>
        <time>2013-08-09T09:42:23Z</time>
      </trkpt>
      <trkpt lat="45.8307" lon="1.9095">
        <ele>698</ele>
        <time>2013-08-09T09:42:32Z</time>
      </trkpt>
      <trkpt lat="45.83055" lon="1.90948">
        <ele>697</ele>
        <time>2013-08-09T09:42:42Z</time>
      </trkpt>
      <trkpt lat="45.8304" lon="1.90948">
        <ele>698</ele>
        <time>2013-08-09T09:42:51Z</time>
      </trkpt>
      <trkpt lat="45.83025" lon="1.9095">
        <ele>696</ele>
        <time>2013-08-09T09:43:00Z</time>
      </trkpt>
      <trkpt lat="45.8301" lon="1.9095">
        <ele>696</ele>
        <time>2013-08-09T09:43:09Z</time>
      </trkpt>
      <trkpt lat="45.82995" lon="1.90953">
        <ele>698</ele>
        <time>2013-08-09T09:43:17Z</time>
      </trkpt>
      <trkpt lat="45.8298" lon="1.90955">
        <ele>700</ele>
        <time>2013-08-09T09:43:30Z</time>
      </trkpt>
      <trkpt lat="45.82965" lon="1.90955">
        <ele>699</ele>
        <time>2013-08-09T09:43:43Z</time>
      </trkpt>
      <trkpt lat="45.8294" lon="1.9096">
        <ele>700</ele>
        <time>2013-08-09T09:44:02Z</time>
      </trkpt>
      <trkpt lat="45.82925" lon="1.9096">
        <ele>698</ele>
        <time>2013-08-09T09:44:13Z</time>
      </trkpt>
      <trkpt lat="45.8291" lon="1.90963">
        <ele>697</ele>
        <time>2013-08-09T09:44:23Z</time>
      </trkpt>
      <trkpt lat="45.82895" lon="1.90965">
        <ele>704</ele>
        <time>2013-08-09T09:45:41Z</time>
      </trkpt>
      <trkpt lat="45.8288" lon="1.9097">
        <ele>697</ele>
        <time>2013-08-09T09:47:40Z</time>
      </trkpt>
      <trkpt lat="45.82865" lon="1.9097">
        <ele>698</ele>
        <time>2013-08-09T09:47:49Z</time>
      </trkpt>
      <trkpt lat="45.8285" lon="1.9097">
        <ele>698</ele>
        <time>2013-08-09T09:48:00Z</time>
      </trkpt>
      <trkpt lat="45.82835" lon="1.90968">
        <ele>699</ele>
        <time>2013-08-09T09:48:11Z</time>
      </trkpt>
      <trkpt lat="45.82823" lon="1.9096">
        <ele>699</ele>
        <time>2013-08-09T09:48:20Z</time>
      </trkpt>
      <trkpt lat="45.82803" lon="1.90945">
        <ele>700</ele>
        <time>2013-08-09T09:48:38Z</time>
      </trkpt>
      <trkpt lat="45.8279" lon="1.90935">
        <ele>700</ele>
        <time>2013-08-09T09:48:47Z</time>
      </trkpt>
      <trkpt lat="45.82778" lon="1.90925">
        <ele>702</ele>
        <time>2013-08-09T09:48:59Z</time>
      </trkpt>
      <trkpt lat="45.82763" lon="1.9092">
        <ele>701</ele>
        <time>2013-08-09T09:49:07Z</time>
      </trkpt>
      <trkpt lat="45.82748" lon="1.90925">
        <ele>703</ele>
        <time>2013-08-09T09:49:19Z</time>
      </trkpt>
      <trkpt lat="45.82733" lon="1.9093">
        <ele>705</ele>
        <time>2013-08-09T09:49:27Z</time>
      </trkpt>
      <trkpt lat="45.8272" lon="1.90918">
        <ele>708</ele>
        <time>2013-08-09T09:49:38Z</time>
      </trkpt>
      <trkpt lat="45.82708" lon="1.90905">
        <ele>708</ele>
        <time>2013-08-09T09:49:48Z</time>
      </trkpt>
      <trkpt lat="45.82698" lon="1.9089">
        <ele>709</ele>
        <time>2013-08-09T09:49:56Z</time>
      </trkpt>
      <trkpt lat="45.82688" lon="1.90873">
        <ele>711</ele>
        <time>2013-08-09T09:50:05Z</time>
      </trkpt>
      <trkpt lat="45.8268" lon="1.90855">
        <ele>714</ele>
        <time>2013-08-09T09:50:22Z</time>
      </trkpt>
      <trkpt lat="45.8267" lon="1.9084">
        <ele>715</ele>
        <time>2013-08-09T09:50:31Z</time>
      </trkpt>
      <trkpt lat="45.82663" lon="1.90823">
        <ele>717</ele>
        <time>2013-08-09T09:50:40Z</time>
      </trkpt>
      <trkpt lat="45.82663" lon="1.908">
        <ele>718</ele>
        <time>2013-08-09T09:50:48Z</time>
      </trkpt>
      <trkpt lat="45.82655" lon="1.90783">
        <ele>721</ele>
        <time>2013-08-09T09:50:58Z</time>
      </trkpt>
      <trkpt lat="45.8265" lon="1.90763">
        <ele>723</ele>
        <time>2013-08-09T09:51:09Z</time>
      </trkpt>
      <trkpt lat="45.8264" lon="1.90743">
        <ele>725</ele>
        <time>2013-08-09T09:51:19Z</time>
      </trkpt>
      <trkpt lat="45.82633" lon="1.90725">
        <ele>726</ele>
        <time>2013-08-09T09:51:25Z</time>
      </trkpt>
      <trkpt lat="45.82625" lon="1.90708">
        <ele>726</ele>
        <time>2013-08-09T09:51:30Z</time>
      </trkpt>
      <trkpt lat="45.8262" lon="1.90688">
        <ele>726</ele>
        <time>2013-08-09T09:51:38Z</time>
      </trkpt>
      <trkpt lat="45.82615" lon="1.90668">
        <ele>729</ele>
        <time>2013-08-09T09:51:46Z</time>
      </trkpt>
      <trkpt lat="45.82608" lon="1.9065">
        <ele>730</ele>
        <time>2013-08-09T09:51:54Z</time>
      </trkpt>
      <trkpt lat="45.82598" lon="1.90635">
        <ele>732</ele>
        <time>2013-08-09T09:52:02Z</time>
      </trkpt>
      <trkpt lat="45.8259" lon="1.90618">
        <ele>731</ele>
        <time>2013-08-09T09:52:10Z</time>
      </trkpt>
      <trkpt lat="45.82583" lon="1.90598">
        <ele>730</ele>
        <time>2013-08-09T09:52:20Z</time>
      </trkpt>
      <trkpt lat="45.82575" lon="1.9058">
        <ele>731</ele>
        <time>2013-08-09T09:52:29Z</time>
      </trkpt>
      <trkpt lat="45.82568" lon="1.90563">
        <ele>731</ele>
        <time>2013-08-09T09:52:41Z</time>
      </trkpt>
      <trkpt lat="45.82558" lon="1.9054">
        <ele>726</ele>
        <time>2013-08-09T09:52:54Z</time>
      </trkpt>
      <trkpt lat="45.8255" lon="1.9052">
        <ele>725</ele>
        <time>2013-08-09T09:53:04Z</time>
      </trkpt>
      <trkpt lat="45.82543" lon="1.90503">
        <ele>724</ele>
        <time>2013-08-09T09:53:10Z</time>
      </trkpt>
      <trkpt lat="45.82535" lon="1.90485">
        <ele>722</ele>
        <time>2013-08-09T09:53:17Z</time>
      </trkpt>
      <trkpt lat="45.8252" lon="1.90463">
        <ele>725</ele>
        <time>2013-08-09T09:53:27Z</time>
      </trkpt>
      <trkpt lat="45.82508" lon="1.90445">
        <ele>721</ele>
        <time>2013-08-09T09:53:44Z</time>
      </trkpt>
      <trkpt lat="45.82495" lon="1.90438">
        <ele>719</ele>
        <time>2013-08-09T09:53:54Z</time>
      </trkpt>
      <trkpt lat="45.8248" lon="1.90438">
        <ele>721</ele>
        <time>2013-08-09T09:54:07Z</time>
      </trkpt>
      <trkpt lat="45.82463" lon="1.9044">
        <ele>722</ele>
        <time>2013-08-09T09:54:15Z</time>
      </trkpt>
      <trkpt lat="45.82448" lon="1.90438">
        <ele>722</ele>
        <time>2013-08-09T09:54:23Z</time>
      </trkpt>
      <trkpt lat="45.82433" lon="1.90435">
        <ele>722</ele>
        <time>2013-08-09T09:54:34Z</time>
      </trkpt>
      <trkpt lat="45.8241" lon="1.9043">
        <ele>720</ele>
        <time>2013-08-09T09:54:51Z</time>
      </trkpt>
      <trkpt lat="45.82398" lon="1.90423">
        <ele>721</ele>
        <time>2013-08-09T09:54:59Z</time>
      </trkpt>
      <trkpt lat="45.82383" lon="1.90423">
        <ele>720</ele>
        <time>2013-08-09T09:55:12Z</time>
      </trkpt>
      <trkpt lat="45.82365" lon="1.9042">
        <ele>717</ele>
        <time>2013-08-09T09:55:20Z</time>
      </trkpt>
      <trkpt lat="45.82353" lon="1.90428">
        <ele>718</ele>
        <time>2013-08-09T09:55:27Z</time>
      </trkpt>
      <trkpt lat="45.82333" lon="1.90438">
        <ele>717</ele>
        <time>2013-08-09T09:55:38Z</time>
      </trkpt>
      <trkpt lat="45.8232" lon="1.90448">
        <ele>717</ele>
        <time>2013-08-09T09:55:48Z</time>
      </trkpt>
      <trkpt lat="45.82305" lon="1.90453">
        <ele>717</ele>
        <time>2013-08-09T09:55:58Z</time>
      </trkpt>
      <trkpt lat="45.8229" lon="1.90448">
        <ele>712</ele>
        <time>2013-08-09T09:56:11Z</time>
      </trkpt>
      <trkpt lat="45.82275" lon="1.90445">
        <ele>713</ele>
        <time>2013-08-09T09:56:22Z</time>
      </trkpt>
      <trkpt lat="45.8226" lon="1.9045">
        <ele>713</ele>
        <time>2013-08-09T09:56:32Z</time>
      </trkpt>
      <trkpt lat="45.82248" lon="1.90458">
        <ele>709</ele>
        <time>2013-08-09T09:56:39Z</time>
      </trkpt>
      <trkpt lat="45.82233" lon="1.9046">
        <ele>708</ele>
        <time>2013-08-09T09:56:47Z</time>
      </trkpt>
      <trkpt lat="45.82218" lon="1.90465">
        <ele>707</ele>
        <time>2013-08-09T09:56:55Z</time>
      </trkpt>
      <trkpt lat="45.82203" lon="1.9047">
        <ele>706</ele>
        <time>2013-08-09T09:57:03Z</time>
      </trkpt>
      <trkpt lat="45.82188" lon="1.90473">
        <ele>704</ele>
        <time>2013-08-09T09:57:12Z</time>
      </trkpt>
      <trkpt lat="45.82173" lon="1.90475">
        <ele>704</ele>
        <time>2013-08-09T09:57:19Z</time>
      </trkpt>
      <trkpt lat="45.82153" lon="1.90478">
        <ele>703</ele>
        <time>2013-08-09T09:57:30Z</time>
      </trkpt>
      <trkpt lat="45.82138" lon="1.90478">
        <ele>703</ele>
        <time>2013-08-09T09:57:38Z</time>
      </trkpt>
      <trkpt lat="45.82123" lon="1.9048">
        <ele>701</ele>
        <time>2013-08-09T09:57:47Z</time>
      </trkpt>
      <trkpt lat="45.82108" lon="1.90485">
        <ele>701</ele>
        <time>2013-08-09T09:57:58Z</time>
      </trkpt>
      <trkpt lat="45.82093" lon="1.9049">
        <ele>701</ele>
        <time>2013-08-09T09:58:07Z</time>
      </trkpt>
      <trkpt lat="45.82078" lon="1.90498">
        <ele>698</ele>
        <time>2013-08-09T09:58:18Z</time>
      </trkpt>
      <trkpt lat="45.8205" lon="1.90515">
        <ele>694</ele>
        <time>2013-08-09T09:58:37Z</time>
      </trkpt>
      <trkpt lat="45.82035" lon="1.90515">
        <ele>690</ele>
        <time>2013-08-09T09:58:46Z</time>
      </trkpt>
      <trkpt lat="45.8202" lon="1.9052">
        <ele>689</ele>
        <time>2013-08-09T09:58:54Z</time>
      </trkpt>
      <trkpt lat="45.82005" lon="1.90518">
        <ele>685</ele>
        <time>2013-08-09T09:59:04Z</time>
      </trkpt>
      <trkpt lat="45.8199" lon="1.90515">
        <ele>687</ele>
        <time>2013-08-09T09:59:13Z</time>
      </trkpt>
      <trkpt lat="45.81975" lon="1.90513">
        <ele>688</ele>
        <time>2013-08-09T09:59:20Z</time>
      </trkpt>
      <trkpt lat="45.81963" lon="1.90505">
        <ele>687</ele>
        <time>2013-08-09T09:59:27Z</time>
      </trkpt>
      <trkpt lat="45.81948" lon="1.90498">
        <ele>686</ele>
        <time>2013-08-09T09:59:35Z</time>
      </trkpt>
      <trkpt lat="45.81933" lon="1.90493">
        <ele>685</ele>
        <time>2013-08-09T09:59:44Z</time>
      </trkpt>
      <trkpt lat="45.81918" lon="1.9049">
        <ele>686</ele>
        <time>2013-08-09T09:59:55Z</time>
      </trkpt>
      <trkpt lat="45.81903" lon="1.90493">
        <ele>687</ele>
        <time>2013-08-09T10:00:05Z</time>
      </trkpt>
      <trkpt lat="45.81888" lon="1.90493">
        <ele>682</ele>
        <time>2013-08-09T10:00:15Z</time>
      </trkpt>
      <trkpt lat="45.81873" lon="1.90493">
        <ele>681</ele>
        <time>2013-08-09T10:00:25Z</time>
      </trkpt>
      <trkpt lat="45.81858" lon="1.90488">
        <ele>679</ele>
        <time>2013-08-09T10:00:33Z</time>
      </trkpt>
      <trkpt lat="45.81843" lon="1.90485">
        <ele>678</ele>
        <time>2013-08-09T10:00:42Z</time>
      </trkpt>
      <trkpt lat="45.81828" lon="1.9048">
        <ele>678</ele>
        <time>2013-08-09T10:00:53Z</time>
      </trkpt>
      <trkpt lat="45.81813" lon="1.9048">
        <ele>678</ele>
        <time>2013-08-09T10:01:03Z</time>
      </trkpt>
      <trkpt lat="45.81793" lon="1.90483">
        <ele>679</ele>
        <time>2013-08-09T10:01:14Z</time>
      </trkpt>
      <trkpt lat="45.8175" lon="1.90493">
        <ele>678</ele>
        <time>2013-08-09T10:01:41Z</time>
      </trkpt>
      <trkpt lat="45.81735" lon="1.90495">
        <ele>678</ele>
        <time>2013-08-09T10:01:49Z</time>
      </trkpt>
      <trkpt lat="45.8172" lon="1.90493">
        <ele>675</ele>
        <time>2013-08-09T10:01:57Z</time>
      </trkpt>
      <trkpt lat="45.81705" lon="1.90493">
        <ele>673</ele>
        <time>2013-08-09T10:02:04Z</time>
      </trkpt>
      <trkpt lat="45.8169" lon="1.9049">
        <ele>670</ele>
        <time>2013-08-09T10:02:12Z</time>
      </trkpt>
      <trkpt lat="45.81675" lon="1.90488">
        <ele>670</ele>
        <time>2013-08-09T10:02:20Z</time>
      </trkpt>
      <trkpt lat="45.81663" lon="1.9048">
        <ele>669</ele>
        <time>2013-08-09T10:02:27Z</time>
      </trkpt>
      <trkpt lat="45.81648" lon="1.9048">
        <ele>669</ele>
        <time>2013-08-09T10:02:36Z</time>
      </trkpt>
      <trkpt lat="45.81635" lon="1.90488">
        <ele>670</ele>
        <time>2013-08-09T10:02:44Z</time>
      </trkpt>
      <trkpt lat="45.81623" lon="1.905">
        <ele>673</ele>
        <time>2013-08-09T10:02:52Z</time>
      </trkpt>
      <trkpt lat="45.8161" lon="1.90508">
        <ele>674</ele>
        <time>2013-08-09T10:02:58Z</time>
      </trkpt>
      <trkpt lat="45.81598" lon="1.90518">
        <ele>672</ele>
        <time>2013-08-09T10:03:08Z</time>
      </trkpt>
      <trkpt lat="45.81585" lon="1.90525">
        <ele>672</ele>
        <time>2013-08-09T10:03:14Z</time>
      </trkpt>
      <trkpt lat="45.8157" lon="1.90533">
        <ele>673</ele>
        <time>2013-08-09T10:03:24Z</time>
      </trkpt>
      <trkpt lat="45.81555" lon="1.9054">
        <ele>672</ele>
        <time>2013-08-09T10:03:33Z</time>
      </trkpt>
      <trkpt lat="45.81543" lon="1.9055">
        <ele>671</ele>
        <time>2013-08-09T10:03:43Z</time>
      </trkpt>
      <trkpt lat="45.8153" lon="1.90538">
        <ele>670</ele>
        <time>2013-08-09T10:03:53Z</time>
      </trkpt>
      <trkpt lat="45.81528" lon="1.90518">
        <ele>667</ele>
        <time>2013-08-09T10:04:01Z</time>
      </trkpt>
      <trkpt lat="45.81523" lon="1.90498">
        <ele>663</ele>
        <time>2013-08-09T10:04:12Z</time>
      </trkpt>
      <trkpt lat="45.81518" lon="1.90478">
        <ele>660</ele>
        <time>2013-08-09T10:04:22Z</time>
      </trkpt>
      <trkpt lat="45.81518" lon="1.90458">
        <ele>660</ele>
        <time>2013-08-09T10:04:30Z</time>
      </trkpt>
      <trkpt lat="45.81515" lon="1.90435">
        <ele>661</ele>
        <time>2013-08-09T10:04:37Z</time>
      </trkpt>
      <trkpt lat="45.81513" lon="1.90415">
        <ele>660</ele>
        <time>2013-08-09T10:04:45Z</time>
      </trkpt>
      <trkpt lat="45.81508" lon="1.90395">
        <ele>661</ele>
        <time>2013-08-09T10:04:51Z</time>
      </trkpt>
      <trkpt lat="45.8151" lon="1.90375">
        <ele>660</ele>
        <time>2013-08-09T10:04:59Z</time>
      </trkpt>
      <trkpt lat="45.81505" lon="1.90355">
        <ele>661</ele>
        <time>2013-08-09T10:05:08Z</time>
      </trkpt>
      <trkpt lat="45.81495" lon="1.9034">
        <ele>661</ele>
        <time>2013-08-09T10:05:16Z</time>
      </trkpt>
      <trkpt lat="45.81483" lon="1.9033">
        <ele>660</ele>
        <time>2013-08-09T10:05:25Z</time>
      </trkpt>
      <trkpt lat="45.8147" lon="1.90318">
        <ele>660</ele>
        <time>2013-08-09T10:05:34Z</time>
      </trkpt>
      <trkpt lat="45.81458" lon="1.90305">
        <ele>661</ele>
        <time>2013-08-09T10:05:42Z</time>
      </trkpt>
      <trkpt lat="45.81445" lon="1.90298">
        <ele>660</ele>
        <time>2013-08-09T10:05:51Z</time>
      </trkpt>
      <trkpt lat="45.81433" lon="1.9029">
        <ele>659</ele>
        <time>2013-08-09T10:06:00Z</time>
      </trkpt>
      <trkpt lat="45.81418" lon="1.9029">
        <ele>658</ele>
        <time>2013-08-09T10:06:09Z</time>
      </trkpt>
      <trkpt lat="45.81403" lon="1.90293">
        <ele>657</ele>
        <time>2013-08-09T10:06:19Z</time>
      </trkpt>
      <trkpt lat="45.81388" lon="1.90295">
        <ele>655</ele>
        <time>2013-08-09T10:06:29Z</time>
      </trkpt>
      <trkpt lat="45.8137" lon="1.90298">
        <ele>655</ele>
        <time>2013-08-09T10:06:41Z</time>
      </trkpt>
      <trkpt lat="45.81355" lon="1.90298">
        <ele>654</ele>
        <time>2013-08-09T10:06:51Z</time>
      </trkpt>
      <trkpt lat="45.81343" lon="1.9029">
        <ele>655</ele>
        <time>2013-08-09T10:06:59Z</time>
      </trkpt>
      <trkpt lat="45.8133" lon="1.90278">
        <ele>656</ele>
        <time>2013-08-09T10:07:10Z</time>
      </trkpt>
      <trkpt lat="45.81315" lon="1.90285">
        <ele>656</ele>
        <time>2013-08-09T10:07:20Z</time>
      </trkpt>
      <trkpt lat="45.81293" lon="1.90293">
        <ele>656</ele>
        <time>2013-08-09T10:07:37Z</time>
      </trkpt>
      <trkpt lat="45.81278" lon="1.90293">
        <ele>654</ele>
        <time>2013-08-09T10:07:46Z</time>
      </trkpt>
      <trkpt lat="45.81263" lon="1.90293">
        <ele>654</ele>
        <time>2013-08-09T10:07:56Z</time>
      </trkpt>
      <trkpt lat="45.81238" lon="1.90295">
        <ele>654</ele>
        <time>2013-08-09T10:08:13Z</time>
      </trkpt>
      <trkpt lat="45.81223" lon="1.90293">
        <ele>655</ele>
        <time>2013-08-09T10:08:23Z</time>
      </trkpt>
      <trkpt lat="45.81208" lon="1.90295">
        <ele>657</ele>
        <time>2013-08-09T10:08:33Z</time>
      </trkpt>
      <trkpt lat="45.81193" lon="1.9029">
        <ele>656</ele>
        <time>2013-08-09T10:08:41Z</time>
      </trkpt>
      <trkpt lat="45.81178" lon="1.9029">
        <ele>658</ele>
        <time>2013-08-09T10:08:49Z</time>
      </trkpt>
      <trkpt lat="45.81163" lon="1.90288">
        <ele>660</ele>
        <time>2013-08-09T10:09:00Z</time>
      </trkpt>
      <trkpt lat="45.81153" lon="1.90273">
        <ele>659</ele>
        <time>2013-08-09T10:09:12Z</time>
      </trkpt>
      <trkpt lat="45.81138" lon="1.90258">
        <ele>658</ele>
        <time>2013-08-09T10:09:25Z</time>
      </trkpt>
      <trkpt lat="45.81133" lon="1.90238">
        <ele>659</ele>
        <time>2013-08-09T10:09:35Z</time>
      </trkpt>
      <trkpt lat="45.81138" lon="1.90218">
        <ele>659</ele>
        <time>2013-08-09T10:09:43Z</time>
      </trkpt>
      <trkpt lat="45.81143" lon="1.90195">
        <ele>661</ele>
        <time>2013-08-09T10:09:54Z</time>
      </trkpt>
      <trkpt lat="45.8114" lon="1.90175">
        <ele>662</ele>
        <time>2013-08-09T10:10:03Z</time>
      </trkpt>
      <trkpt lat="45.81133" lon="1.90155">
        <ele>663</ele>
        <time>2013-08-09T10:10:13Z</time>
      </trkpt>
      <trkpt lat="45.81125" lon="1.90138">
        <ele>664</ele>
        <time>2013-08-09T10:10:22Z</time>
      </trkpt>
      <trkpt lat="45.81115" lon="1.90123">
        <ele>667</ele>
        <time>2013-08-09T10:10:30Z</time>
      </trkpt>
      <trkpt lat="45.81108" lon="1.90105">
        <ele>668</ele>
        <time>2013-08-09T10:10:39Z</time>
      </trkpt>
      <trkpt lat="45.81098" lon="1.9009">
        <ele>668</ele>
        <time>2013-08-09T10:10:47Z</time>
      </trkpt>
      <trkpt lat="45.81093" lon="1.9007">
        <ele>669</ele>
        <time>2013-08-09T10:10:55Z</time>
      </trkpt>
      <trkpt lat="45.8109" lon="1.9005">
        <ele>668</ele>
        <time>2013-08-09T10:11:03Z</time>
      </trkpt>
      <trkpt lat="45.8109" lon="1.9003">
        <ele>670</ele>
        <time>2013-08-09T10:11:13Z</time>
      </trkpt>
      <trkpt lat="45.81083" lon="1.9001">
        <ele>669</ele>
        <time>2013-08-09T10:11:30Z</time>
      </trkpt>
      <trkpt lat="45.81078" lon="1.8999">
        <ele>669</ele>
        <time>2013-08-09T10:11:40Z</time>
      </trkpt>
      <trkpt lat="45.81075" lon="1.8997">
        <ele>670</ele>
        <time>2013-08-09T10:11:49Z</time>
      </trkpt>
      <trkpt lat="45.81078" lon="1.8995">
        <ele>669</ele>
        <time>2013-08-09T10:11:58Z</time>
      </trkpt>
      <trkpt lat="45.81083" lon="1.8993">
        <ele>669</ele>
        <time>2013-08-09T10:12:08Z</time>
      </trkpt>
      <trkpt lat="45.8109" lon="1.89913">
        <ele>669</ele>
        <time>2013-08-09T10:12:16Z</time>
      </trkpt>
      <trkpt lat="45.81093" lon="1.89893">
        <ele>668</ele>
        <time>2013-08-09T10:12:25Z</time>
      </trkpt>
      <trkpt lat="45.81095" lon="1.89873">
        <ele>668</ele>
        <time>2013-08-09T10:12:35Z</time>
      </trkpt>
      <trkpt lat="45.8108" lon="1.89858">
        <ele>668</ele>
        <time>2013-08-09T10:12:52Z</time>
      </trkpt>
      <trkpt lat="45.81065" lon="1.8986">
        <ele>667</ele>
        <time>2013-08-09T10:13:02Z</time>
      </trkpt>
      <trkpt lat="45.81053" lon="1.89868">
        <ele>668</ele>
        <time>2013-08-09T10:13:11Z</time>
      </trkpt>
      <trkpt lat="45.81038" lon="1.89873">
        <ele>668</ele>
        <time>2013-08-09T10:13:20Z</time>
      </trkpt>
      <trkpt lat="45.81023" lon="1.89875">
        <ele>668</ele>
        <time>2013-08-09T10:13:32Z</time>
      </trkpt>
      <trkpt lat="45.8101" lon="1.89885">
        <ele>666</ele>
        <time>2013-08-09T10:13:40Z</time>
      </trkpt>
      <trkpt lat="45.80998" lon="1.89893">
        <ele>666</ele>
        <time>2013-08-09T10:13:47Z</time>
      </trkpt>
      <trkpt lat="45.80983" lon="1.89898">
        <ele>666</ele>
        <time>2013-08-09T10:13:56Z</time>
      </trkpt>
      <trkpt lat="45.8097" lon="1.8989">
        <ele>664</ele>
        <time>2013-08-09T10:14:04Z</time>
      </trkpt>
      <trkpt lat="45.80963" lon="1.8987">
        <ele>661</ele>
        <time>2013-08-09T10:14:14Z</time>
      </trkpt>
      <trkpt lat="45.80958" lon="1.8985">
        <ele>663</ele>
        <time>2013-08-09T10:14:23Z</time>
      </trkpt>
      <trkpt lat="45.8095" lon="1.8983">
        <ele>664</ele>
        <time>2013-08-09T10:14:31Z</time>
      </trkpt>
      <trkpt lat="45.80945" lon="1.8981">
        <ele>663</ele>
        <time>2013-08-09T10:14:40Z</time>
      </trkpt>
      <trkpt lat="45.8094" lon="1.8979">
        <ele>663</ele>
        <time>2013-08-09T10:14:48Z</time>
      </trkpt>
      <trkpt lat="45.80935" lon="1.8977">
        <ele>661</ele>
        <time>2013-08-09T10:14:57Z</time>
      </trkpt>
      <trkpt lat="45.80928" lon="1.8975">
        <ele>661</ele>
        <time>2013-08-09T10:15:06Z</time>
      </trkpt>
      <trkpt lat="45.80915" lon="1.8974">
        <ele>660</ele>
        <time>2013-08-09T10:15:16Z</time>
      </trkpt>
      <trkpt lat="45.80915" lon="1.8972">
        <ele>659</ele>
        <time>2013-08-09T10:15:27Z</time>
      </trkpt>
      <trkpt lat="45.80923" lon="1.89703">
        <ele>662</ele>
        <time>2013-08-09T10:15:47Z</time>
      </trkpt>
      <trkpt lat="45.80928" lon="1.8968">
        <ele>662</ele>
        <time>2013-08-09T10:15:56Z</time>
      </trkpt>
      <trkpt lat="45.8094" lon="1.89668">
        <ele>662</ele>
        <time>2013-08-09T10:16:06Z</time>
      </trkpt>
      <trkpt lat="45.80943" lon="1.89648">
        <ele>664</ele>
        <time>2013-08-09T10:16:17Z</time>
      </trkpt>
      <trkpt lat="45.80935" lon="1.8963">
        <ele>664</ele>
        <time>2013-08-09T10:16:25Z</time>
      </trkpt>
      <trkpt lat="45.8093" lon="1.8961">
        <ele>664</ele>
        <time>2013-08-09T10:16:36Z</time>
      </trkpt>
      <trkpt lat="45.8092" lon="1.89595">
        <ele>665</ele>
        <time>2013-08-09T10:16:49Z</time>
      </trkpt>
      <trkpt lat="45.8091" lon="1.8958">
        <ele>665</ele>
        <time>2013-08-09T10:17:00Z</time>
      </trkpt>
      <trkpt lat="45.80905" lon="1.8956">
        <ele>665</ele>
        <time>2013-08-09T10:17:09Z</time>
      </trkpt>
      <trkpt lat="45.80905" lon="1.8954">
        <ele>664</ele>
        <time>2013-08-09T10:17:18Z</time>
      </trkpt>
      <trkpt lat="45.80915" lon="1.89525">
        <ele>661</ele>
        <time>2013-08-09T10:17:27Z</time>
      </trkpt>
      <trkpt lat="45.80925" lon="1.8951">
        <ele>657</ele>
        <time>2013-08-09T10:17:36Z</time>
      </trkpt>
      <trkpt lat="45.80938" lon="1.895">
        <ele>656</ele>
        <time>2013-08-09T10:17:44Z</time>
      </trkpt>
      <trkpt lat="45.8095" lon="1.8949">
        <ele>656</ele>
        <time>2013-08-09T10:17:54Z</time>
      </trkpt>
      <trkpt lat="45.80963" lon="1.89483">
        <ele>655</ele>
        <time>2013-08-09T10:18:04Z</time>
      </trkpt>
      <trkpt lat="45.80968" lon="1.89503">
        <ele>655</ele>
        <time>2013-08-09T10:18:14Z</time>
      </trkpt>
      <trkpt lat="45.80978" lon="1.89518">
        <ele>654</ele>
        <time>2013-08-09T10:18:24Z</time>
      </trkpt>
      <trkpt lat="45.80988" lon="1.89533">
        <ele>653</ele>
        <time>2013-08-09T10:18:37Z</time>
      </trkpt>
      <trkpt lat="45.81" lon="1.89525">
        <ele>656</ele>
        <time>2013-08-09T10:19:09Z</time>
      </trkpt>
      <trkpt lat="45.81015" lon="1.8952">
        <ele>658</ele>
        <time>2013-08-09T10:19:17Z</time>
      </trkpt>
      <trkpt lat="45.8103" lon="1.89518">
        <ele>657</ele>
        <time>2013-08-09T10:19:29Z</time>
      </trkpt>
      <trkpt lat="45.81045" lon="1.89525">
        <ele>656</ele>
        <time>2013-08-09T10:19:36Z</time>
      </trkpt>
      <trkpt lat="45.81063" lon="1.89528">
        <ele>656</ele>
        <time>2013-08-09T10:19:43Z</time>
      </trkpt>
      <trkpt lat="45.81073" lon="1.89513">
        <ele>658</ele>
        <time>2013-08-09T10:20:08Z</time>
      </trkpt>
      <trkpt lat="45.81065" lon="1.89495">
        <ele>659</ele>
        <time>2013-08-09T10:20:20Z</time>
      </trkpt>
      <trkpt lat="45.8107" lon="1.89475">
        <ele>659</ele>
        <time>2013-08-09T10:20:28Z</time>
      </trkpt>
      <trkpt lat="45.8108" lon="1.89458">
        <ele>660</ele>
        <time>2013-08-09T10:20:39Z</time>
      </trkpt>
      <trkpt lat="45.81085" lon="1.89438">
        <ele>663</ele>
        <time>2013-08-09T10:20:50Z</time>
      </trkpt>
      <trkpt lat="45.81095" lon="1.89423">
        <ele>666</ele>
        <time>2013-08-09T10:20:59Z</time>
      </trkpt>
      <trkpt lat="45.81105" lon="1.89405">
        <ele>669</ele>
        <time>2013-08-09T10:21:09Z</time>
      </trkpt>
      <trkpt lat="45.81115" lon="1.89383">
        <ele>672</ele>
        <time>2013-08-09T10:21:26Z</time>
      </trkpt>
      <trkpt lat="45.81123" lon="1.89365">
        <ele>674</ele>
        <time>2013-08-09T10:21:36Z</time>
      </trkpt>
      <trkpt lat="45.81128" lon="1.89345">
        <ele>674</ele>
        <time>2013-08-09T10:21:47Z</time>
      </trkpt>
      <trkpt lat="45.81138" lon="1.8933">
        <ele>679</ele>
        <time>2013-08-09T10:22:17Z</time>
      </trkpt>
      <trkpt lat="45.8114" lon="1.89308">
        <ele>680</ele>
        <time>2013-08-09T10:22:25Z</time>
      </trkpt>
      <trkpt lat="45.81133" lon="1.8929">
        <ele>682</ele>
        <time>2013-08-09T10:22:34Z</time>
      </trkpt>
      <trkpt lat="45.81123" lon="1.89273">
        <ele>681</ele>
        <time>2013-08-09T10:22:45Z</time>
      </trkpt>
      <trkpt lat="45.81125" lon="1.89253">
        <ele>681</ele>
        <time>2013-08-09T10:22:52Z</time>
      </trkpt>
      <trkpt lat="45.81133" lon="1.89235">
        <ele>679</ele>
        <time>2013-08-09T10:23:00Z</time>
      </trkpt>
      <trkpt lat="45.8114" lon="1.89218">
        <ele>679</ele>
        <time>2013-08-09T10:23:10Z</time>
      </trkpt>
      <trkpt lat="45.8115" lon="1.89203">
        <ele>679</ele>
        <time>2013-08-09T10:23:18Z</time>
      </trkpt>
      <trkpt lat="45.81165" lon="1.89185">
        <ele>680</ele>
        <time>2013-08-09T10:23:35Z</time>
      </trkpt>
      <trkpt lat="45.81175" lon="1.89168">
        <ele>680</ele>
        <time>2013-08-09T10:23:46Z</time>
      </trkpt>
      <trkpt lat="45.8119" lon="1.8917">
        <ele>683</ele>
        <time>2013-08-09T10:24:03Z</time>
      </trkpt>
      <trkpt lat="45.81208" lon="1.89158">
        <ele>685</ele>
        <time>2013-08-09T10:24:20Z</time>
      </trkpt>
      <trkpt lat="45.8122" lon="1.89148">
        <ele>688</ele>
        <time>2013-08-09T10:24:26Z</time>
      </trkpt>
      <trkpt lat="45.81235" lon="1.89148">
        <ele>686</ele>
        <time>2013-08-09T10:24:38Z</time>
      </trkpt>
      <trkpt lat="45.81248" lon="1.89138">
        <ele>685</ele>
        <time>2013-08-09T10:24:46Z</time>
      </trkpt>
      <trkpt lat="45.81255" lon="1.8912">
        <ele>689</ele>
        <time>2013-08-09T10:24:55Z</time>
      </trkpt>
      <trkpt lat="45.81263" lon="1.89098">
        <ele>687</ele>
        <time>2013-08-09T10:25:06Z</time>
      </trkpt>
      <trkpt lat="45.81273" lon="1.89083">
        <ele>688</ele>
        <time>2013-08-09T10:25:15Z</time>
      </trkpt>
      <trkpt lat="45.8127" lon="1.89063">
        <ele>692</ele>
        <time>2013-08-09T10:25:28Z</time>
      </trkpt>
      <trkpt lat="45.8126" lon="1.89048">
        <ele>694</ele>
        <time>2013-08-09T10:25:36Z</time>
      </trkpt>
      <trkpt lat="45.8125" lon="1.8903">
        <ele>693</ele>
        <time>2013-08-09T10:25:44Z</time>
      </trkpt>
      <trkpt lat="45.8124" lon="1.89008">
        <ele>694</ele>
        <time>2013-08-09T10:25:53Z</time>
      </trkpt>
      <trkpt lat="45.81233" lon="1.8899">
        <ele>693</ele>
        <time>2013-08-09T10:26:02Z</time>
      </trkpt>
      <trkpt lat="45.81228" lon="1.8897">
        <ele>692</ele>
        <time>2013-08-09T10:26:15Z</time>
      </trkpt>
      <trkpt lat="45.8122" lon="1.8895">
        <ele>692</ele>
        <time>2013-08-09T10:26:26Z</time>
      </trkpt>
      <trkpt lat="45.81218" lon="1.8893">
        <ele>693</ele>
        <time>2013-08-09T10:26:35Z</time>
      </trkpt>
      <trkpt lat="45.81225" lon="1.88913">
        <ele>693</ele>
        <time>2013-08-09T10:26:44Z</time>
      </trkpt>
      <trkpt lat="45.8123" lon="1.88893">
        <ele>693</ele>
        <time>2013-08-09T10:26:55Z</time>
      </trkpt>
      <trkpt lat="45.8122" lon="1.88878">
        <ele>694</ele>
        <time>2013-08-09T10:27:04Z</time>
      </trkpt>
      <trkpt lat="45.81223" lon="1.88858">
        <ele>694</ele>
        <time>2013-08-09T10:27:15Z</time>
      </trkpt>
      <trkpt lat="45.8123" lon="1.8884">
        <ele>695</ele>
        <time>2013-08-09T10:27:26Z</time>
      </trkpt>
      <trkpt lat="45.81223" lon="1.88823">
        <ele>694</ele>
        <time>2013-08-09T10:27:35Z</time>
      </trkpt>
      <trkpt lat="45.81213" lon="1.88808">
        <ele>696</ele>
        <time>2013-08-09T10:27:42Z</time>
      </trkpt>
      <trkpt lat="45.81205" lon="1.8879">
        <ele>694</ele>
        <time>2013-08-09T10:27:51Z</time>
      </trkpt>
      <trkpt lat="45.81198" lon="1.88768">
        <ele>693</ele>
        <time>2013-08-09T10:28:01Z</time>
      </trkpt>
      <trkpt lat="45.8119" lon="1.8875">
        <ele>693</ele>
        <time>2013-08-09T10:28:10Z</time>
      </trkpt>
      <trkpt lat="45.8118" lon="1.88735">
        <ele>696</ele>
        <time>2013-08-09T10:28:18Z</time>
      </trkpt>
      <trkpt lat="45.8117" lon="1.88718">
        <ele>696</ele>
        <time>2013-08-09T10:28:28Z</time>
      </trkpt>
      <trkpt lat="45.8116" lon="1.887">
        <ele>696</ele>
        <time>2013-08-09T10:28:37Z</time>
      </trkpt>
      <trkpt lat="45.8115" lon="1.88683">
        <ele>694</ele>
        <time>2013-08-09T10:28:48Z</time>
      </trkpt>
      <trkpt lat="45.81145" lon="1.88663">
        <ele>695</ele>
        <time>2013-08-09T10:28:58Z</time>
      </trkpt>
      <trkpt lat="45.81138" lon="1.88645">
        <ele>695</ele>
        <time>2013-08-09T10:29:08Z</time>
      </trkpt>
      <trkpt lat="45.81123" lon="1.88645">
        <ele>693</ele>
        <time>2013-08-09T10:29:21Z</time>
      </trkpt>
      <trkpt lat="45.81108" lon="1.8865">
        <ele>691</ele>
        <time>2013-08-09T10:29:31Z</time>
      </trkpt>
      <trkpt lat="45.81093" lon="1.88653">
        <ele>690</ele>
        <time>2013-08-09T10:29:42Z</time>
      </trkpt>
      <trkpt lat="45.8108" lon="1.88645">
        <ele>690</ele>
        <time>2013-08-09T10:29:53Z</time>
      </trkpt>
      <trkpt lat="45.8107" lon="1.8863">
        <ele>689</ele>
        <time>2013-08-09T10:30:04Z</time>
      </trkpt>
      <trkpt lat="45.81058" lon="1.88618">
        <ele>687</ele>
        <time>2013-08-09T10:30:12Z</time>
      </trkpt>
      <trkpt lat="45.81045" lon="1.8861">
        <ele>684</ele>
        <time>2013-08-09T10:30:24Z</time>
      </trkpt>
      <trkpt lat="45.81033" lon="1.8862">
        <ele>686</ele>
        <time>2013-08-09T10:30:31Z</time>
      </trkpt>
      <trkpt lat="45.81015" lon="1.88625">
        <ele>685</ele>
        <time>2013-08-09T10:30:48Z</time>
      </trkpt>
      <trkpt lat="45.81005" lon="1.88648">
        <ele>683</ele>
        <time>2013-08-09T10:31:05Z</time>
      </trkpt>
      <trkpt lat="45.81" lon="1.88668">
        <ele>680</ele>
        <time>2013-08-09T10:31:14Z</time>
      </trkpt>
      <trkpt lat="45.80988" lon="1.88683">
        <ele>681</ele>
        <time>2013-08-09T10:31:20Z</time>
      </trkpt>
      <trkpt lat="45.80975" lon="1.8869">
        <ele>680</ele>
        <time>2013-08-09T10:31:31Z</time>
      </trkpt>
      <trkpt lat="45.8096" lon="1.88698">
        <ele>679</ele>
        <time>2013-08-09T10:31:37Z</time>
      </trkpt>
      <trkpt lat="45.80943" lon="1.88703">
        <ele>677</ele>
        <time>2013-08-09T10:31:46Z</time>
      </trkpt>
      <trkpt lat="45.80928" lon="1.88708">
        <ele>676</ele>
        <time>2013-08-09T10:31:54Z</time>
      </trkpt>
      <trkpt lat="45.80915" lon="1.88715">
        <ele>674</ele>
        <time>2013-08-09T10:32:01Z</time>
      </trkpt>
      <trkpt lat="45.809" lon="1.88718">
        <ele>672</ele>
        <time>2013-08-09T10:32:13Z</time>
      </trkpt>
      <trkpt lat="45.80885" lon="1.88723">
        <ele>669</ele>
        <time>2013-08-09T10:32:26Z</time>
      </trkpt>
      <trkpt lat="45.80868" lon="1.88733">
        <ele>671</ele>
        <time>2013-08-09T10:32:39Z</time>
      </trkpt>
      <trkpt lat="45.80853" lon="1.88735">
        <ele>672</ele>
        <time>2013-08-09T10:32:46Z</time>
      </trkpt>
      <trkpt lat="45.8084" lon="1.8872">
        <ele>672</ele>
        <time>2013-08-09T10:32:55Z</time>
      </trkpt>
      <trkpt lat="45.80828" lon="1.88713">
        <ele>674</ele>
        <time>2013-08-09T10:33:04Z</time>
      </trkpt>
      <trkpt lat="45.80833" lon="1.88693">
        <ele>680</ele>
        <time>2013-08-09T10:33:21Z</time>
      </trkpt>
      <trkpt lat="45.80843" lon="1.88675">
        <ele>680</ele>
        <time>2013-08-09T10:33:31Z</time>
      </trkpt>
      <trkpt lat="45.80855" lon="1.88663">
        <ele>683</ele>
        <time>2013-08-09T10:33:43Z</time>
      </trkpt>
      <trkpt lat="45.80848" lon="1.88595">
        <ele>678</ele>
        <time>2013-08-09T10:34:19Z</time>
      </trkpt>
      <trkpt lat="45.8084" lon="1.88578">
        <ele>678</ele>
        <time>2013-08-09T10:34:28Z</time>
      </trkpt>
      <trkpt lat="45.8083" lon="1.88563">
        <ele>678</ele>
        <time>2013-08-09T10:34:37Z</time>
      </trkpt>
      <trkpt lat="45.80825" lon="1.88543">
        <ele>680</ele>
        <time>2013-08-09T10:34:47Z</time>
      </trkpt>
      <trkpt lat="45.80818" lon="1.88525">
        <ele>682</ele>
        <time>2013-08-09T10:35:00Z</time>
      </trkpt>
      <trkpt lat="45.80803" lon="1.88523">
        <ele>687</ele>
        <time>2013-08-09T10:35:19Z</time>
      </trkpt>
      <trkpt lat="45.80788" lon="1.88523">
        <ele>689</ele>
        <time>2013-08-09T10:35:32Z</time>
      </trkpt>
      <trkpt lat="45.80775" lon="1.8853">
        <ele>688</ele>
        <time>2013-08-09T10:35:42Z</time>
      </trkpt>
      <trkpt lat="45.80763" lon="1.88538">
        <ele>687</ele>
        <time>2013-08-09T10:35:52Z</time>
      </trkpt>
      <trkpt lat="45.80748" lon="1.8854">
        <ele>688</ele>
        <time>2013-08-09T10:36:03Z</time>
      </trkpt>
      <trkpt lat="45.80733" lon="1.88543">
        <ele>687</ele>
        <time>2013-08-09T10:36:13Z</time>
      </trkpt>
      <trkpt lat="45.80718" lon="1.88545">
        <ele>687</ele>
        <time>2013-08-09T10:36:22Z</time>
      </trkpt>
      <trkpt lat="45.80703" lon="1.88543">
        <ele>688</ele>
        <time>2013-08-09T10:36:30Z</time>
      </trkpt>
      <trkpt lat="45.8069" lon="1.88535">
        <ele>691</ele>
        <time>2013-08-09T10:36:36Z</time>
      </trkpt>
      <trkpt lat="45.80675" lon="1.88538">
        <ele>690</ele>
        <time>2013-08-09T10:36:43Z</time>
      </trkpt>
      <trkpt lat="45.8066" lon="1.88533">
        <ele>687</ele>
        <time>2013-08-09T10:36:51Z</time>
      </trkpt>
      <trkpt lat="45.80645" lon="1.8853">
        <ele>687</ele>
        <time>2013-08-09T10:36:59Z</time>
      </trkpt>
      <trkpt lat="45.8063" lon="1.88528">
        <ele>686</ele>
        <time>2013-08-09T10:37:09Z</time>
      </trkpt>
      <trkpt lat="45.80615" lon="1.88525">
        <ele>687</ele>
        <time>2013-08-09T10:37:18Z</time>
      </trkpt>
      <trkpt lat="45.80598" lon="1.88525">
        <ele>684</ele>
        <time>2013-08-09T10:37:35Z</time>
      </trkpt>
      <trkpt lat="45.80585" lon="1.88533">
        <ele>681</ele>
        <time>2013-08-09T10:37:47Z</time>
      </trkpt>
      <trkpt lat="45.8057" lon="1.88535">
        <ele>680</ele>
        <time>2013-08-09T10:37:56Z</time>
      </trkpt>
      <trkpt lat="45.80565" lon="1.88515">
        <ele>683</ele>
        <time>2013-08-09T10:38:05Z</time>
      </trkpt>
      <trkpt lat="45.8056" lon="1.88493">
        <ele>680</ele>
        <time>2013-08-09T10:38:22Z</time>
      </trkpt>
      <trkpt lat="45.8055" lon="1.8847">
        <ele>682</ele>
        <time>2013-08-09T10:38:34Z</time>
      </trkpt>
      <trkpt lat="45.80543" lon="1.88453">
        <ele>685</ele>
        <time>2013-08-09T10:38:41Z</time>
      </trkpt>
      <trkpt lat="45.8054" lon="1.88433">
        <ele>685</ele>
        <time>2013-08-09T10:38:53Z</time>
      </trkpt>
      <trkpt lat="45.80528" lon="1.88418">
        <ele>685</ele>
        <time>2013-08-09T10:39:10Z</time>
      </trkpt>
      <trkpt lat="45.80513" lon="1.88423">
        <ele>686</ele>
        <time>2013-08-09T10:39:21Z</time>
      </trkpt>
      <trkpt lat="45.80498" lon="1.88418">
        <ele>679</ele>
        <time>2013-08-09T10:39:38Z</time>
      </trkpt>
      <trkpt lat="45.80483" lon="1.88423">
        <ele>678</ele>
        <time>2013-08-09T10:39:50Z</time>
      </trkpt>
      <trkpt lat="45.8047" lon="1.8843">
        <ele>675</ele>
        <time>2013-08-09T10:39:56Z</time>
      </trkpt>
      <trkpt lat="45.80458" lon="1.88443">
        <ele>675</ele>
        <time>2013-08-09T10:40:07Z</time>
      </trkpt>
      <trkpt lat="45.80445" lon="1.8845">
        <ele>674</ele>
        <time>2013-08-09T10:40:14Z</time>
      </trkpt>
      <trkpt lat="45.80428" lon="1.88455">
        <ele>676</ele>
        <time>2013-08-09T10:40:31Z</time>
      </trkpt>
      <trkpt lat="45.80418" lon="1.88473">
        <ele>676</ele>
        <time>2013-08-09T10:40:39Z</time>
      </trkpt>
      <trkpt lat="45.80405" lon="1.88485">
        <ele>677</ele>
        <time>2013-08-09T10:40:46Z</time>
      </trkpt>
      <trkpt lat="45.8039" lon="1.88485">
        <ele>677</ele>
        <time>2013-08-09T10:40:55Z</time>
      </trkpt>
      <trkpt lat="45.80378" lon="1.88498">
        <ele>674</ele>
        <time>2013-08-09T10:41:06Z</time>
      </trkpt>
      <trkpt lat="45.80365" lon="1.88515">
        <ele>676</ele>
        <time>2013-08-09T10:41:15Z</time>
      </trkpt>
      <trkpt lat="45.80353" lon="1.8853">
        <ele>676</ele>
        <time>2013-08-09T10:41:26Z</time>
      </trkpt>
      <trkpt lat="45.80338" lon="1.88535">
        <ele>677</ele>
        <time>2013-08-09T10:41:35Z</time>
      </trkpt>
      <trkpt lat="45.80323" lon="1.88535">
        <ele>676</ele>
        <time>2013-08-09T10:41:45Z</time>
      </trkpt>
      <trkpt lat="45.80308" lon="1.8854">
        <ele>678</ele>
        <time>2013-08-09T10:41:58Z</time>
      </trkpt>
      <trkpt lat="45.80295" lon="1.88548">
        <ele>677</ele>
        <time>2013-08-09T10:42:04Z</time>
      </trkpt>
      <trkpt lat="45.80283" lon="1.88555">
        <ele>677</ele>
        <time>2013-08-09T10:42:15Z</time>
      </trkpt>
      <trkpt lat="45.8027" lon="1.88565">
        <ele>677</ele>
        <time>2013-08-09T10:42:21Z</time>
      </trkpt>
      <trkpt lat="45.80258" lon="1.88578">
        <ele>677</ele>
        <time>2013-08-09T10:42:30Z</time>
      </trkpt>
      <trkpt lat="45.8024" lon="1.88578">
        <ele>675</ele>
        <time>2013-08-09T10:42:47Z</time>
      </trkpt>
      <trkpt lat="45.80225" lon="1.88583">
        <ele>676</ele>
        <time>2013-08-09T10:42:57Z</time>
      </trkpt>
      <trkpt lat="45.80213" lon="1.88575">
        <ele>677</ele>
        <time>2013-08-09T10:43:05Z</time>
      </trkpt>
      <trkpt lat="45.8018" lon="1.8857">
        <ele>678</ele>
        <time>2013-08-09T10:43:23Z</time>
      </trkpt>
      <trkpt lat="45.80165" lon="1.88565">
        <ele>679</ele>
        <time>2013-08-09T10:43:34Z</time>
      </trkpt>
      <trkpt lat="45.80153" lon="1.88575">
        <ele>677</ele>
        <time>2013-08-09T10:43:41Z</time>
      </trkpt>
      <trkpt lat="45.8014" lon="1.88568">
        <ele>676</ele>
        <time>2013-08-09T10:43:49Z</time>
      </trkpt>
      <trkpt lat="45.80118" lon="1.88565">
        <ele>678</ele>
        <time>2013-08-09T10:44:09Z</time>
      </trkpt>
      <trkpt lat="45.80103" lon="1.88565">
        <ele>678</ele>
        <time>2013-08-09T10:44:18Z</time>
      </trkpt>
      <trkpt lat="45.80088" lon="1.88568">
        <ele>679</ele>
        <time>2013-08-09T10:44:28Z</time>
      </trkpt>
      <trkpt lat="45.80078" lon="1.88583">
        <ele>679</ele>
        <time>2013-08-09T10:44:33Z</time>
      </trkpt>
      <trkpt lat="45.80065" lon="1.8859">
        <ele>677</ele>
        <time>2013-08-09T10:44:42Z</time>
      </trkpt>
      <trkpt lat="45.80058" lon="1.88608">
        <ele>678</ele>
        <time>2013-08-09T10:44:46Z</time>
      </trkpt>
      <trkpt lat="45.80045" lon="1.8862">
        <ele>677</ele>
        <time>2013-08-09T10:44:56Z</time>
      </trkpt>
      <trkpt lat="45.8004" lon="1.8864">
        <ele>678</ele>
        <time>2013-08-09T10:45:09Z</time>
      </trkpt>
      <trkpt lat="45.8003" lon="1.88658">
        <ele>678</ele>
        <time>2013-08-09T10:45:18Z</time>
      </trkpt>
      <trkpt lat="45.80015" lon="1.88663">
        <ele>678</ele>
        <time>2013-08-09T10:45:26Z</time>
      </trkpt>
      <trkpt lat="45.8" lon="1.88663">
        <ele>678</ele>
        <time>2013-08-09T10:45:34Z</time>
      </trkpt>
      <trkpt lat="45.79985" lon="1.8866">
        <ele>677</ele>
        <time>2013-08-09T10:45:42Z</time>
      </trkpt>
      <trkpt lat="45.7997" lon="1.88655">
        <ele>675</ele>
        <time>2013-08-09T10:45:52Z</time>
      </trkpt>
      <trkpt lat="45.79958" lon="1.88648">
        <ele>674</ele>
        <time>2013-08-09T10:46:00Z</time>
      </trkpt>
      <trkpt lat="45.79945" lon="1.8864">
        <ele>674</ele>
        <time>2013-08-09T10:46:09Z</time>
      </trkpt>
      <trkpt lat="45.79933" lon="1.88633">
        <ele>673</ele>
        <time>2013-08-09T10:46:17Z</time>
      </trkpt>
      <trkpt lat="45.7992" lon="1.88625">
        <ele>676</ele>
        <time>2013-08-09T10:46:26Z</time>
      </trkpt>
      <trkpt lat="45.79908" lon="1.88615">
        <ele>675</ele>
        <time>2013-08-09T10:46:36Z</time>
      </trkpt>
      <trkpt lat="45.79895" lon="1.88603">
        <ele>677</ele>
        <time>2013-08-09T10:46:47Z</time>
      </trkpt>
      <trkpt lat="45.79885" lon="1.88585">
        <ele>678</ele>
        <time>2013-08-09T10:46:58Z</time>
      </trkpt>
      <trkpt lat="45.79875" lon="1.8857">
        <ele>681</ele>
        <time>2013-08-09T10:47:07Z</time>
      </trkpt>
      <trkpt lat="45.79868" lon="1.88553">
        <ele>683</ele>
        <time>2013-08-09T10:47:16Z</time>
      </trkpt>
      <trkpt lat="45.7986" lon="1.88535">
        <ele>684</ele>
        <time>2013-08-09T10:47:26Z</time>
      </trkpt>
      <trkpt lat="45.79853" lon="1.88518">
        <ele>686</ele>
        <time>2013-08-09T10:47:36Z</time>
      </trkpt>
      <trkpt lat="45.7985" lon="1.88495">
        <ele>688</ele>
        <time>2013-08-09T10:47:45Z</time>
      </trkpt>
      <trkpt lat="45.79845" lon="1.88475">
        <ele>689</ele>
        <time>2013-08-09T10:47:55Z</time>
      </trkpt>
      <trkpt lat="45.79838" lon="1.88458">
        <ele>692</ele>
        <time>2013-08-09T10:48:04Z</time>
      </trkpt>
      <trkpt lat="45.7982" lon="1.88423">
        <ele>700</ele>
        <time>2013-08-09T10:48:30Z</time>
      </trkpt>
      <trkpt lat="45.7981" lon="1.88405">
        <ele>701</ele>
        <time>2013-08-09T10:48:37Z</time>
      </trkpt>
      <trkpt lat="45.798" lon="1.88388">
        <ele>703</ele>
        <time>2013-08-09T10:48:49Z</time>
      </trkpt>
      <trkpt lat="45.79788" lon="1.88365">
        <ele>705</ele>
        <time>2013-08-09T10:49:01Z</time>
      </trkpt>
      <trkpt lat="45.79778" lon="1.8835">
        <ele>708</ele>
        <time>2013-08-09T10:49:11Z</time>
      </trkpt>
      <trkpt lat="45.79765" lon="1.88335">
        <ele>711</ele>
        <time>2013-08-09T10:49:20Z</time>
      </trkpt>
      <trkpt lat="45.79755" lon="1.8832">
        <ele>713</ele>
        <time>2013-08-09T10:49:29Z</time>
      </trkpt>
      <trkpt lat="45.79743" lon="1.88305">
        <ele>711</ele>
        <time>2013-08-09T10:49:41Z</time>
      </trkpt>
      <trkpt lat="45.7973" lon="1.88295">
        <ele>712</ele>
        <time>2013-08-09T10:49:50Z</time>
      </trkpt>
      <trkpt lat="45.79718" lon="1.88285">
        <ele>710</ele>
        <time>2013-08-09T10:50:01Z</time>
      </trkpt>
      <trkpt lat="45.79708" lon="1.8827">
        <ele>711</ele>
        <time>2013-08-09T10:50:11Z</time>
      </trkpt>
      <trkpt lat="45.79695" lon="1.88263">
        <ele>708</ele>
        <time>2013-08-09T10:50:20Z</time>
      </trkpt>
      <trkpt lat="45.79683" lon="1.88255">
        <ele>706</ele>
        <time>2013-08-09T10:50:31Z</time>
      </trkpt>
      <trkpt lat="45.7967" lon="1.88245">
        <ele>706</ele>
        <time>2013-08-09T10:50:42Z</time>
      </trkpt>
      <trkpt lat="45.7966" lon="1.8823">
        <ele>706</ele>
        <time>2013-08-09T10:50:51Z</time>
      </trkpt>
      <trkpt lat="45.79648" lon="1.88218">
        <ele>708</ele>
        <time>2013-08-09T10:51:02Z</time>
      </trkpt>
      <trkpt lat="45.7964" lon="1.882">
        <ele>709</ele>
        <time>2013-08-09T10:51:12Z</time>
      </trkpt>
      <trkpt lat="45.79635" lon="1.8818">
        <ele>711</ele>
        <time>2013-08-09T10:51:22Z</time>
      </trkpt>
      <trkpt lat="45.79628" lon="1.8816">
        <ele>714</ele>
        <time>2013-08-09T10:51:33Z</time>
      </trkpt>
      <trkpt lat="45.7962" lon="1.8814">
        <ele>716</ele>
        <time>2013-08-09T10:51:44Z</time>
      </trkpt>
      <trkpt lat="45.7961" lon="1.88125">
        <ele>717</ele>
        <time>2013-08-09T10:51:54Z</time>
      </trkpt>
      <trkpt lat="45.79598" lon="1.88118">
        <ele>717</ele>
        <time>2013-08-09T10:52:02Z</time>
      </trkpt>
      <trkpt lat="45.79583" lon="1.8811">
        <ele>719</ele>
        <time>2013-08-09T10:52:13Z</time>
      </trkpt>
      <trkpt lat="45.7957" lon="1.88098">
        <ele>720</ele>
        <time>2013-08-09T10:52:25Z</time>
      </trkpt>
      <trkpt lat="45.79563" lon="1.8808">
        <ele>721</ele>
        <time>2013-08-09T10:52:35Z</time>
      </trkpt>
      <trkpt lat="45.79555" lon="1.88063">
        <ele>721</ele>
        <time>2013-08-09T10:52:47Z</time>
      </trkpt>
      <trkpt lat="45.79548" lon="1.88045">
        <ele>723</ele>
        <time>2013-08-09T10:52:57Z</time>
      </trkpt>
      <trkpt lat="45.79553" lon="1.88025">
        <ele>725</ele>
        <time>2013-08-09T10:53:10Z</time>
      </trkpt>
      <trkpt lat="45.79555" lon="1.88005">
        <ele>725</ele>
        <time>2013-08-09T10:53:19Z</time>
      </trkpt>
      <trkpt lat="45.79563" lon="1.87988">
        <ele>726</ele>
        <time>2013-08-09T10:53:28Z</time>
      </trkpt>
      <trkpt lat="45.7958" lon="1.8798">
        <ele>727</ele>
        <time>2013-08-09T10:53:45Z</time>
      </trkpt>
      <trkpt lat="45.79595" lon="1.87978">
        <ele>730</ele>
        <time>2013-08-09T10:53:56Z</time>
      </trkpt>
      <trkpt lat="45.7961" lon="1.8798">
        <ele>731</ele>
        <time>2013-08-09T10:54:04Z</time>
      </trkpt>
      <trkpt lat="45.7962" lon="1.87995">
        <ele>732</ele>
        <time>2013-08-09T10:54:24Z</time>
      </trkpt>
      <trkpt lat="45.79633" lon="1.88003">
        <ele>729</ele>
        <time>2013-08-09T10:54:31Z</time>
      </trkpt>
      <trkpt lat="45.7965" lon="1.88015">
        <ele>728</ele>
        <time>2013-08-09T10:54:48Z</time>
      </trkpt>
      <trkpt lat="45.79665" lon="1.88023">
        <ele>729</ele>
        <time>2013-08-09T10:54:56Z</time>
      </trkpt>
      <trkpt lat="45.79675" lon="1.88038">
        <ele>732</ele>
        <time>2013-08-09T10:55:06Z</time>
      </trkpt>
      <trkpt lat="45.79688" lon="1.88045">
        <ele>733</ele>
        <time>2013-08-09T10:55:13Z</time>
      </trkpt>
      <trkpt lat="45.797" lon="1.88055">
        <ele>738</ele>
        <time>2013-08-09T10:55:22Z</time>
      </trkpt>
      <trkpt lat="45.79715" lon="1.8806">
        <ele>741</ele>
        <time>2013-08-09T10:55:32Z</time>
      </trkpt>
      <trkpt lat="45.79728" lon="1.88053">
        <ele>742</ele>
        <time>2013-08-09T10:55:41Z</time>
      </trkpt>
      <trkpt lat="45.7974" lon="1.88045">
        <ele>741</ele>
        <time>2013-08-09T10:55:50Z</time>
      </trkpt>
      <trkpt lat="45.79755" lon="1.88045">
        <ele>744</ele>
        <time>2013-08-09T10:56:01Z</time>
      </trkpt>
      <trkpt lat="45.7977" lon="1.8805">
        <ele>744</ele>
        <time>2013-08-09T10:56:10Z</time>
      </trkpt>
      <trkpt lat="45.79783" lon="1.8806">
        <ele>747</ele>
        <time>2013-08-09T10:56:23Z</time>
      </trkpt>
      <trkpt lat="45.79783" lon="1.8804">
        <ele>749</ele>
        <time>2013-08-09T10:56:36Z</time>
      </trkpt>
      <trkpt lat="45.79783" lon="1.8802">
        <ele>750</ele>
        <time>2013-08-09T10:56:44Z</time>
      </trkpt>
      <trkpt lat="45.79785" lon="1.88">
        <ele>750</ele>
        <time>2013-08-09T10:56:56Z</time>
      </trkpt>
      <trkpt lat="45.79785" lon="1.8798">
        <ele>751</ele>
        <time>2013-08-09T10:57:06Z</time>
      </trkpt>
      <trkpt lat="45.79783" lon="1.8796">
        <ele>749</ele>
        <time>2013-08-09T10:57:23Z</time>
      </trkpt>
      <trkpt lat="45.79785" lon="1.8794">
        <ele>747</ele>
        <time>2013-08-09T10:57:33Z</time>
      </trkpt>
      <trkpt lat="45.7979" lon="1.8792">
        <ele>745</ele>
        <time>2013-08-09T10:57:45Z</time>
      </trkpt>
      <trkpt lat="45.79793" lon="1.879">
        <ele>744</ele>
        <time>2013-08-09T10:57:56Z</time>
      </trkpt>
      <trkpt lat="45.79793" lon="1.8788">
        <ele>741</ele>
        <time>2013-08-09T10:58:05Z</time>
      </trkpt>
      <trkpt lat="45.79795" lon="1.8786">
        <ele>738</ele>
        <time>2013-08-09T10:58:16Z</time>
      </trkpt>
      <trkpt lat="45.798" lon="1.8784">
        <ele>736</ele>
        <time>2013-08-09T10:58:26Z</time>
      </trkpt>
      <trkpt lat="45.798" lon="1.8782">
        <ele>735</ele>
        <time>2013-08-09T10:58:36Z</time>
      </trkpt>
      <trkpt lat="45.79803" lon="1.878">
        <ele>731</ele>
        <time>2013-08-09T10:58:49Z</time>
      </trkpt>
      <trkpt lat="45.79803" lon="1.8778">
        <ele>730</ele>
        <time>2013-08-09T10:58:59Z</time>
      </trkpt>
      <trkpt lat="45.79808" lon="1.8776">
        <ele>727</ele>
        <time>2013-08-09T10:59:10Z</time>
      </trkpt>
      <trkpt lat="45.7981" lon="1.8774">
        <ele>724</ele>
        <time>2013-08-09T10:59:21Z</time>
      </trkpt>
      <trkpt lat="45.79808" lon="1.8772">
        <ele>722</ele>
        <time>2013-08-09T10:59:31Z</time>
      </trkpt>
      <trkpt lat="45.7981" lon="1.877">
        <ele>720</ele>
        <time>2013-08-09T10:59:41Z</time>
      </trkpt>
      <trkpt lat="45.79815" lon="1.8768">
        <ele>717</ele>
        <time>2013-08-09T10:59:51Z</time>
      </trkpt>
      <trkpt lat="45.79815" lon="1.8766">
        <ele>715</ele>
        <time>2013-08-09T11:00:02Z</time>
      </trkpt>
      <trkpt lat="45.79815" lon="1.87625">
        <ele>712</ele>
        <time>2013-08-09T11:00:26Z</time>
      </trkpt>
      <trkpt lat="45.7981" lon="1.87605">
        <ele>709</ele>
        <time>2013-08-09T11:00:37Z</time>
      </trkpt>
      <trkpt lat="45.79803" lon="1.87588">
        <ele>708</ele>
        <time>2013-08-09T11:00:47Z</time>
      </trkpt>
      <trkpt lat="45.798" lon="1.87568">
        <ele>705</ele>
        <time>2013-08-09T11:00:57Z</time>
      </trkpt>
      <trkpt lat="45.79798" lon="1.87548">
        <ele>703</ele>
        <time>2013-08-09T11:01:09Z</time>
      </trkpt>
      <trkpt lat="45.79805" lon="1.8753">
        <ele>699</ele>
        <time>2013-08-09T11:01:19Z</time>
      </trkpt>
      <trkpt lat="45.79813" lon="1.8751">
        <ele>694</ele>
        <time>2013-08-09T11:01:28Z</time>
      </trkpt>
      <trkpt lat="45.7982" lon="1.87493">
        <ele>690</ele>
        <time>2013-08-09T11:01:39Z</time>
      </trkpt>
      <trkpt lat="45.79818" lon="1.87473">
        <ele>689</ele>
        <time>2013-08-09T11:01:49Z</time>
      </trkpt>
      <trkpt lat="45.79825" lon="1.87453">
        <ele>686</ele>
        <time>2013-08-09T11:02:02Z</time>
      </trkpt>
      <trkpt lat="45.79823" lon="1.87433">
        <ele>684</ele>
        <time>2013-08-09T11:02:14Z</time>
      </trkpt>
      <trkpt lat="45.7983" lon="1.87413">
        <ele>678</ele>
        <time>2013-08-09T11:02:25Z</time>
      </trkpt>
      <trkpt lat="45.79828" lon="1.87393">
        <ele>674</ele>
        <time>2013-08-09T11:02:38Z</time>
      </trkpt>
      <trkpt lat="45.7984" lon="1.87385">
        <ele>670</ele>
        <time>2013-08-09T11:02:49Z</time>
      </trkpt>
      <trkpt lat="45.79855" lon="1.87388">
        <ele>665</ele>
        <time>2013-08-09T11:03:00Z</time>
      </trkpt>
      <trkpt lat="45.79868" lon="1.87395">
        <ele>661</ele>
        <time>2013-08-09T11:03:08Z</time>
      </trkpt>
      <trkpt lat="45.7988" lon="1.87403">
        <ele>657</ele>
        <time>2013-08-09T11:03:16Z</time>
      </trkpt>
      <trkpt lat="45.79895" lon="1.8741">
        <ele>654</ele>
        <time>2013-08-09T11:03:26Z</time>
      </trkpt>
      <trkpt lat="45.79908" lon="1.87418">
        <ele>652</ele>
        <time>2013-08-09T11:03:35Z</time>
      </trkpt>
      <trkpt lat="45.79923" lon="1.87425">
        <ele>649</ele>
        <time>2013-08-09T11:03:45Z</time>
      </trkpt>
      <trkpt lat="45.79935" lon="1.87435">
        <ele>648</ele>
        <time>2013-08-09T11:03:56Z</time>
      </trkpt>
      <trkpt lat="45.79948" lon="1.87445">
        <ele>651</ele>
        <time>2013-08-09T11:04:16Z</time>
      </trkpt>
      <trkpt lat="45.79963" lon="1.8745">
        <ele>653</ele>
        <time>2013-08-09T11:04:26Z</time>
      </trkpt>
      <trkpt lat="45.79975" lon="1.87463">
        <ele>654</ele>
        <time>2013-08-09T11:04:35Z</time>
      </trkpt>
      <trkpt lat="45.79988" lon="1.8747">
        <ele>655</ele>
        <time>2013-08-09T11:04:48Z</time>
      </trkpt>
      <trkpt lat="45.8" lon="1.87483">
        <ele>656</ele>
        <time>2013-08-09T11:04:59Z</time>
      </trkpt>
      <trkpt lat="45.80013" lon="1.8749">
        <ele>656</ele>
        <time>2013-08-09T11:05:09Z</time>
      </trkpt>
      <trkpt lat="45.8004" lon="1.87495">
        <ele>655</ele>
        <time>2013-08-09T11:05:26Z</time>
      </trkpt>
      <trkpt lat="45.8006" lon="1.87493">
        <ele>660</ele>
        <time>2013-08-09T11:05:38Z</time>
      </trkpt>
      <trkpt lat="45.80075" lon="1.8749">
        <ele>665</ele>
        <time>2013-08-09T11:05:47Z</time>
      </trkpt>
      <trkpt lat="45.80088" lon="1.875">
        <ele>666</ele>
        <time>2013-08-09T11:05:55Z</time>
      </trkpt>
      <trkpt lat="45.801" lon="1.87508">
        <ele>665</ele>
        <time>2013-08-09T11:06:05Z</time>
      </trkpt>
      <trkpt lat="45.80115" lon="1.87528">
        <ele>664</ele>
        <time>2013-08-09T11:06:22Z</time>
      </trkpt>
      <trkpt lat="45.80128" lon="1.87535">
        <ele>662</ele>
        <time>2013-08-09T11:06:29Z</time>
      </trkpt>
      <trkpt lat="45.8014" lon="1.87545">
        <ele>657</ele>
        <time>2013-08-09T11:06:41Z</time>
      </trkpt>
      <trkpt lat="45.80153" lon="1.87558">
        <ele>653</ele>
        <time>2013-08-09T11:06:51Z</time>
      </trkpt>
      <trkpt lat="45.80165" lon="1.87573">
        <ele>654</ele>
        <time>2013-08-09T11:07:00Z</time>
      </trkpt>
      <trkpt lat="45.80178" lon="1.87588">
        <ele>657</ele>
        <time>2013-08-09T11:07:13Z</time>
      </trkpt>
      <trkpt lat="45.80193" lon="1.87595">
        <ele>660</ele>
        <time>2013-08-09T11:07:21Z</time>
      </trkpt>
      <trkpt lat="45.80205" lon="1.87603">
        <ele>662</ele>
        <time>2013-08-09T11:07:29Z</time>
      </trkpt>
      <trkpt lat="45.80218" lon="1.8761">
        <ele>663</ele>
        <time>2013-08-09T11:07:36Z</time>
      </trkpt>
      <trkpt lat="45.8023" lon="1.87618">
        <ele>663</ele>
        <time>2013-08-09T11:07:47Z</time>
      </trkpt>
      <trkpt lat="45.80243" lon="1.8763">
        <ele>663</ele>
        <time>2013-08-09T11:07:57Z</time>
      </trkpt>
      <trkpt lat="45.80255" lon="1.8764">
        <ele>664</ele>
        <time>2013-08-09T11:08:05Z</time>
      </trkpt>
      <trkpt lat="45.80265" lon="1.87655">
        <ele>665</ele>
        <time>2013-08-09T11:08:14Z</time>
      </trkpt>
      <trkpt lat="45.80275" lon="1.8767">
        <ele>664</ele>
        <time>2013-08-09T11:08:25Z</time>
      </trkpt>
      <trkpt lat="45.80288" lon="1.8768">
        <ele>663</ele>
        <time>2013-08-09T11:08:30Z</time>
      </trkpt>
      <trkpt lat="45.80303" lon="1.87685">
        <ele>662</ele>
        <time>2013-08-09T11:08:41Z</time>
      </trkpt>
      <trkpt lat="45.80313" lon="1.877">
        <ele>662</ele>
        <time>2013-08-09T11:08:52Z</time>
      </trkpt>
      <trkpt lat="45.8032" lon="1.87718">
        <ele>661</ele>
        <time>2013-08-09T11:09:01Z</time>
      </trkpt>
      <trkpt lat="45.80333" lon="1.87725">
        <ele>660</ele>
        <time>2013-08-09T11:09:10Z</time>
      </trkpt>
      <trkpt lat="45.8034" lon="1.87743">
        <ele>662</ele>
        <time>2013-08-09T11:09:17Z</time>
      </trkpt>
      <trkpt lat="45.8035" lon="1.87763">
        <ele>662</ele>
        <time>2013-08-09T11:09:26Z</time>
      </trkpt>
      <trkpt lat="45.8036" lon="1.87778">
        <ele>662</ele>
        <time>2013-08-09T11:09:33Z</time>
      </trkpt>
      <trkpt lat="45.80373" lon="1.87788">
        <ele>667</ele>
        <time>2013-08-09T11:09:40Z</time>
      </trkpt>
      <trkpt lat="45.80385" lon="1.87798">
        <ele>668</ele>
        <time>2013-08-09T11:09:48Z</time>
      </trkpt>
      <trkpt lat="45.804" lon="1.87805">
        <ele>670</ele>
        <time>2013-08-09T11:09:56Z</time>
      </trkpt>
      <trkpt lat="45.80413" lon="1.8782">
        <ele>669</ele>
        <time>2013-08-09T11:10:05Z</time>
      </trkpt>
      <trkpt lat="45.80423" lon="1.87835">
        <ele>667</ele>
        <time>2013-08-09T11:10:15Z</time>
      </trkpt>
      <trkpt lat="45.80433" lon="1.87853">
        <ele>670</ele>
        <time>2013-08-09T11:10:24Z</time>
      </trkpt>
      <trkpt lat="45.80438" lon="1.87873">
        <ele>666</ele>
        <time>2013-08-09T11:10:32Z</time>
      </trkpt>
      <trkpt lat="45.80445" lon="1.87898">
        <ele>668</ele>
        <time>2013-08-09T11:10:49Z</time>
      </trkpt>
      <trkpt lat="45.80455" lon="1.87915">
        <ele>672</ele>
        <time>2013-08-09T11:10:57Z</time>
      </trkpt>
      <trkpt lat="45.80465" lon="1.8793">
        <ele>675</ele>
        <time>2013-08-09T11:11:51Z</time>
      </trkpt>
      <trkpt lat="45.8048" lon="1.87933">
        <ele>688</ele>
        <time>2013-08-09T11:13:02Z</time>
      </trkpt>
      <trkpt lat="45.80465" lon="1.87935">
        <ele>678</ele>
        <time>2013-08-09T11:15:08Z</time>
      </trkpt>
      <trkpt lat="45.80478" lon="1.87943">
        <ele>675</ele>
        <time>2013-08-09T11:17:25Z</time>
      </trkpt>
      <trkpt lat="45.80488" lon="1.87958">
        <ele>675</ele>
        <time>2013-08-09T11:17:35Z</time>
      </trkpt>
      <trkpt lat="45.805" lon="1.87973">
        <ele>677</ele>
        <time>2013-08-09T11:17:44Z</time>
      </trkpt>
      <trkpt lat="45.80515" lon="1.87973">
        <ele>679</ele>
        <time>2013-08-09T11:17:55Z</time>
      </trkpt>
      <trkpt lat="45.80528" lon="1.87965">
        <ele>680</ele>
        <time>2013-08-09T11:18:06Z</time>
      </trkpt>
      <trkpt lat="45.8054" lon="1.87958">
        <ele>680</ele>
        <time>2013-08-09T11:18:19Z</time>
      </trkpt>
      <trkpt lat="45.80555" lon="1.87953">
        <ele>680</ele>
        <time>2013-08-09T11:18:28Z</time>
      </trkpt>
      <trkpt lat="45.80568" lon="1.87945">
        <ele>680</ele>
        <time>2013-08-09T11:18:38Z</time>
      </trkpt>
      <trkpt lat="45.8058" lon="1.87938">
        <ele>679</ele>
        <time>2013-08-09T11:18:47Z</time>
      </trkpt>
      <trkpt lat="45.80595" lon="1.87933">
        <ele>678</ele>
        <time>2013-08-09T11:18:55Z</time>
      </trkpt>
      <trkpt lat="45.8061" lon="1.8793">
        <ele>680</ele>
        <time>2013-08-09T11:19:04Z</time>
      </trkpt>
      <trkpt lat="45.8063" lon="1.8793">
        <ele>679</ele>
        <time>2013-08-09T11:19:16Z</time>
      </trkpt>
      <trkpt lat="45.80645" lon="1.87935">
        <ele>679</ele>
        <time>2013-08-09T11:19:24Z</time>
      </trkpt>
      <trkpt lat="45.8066" lon="1.87938">
        <ele>678</ele>
        <time>2013-08-09T11:19:33Z</time>
      </trkpt>
      <trkpt lat="45.80675" lon="1.8794">
        <ele>680</ele>
        <time>2013-08-09T11:19:42Z</time>
      </trkpt>
      <trkpt lat="45.8069" lon="1.87945">
        <ele>681</ele>
        <time>2013-08-09T11:19:51Z</time>
      </trkpt>
      <trkpt lat="45.80705" lon="1.8795">
        <ele>680</ele>
        <time>2013-08-09T11:20:02Z</time>
      </trkpt>
      <trkpt lat="45.8072" lon="1.87953">
        <ele>680</ele>
        <time>2013-08-09T11:20:11Z</time>
      </trkpt>
      <trkpt lat="45.80735" lon="1.87958">
        <ele>682</ele>
        <time>2013-08-09T11:20:20Z</time>
      </trkpt>
      <trkpt lat="45.8075" lon="1.87963">
        <ele>682</ele>
        <time>2013-08-09T11:20:29Z</time>
      </trkpt>
      <trkpt lat="45.80765" lon="1.8797">
        <ele>682</ele>
        <time>2013-08-09T11:20:39Z</time>
      </trkpt>
      <trkpt lat="45.80778" lon="1.87978">
        <ele>681</ele>
        <time>2013-08-09T11:20:49Z</time>
      </trkpt>
      <trkpt lat="45.8079" lon="1.8799">
        <ele>679</ele>
        <time>2013-08-09T11:20:59Z</time>
      </trkpt>
      <trkpt lat="45.80805" lon="1.88005">
        <ele>681</ele>
        <time>2013-08-09T11:21:16Z</time>
      </trkpt>
      <trkpt lat="45.80815" lon="1.8802">
        <ele>682</ele>
        <time>2013-08-09T11:21:25Z</time>
      </trkpt>
      <trkpt lat="45.80825" lon="1.88035">
        <ele>682</ele>
        <time>2013-08-09T11:21:32Z</time>
      </trkpt>
      <trkpt lat="45.80833" lon="1.88055">
        <ele>680</ele>
        <time>2013-08-09T11:21:45Z</time>
      </trkpt>
      <trkpt lat="45.80845" lon="1.88068">
        <ele>677</ele>
        <time>2013-08-09T11:21:52Z</time>
      </trkpt>
      <trkpt lat="45.80855" lon="1.88083">
        <ele>676</ele>
        <time>2013-08-09T11:21:59Z</time>
      </trkpt>
      <trkpt lat="45.80868" lon="1.8809">
        <ele>677</ele>
        <time>2013-08-09T11:22:10Z</time>
      </trkpt>
      <trkpt lat="45.80883" lon="1.88095">
        <ele>678</ele>
        <time>2013-08-09T11:22:19Z</time>
      </trkpt>
      <trkpt lat="45.80898" lon="1.88098">
        <ele>678</ele>
        <time>2013-08-09T11:22:28Z</time>
      </trkpt>
      <trkpt lat="45.80915" lon="1.88098">
        <ele>680</ele>
        <time>2013-08-09T11:22:39Z</time>
      </trkpt>
      <trkpt lat="45.8093" lon="1.88103">
        <ele>683</ele>
        <time>2013-08-09T11:22:48Z</time>
      </trkpt>
      <trkpt lat="45.80945" lon="1.88108">
        <ele>686</ele>
        <time>2013-08-09T11:22:58Z</time>
      </trkpt>
      <trkpt lat="45.8096" lon="1.88113">
        <ele>689</ele>
        <time>2013-08-09T11:23:08Z</time>
      </trkpt>
      <trkpt lat="45.80973" lon="1.8812">
        <ele>691</ele>
        <time>2013-08-09T11:23:16Z</time>
      </trkpt>
      <trkpt lat="45.80985" lon="1.88128">
        <ele>693</ele>
        <time>2013-08-09T11:23:25Z</time>
      </trkpt>
      <trkpt lat="45.80998" lon="1.88143">
        <ele>693</ele>
        <time>2013-08-09T11:23:35Z</time>
      </trkpt>
      <trkpt lat="45.8101" lon="1.88153">
        <ele>694</ele>
        <time>2013-08-09T11:23:44Z</time>
      </trkpt>
      <trkpt lat="45.81023" lon="1.8816">
        <ele>696</ele>
        <time>2013-08-09T11:23:51Z</time>
      </trkpt>
      <trkpt lat="45.81035" lon="1.88168">
        <ele>698</ele>
        <time>2013-08-09T11:23:59Z</time>
      </trkpt>
      <trkpt lat="45.81053" lon="1.88175">
        <ele>700</ele>
        <time>2013-08-09T11:24:09Z</time>
      </trkpt>
      <trkpt lat="45.81068" lon="1.88178">
        <ele>703</ele>
        <time>2013-08-09T11:24:18Z</time>
      </trkpt>
      <trkpt lat="45.81083" lon="1.88175">
        <ele>705</ele>
        <time>2013-08-09T11:24:27Z</time>
      </trkpt>
      <trkpt lat="45.81098" lon="1.8817">
        <ele>709</ele>
        <time>2013-08-09T11:24:34Z</time>
      </trkpt>
      <trkpt lat="45.81113" lon="1.88165">
        <ele>713</ele>
        <time>2013-08-09T11:24:43Z</time>
      </trkpt>
      <trkpt lat="45.81123" lon="1.8815">
        <ele>709</ele>
        <time>2013-08-09T11:24:55Z</time>
      </trkpt>
      <trkpt lat="45.81138" lon="1.88143">
        <ele>704</ele>
        <time>2013-08-09T11:25:07Z</time>
      </trkpt>
      <trkpt lat="45.8115" lon="1.88135">
        <ele>704</ele>
        <time>2013-08-09T11:25:18Z</time>
      </trkpt>
      <trkpt lat="45.81155" lon="1.88115">
        <ele>701</ele>
        <time>2013-08-09T11:25:31Z</time>
      </trkpt>
      <trkpt lat="45.81168" lon="1.88093">
        <ele>700</ele>
        <time>2013-08-09T11:25:48Z</time>
      </trkpt>
      <trkpt lat="45.8118" lon="1.88083">
        <ele>699</ele>
        <time>2013-08-09T11:25:57Z</time>
      </trkpt>
      <trkpt lat="45.81193" lon="1.8807">
        <ele>698</ele>
        <time>2013-08-09T11:26:06Z</time>
      </trkpt>
      <trkpt lat="45.812" lon="1.88053">
        <ele>699</ele>
        <time>2013-08-09T11:26:15Z</time>
      </trkpt>
      <trkpt lat="45.8122" lon="1.88055">
        <ele>692</ele>
        <time>2013-08-09T11:26:56Z</time>
      </trkpt>
      <trkpt lat="45.8122" lon="1.88035">
        <ele>690</ele>
        <time>2013-08-09T11:27:06Z</time>
      </trkpt>
      <trkpt lat="45.8123" lon="1.88015">
        <ele>688</ele>
        <time>2013-08-09T11:27:23Z</time>
      </trkpt>
      <trkpt lat="45.81233" lon="1.87995">
        <ele>686</ele>
        <time>2013-08-09T11:27:35Z</time>
      </trkpt>
      <trkpt lat="45.81243" lon="1.87978">
        <ele>683</ele>
        <time>2013-08-09T11:27:45Z</time>
      </trkpt>
      <trkpt lat="45.8125" lon="1.8796">
        <ele>680</ele>
        <time>2013-08-09T11:27:55Z</time>
      </trkpt>
      <trkpt lat="45.81258" lon="1.87943">
        <ele>674</ele>
        <time>2013-08-09T11:28:05Z</time>
      </trkpt>
      <trkpt lat="45.8127" lon="1.87935">
        <ele>676</ele>
        <time>2013-08-09T11:28:14Z</time>
      </trkpt>
      <trkpt lat="45.81288" lon="1.87935">
        <ele>674</ele>
        <time>2013-08-09T11:28:31Z</time>
      </trkpt>
      <trkpt lat="45.81303" lon="1.8793">
        <ele>670</ele>
        <time>2013-08-09T11:28:38Z</time>
      </trkpt>
      <trkpt lat="45.81318" lon="1.87935">
        <ele>666</ele>
        <time>2013-08-09T11:28:51Z</time>
      </trkpt>
      <trkpt lat="45.81333" lon="1.87933">
        <ele>665</ele>
        <time>2013-08-09T11:29:00Z</time>
      </trkpt>
      <trkpt lat="45.81348" lon="1.8793">
        <ele>664</ele>
        <time>2013-08-09T11:29:08Z</time>
      </trkpt>
      <trkpt lat="45.81363" lon="1.8792">
        <ele>667</ele>
        <time>2013-08-09T11:29:17Z</time>
      </trkpt>
      <trkpt lat="45.8137" lon="1.87903">
        <ele>668</ele>
        <time>2013-08-09T11:29:26Z</time>
      </trkpt>
      <trkpt lat="45.8138" lon="1.87888">
        <ele>667</ele>
        <time>2013-08-09T11:29:32Z</time>
      </trkpt>
      <trkpt lat="45.81393" lon="1.87875">
        <ele>666</ele>
        <time>2013-08-09T11:29:40Z</time>
      </trkpt>
      <trkpt lat="45.814" lon="1.87858">
        <ele>666</ele>
        <time>2013-08-09T11:29:47Z</time>
      </trkpt>
      <trkpt lat="45.81415" lon="1.87855">
        <ele>666</ele>
        <time>2013-08-09T11:29:57Z</time>
      </trkpt>
      <trkpt lat="45.81428" lon="1.87863">
        <ele>665</ele>
        <time>2013-08-09T11:30:04Z</time>
      </trkpt>
      <trkpt lat="45.81443" lon="1.87858">
        <ele>664</ele>
        <time>2013-08-09T11:30:21Z</time>
      </trkpt>
      <trkpt lat="45.81458" lon="1.8786">
        <ele>666</ele>
        <time>2013-08-09T11:30:30Z</time>
      </trkpt>
      <trkpt lat="45.8147" lon="1.8785">
        <ele>672</ele>
        <time>2013-08-09T11:30:47Z</time>
      </trkpt>
      <trkpt lat="45.8148" lon="1.87835">
        <ele>673</ele>
        <time>2013-08-09T11:31:04Z</time>
      </trkpt>
      <trkpt lat="45.81473" lon="1.87815">
        <ele>675</ele>
        <time>2013-08-09T11:31:17Z</time>
      </trkpt>
      <trkpt lat="45.81468" lon="1.87793">
        <ele>677</ele>
        <time>2013-08-09T11:31:28Z</time>
      </trkpt>
      <trkpt lat="45.81463" lon="1.87773">
        <ele>679</ele>
        <time>2013-08-09T11:31:38Z</time>
      </trkpt>
      <trkpt lat="45.81455" lon="1.8775">
        <ele>680</ele>
        <time>2013-08-09T11:31:47Z</time>
      </trkpt>
      <trkpt lat="45.81443" lon="1.8774">
        <ele>682</ele>
        <time>2013-08-09T11:31:57Z</time>
      </trkpt>
      <trkpt lat="45.81433" lon="1.87725">
        <ele>686</ele>
        <time>2013-08-09T11:32:07Z</time>
      </trkpt>
      <trkpt lat="45.81425" lon="1.87705">
        <ele>681</ele>
        <time>2013-08-09T11:32:17Z</time>
      </trkpt>
      <trkpt lat="45.81415" lon="1.87688">
        <ele>679</ele>
        <time>2013-08-09T11:32:27Z</time>
      </trkpt>
      <trkpt lat="45.81403" lon="1.87675">
        <ele>680</ele>
        <time>2013-08-09T11:32:36Z</time>
      </trkpt>
      <trkpt lat="45.8139" lon="1.87668">
        <ele>681</ele>
        <time>2013-08-09T11:32:43Z</time>
      </trkpt>
      <trkpt lat="45.81378" lon="1.87658">
        <ele>679</ele>
        <time>2013-08-09T11:32:53Z</time>
      </trkpt>
      <trkpt lat="45.8138" lon="1.8763">
        <ele>683</ele>
        <time>2013-08-09T11:33:10Z</time>
      </trkpt>
      <trkpt lat="45.81383" lon="1.8761">
        <ele>684</ele>
        <time>2013-08-09T11:33:20Z</time>
      </trkpt>
      <trkpt lat="45.81385" lon="1.8759">
        <ele>682</ele>
        <time>2013-08-09T11:33:29Z</time>
      </trkpt>
      <trkpt lat="45.81385" lon="1.8757">
        <ele>683</ele>
        <time>2013-08-09T11:33:37Z</time>
      </trkpt>
      <trkpt lat="45.8139" lon="1.8755">
        <ele>678</ele>
        <time>2013-08-09T11:33:48Z</time>
      </trkpt>
      <trkpt lat="45.81395" lon="1.8753">
        <ele>679</ele>
        <time>2013-08-09T11:33:57Z</time>
      </trkpt>
      <trkpt lat="45.81408" lon="1.87518">
        <ele>680</ele>
        <time>2013-08-09T11:34:07Z</time>
      </trkpt>
      <trkpt lat="45.81415" lon="1.875">
        <ele>680</ele>
        <time>2013-08-09T11:34:17Z</time>
      </trkpt>
      <trkpt lat="45.81425" lon="1.87485">
        <ele>680</ele>
        <time>2013-08-09T11:34:27Z</time>
      </trkpt>
      <trkpt lat="45.81435" lon="1.8747">
        <ele>682</ele>
        <time>2013-08-09T11:34:37Z</time>
      </trkpt>
      <trkpt lat="45.81443" lon="1.87453">
        <ele>685</ele>
        <time>2013-08-09T11:34:45Z</time>
      </trkpt>
      <trkpt lat="45.81453" lon="1.87438">
        <ele>690</ele>
        <time>2013-08-09T11:34:58Z</time>
      </trkpt>
      <trkpt lat="45.81463" lon="1.87423">
        <ele>693</ele>
        <time>2013-08-09T11:35:09Z</time>
      </trkpt>
      <trkpt lat="45.81478" lon="1.87423">
        <ele>693</ele>
        <time>2013-08-09T11:35:16Z</time>
      </trkpt>
      <trkpt lat="45.81493" lon="1.8742">
        <ele>697</ele>
        <time>2013-08-09T11:35:28Z</time>
      </trkpt>
      <trkpt lat="45.81505" lon="1.87408">
        <ele>699</ele>
        <time>2013-08-09T11:35:41Z</time>
      </trkpt>
      <trkpt lat="45.81515" lon="1.87393">
        <ele>699</ele>
        <time>2013-08-09T11:35:51Z</time>
      </trkpt>
      <trkpt lat="45.81525" lon="1.87375">
        <ele>699</ele>
        <time>2013-08-09T11:36:02Z</time>
      </trkpt>
      <trkpt lat="45.81538" lon="1.87345">
        <ele>699</ele>
        <time>2013-08-09T11:36:19Z</time>
      </trkpt>
      <trkpt lat="45.8155" lon="1.8733">
        <ele>700</ele>
        <time>2013-08-09T11:36:29Z</time>
      </trkpt>
      <trkpt lat="45.81558" lon="1.87313">
        <ele>700</ele>
        <time>2013-08-09T11:36:38Z</time>
      </trkpt>
      <trkpt lat="45.8157" lon="1.873">
        <ele>702</ele>
        <time>2013-08-09T11:36:47Z</time>
      </trkpt>
      <trkpt lat="45.8158" lon="1.87285">
        <ele>703</ele>
        <time>2013-08-09T11:36:56Z</time>
      </trkpt>
      <trkpt lat="45.81593" lon="1.8727">
        <ele>704</ele>
        <time>2013-08-09T11:37:05Z</time>
      </trkpt>
      <trkpt lat="45.81605" lon="1.8726">
        <ele>707</ele>
        <time>2013-08-09T11:37:22Z</time>
      </trkpt>
      <trkpt lat="45.8162" lon="1.8725">
        <ele>710</ele>
        <time>2013-08-09T11:37:28Z</time>
      </trkpt>
      <trkpt lat="45.81648" lon="1.87238">
        <ele>712</ele>
        <time>2013-08-09T11:37:46Z</time>
      </trkpt>
      <trkpt lat="45.81658" lon="1.87223">
        <ele>711</ele>
        <time>2013-08-09T11:37:54Z</time>
      </trkpt>
      <trkpt lat="45.8167" lon="1.8721">
        <ele>712</ele>
        <time>2013-08-09T11:38:02Z</time>
      </trkpt>
      <trkpt lat="45.8168" lon="1.87195">
        <ele>711</ele>
        <time>2013-08-09T11:38:10Z</time>
      </trkpt>
      <trkpt lat="45.81688" lon="1.87178">
        <ele>710</ele>
        <time>2013-08-09T11:38:20Z</time>
      </trkpt>
      <trkpt lat="45.81698" lon="1.87163">
        <ele>711</ele>
        <time>2013-08-09T11:38:27Z</time>
      </trkpt>
      <trkpt lat="45.81708" lon="1.87148">
        <ele>710</ele>
        <time>2013-08-09T11:38:34Z</time>
      </trkpt>
      <trkpt lat="45.81718" lon="1.87133">
        <ele>709</ele>
        <time>2013-08-09T11:38:44Z</time>
      </trkpt>
      <trkpt lat="45.81723" lon="1.87113">
        <ele>709</ele>
        <time>2013-08-09T11:38:52Z</time>
      </trkpt>
      <trkpt lat="45.81728" lon="1.87093">
        <ele>706</ele>
        <time>2013-08-09T11:39:02Z</time>
      </trkpt>
      <trkpt lat="45.81735" lon="1.87075">
        <ele>709</ele>
        <time>2013-08-09T11:39:10Z</time>
      </trkpt>
      <trkpt lat="45.8174" lon="1.87055">
        <ele>712</ele>
        <time>2013-08-09T11:39:20Z</time>
      </trkpt>
      <trkpt lat="45.81745" lon="1.87035">
        <ele>718</ele>
        <time>2013-08-09T11:39:31Z</time>
      </trkpt>
      <trkpt lat="45.81748" lon="1.87015">
        <ele>707</ele>
        <time>2013-08-09T11:39:42Z</time>
      </trkpt>
      <trkpt lat="45.8175" lon="1.86993">
        <ele>702</ele>
        <time>2013-08-09T11:39:52Z</time>
      </trkpt>
      <trkpt lat="45.81763" lon="1.86983">
        <ele>702</ele>
        <time>2013-08-09T11:39:59Z</time>
      </trkpt>
      <trkpt lat="45.8177" lon="1.86965">
        <ele>703</ele>
        <time>2013-08-09T11:40:11Z</time>
      </trkpt>
      <trkpt lat="45.81775" lon="1.86945">
        <ele>703</ele>
        <time>2013-08-09T11:40:21Z</time>
      </trkpt>
      <trkpt lat="45.81778" lon="1.86925">
        <ele>705</ele>
        <time>2013-08-09T11:40:40Z</time>
      </trkpt>
      <trkpt lat="45.8179" lon="1.86918">
        <ele>705</ele>
        <time>2013-08-09T11:40:46Z</time>
      </trkpt>
      <trkpt lat="45.81798" lon="1.869">
        <ele>706</ele>
        <time>2013-08-09T11:40:53Z</time>
      </trkpt>
      <trkpt lat="45.8181" lon="1.86888">
        <ele>705</ele>
        <time>2013-08-09T11:41:00Z</time>
      </trkpt>
      <trkpt lat="45.8182" lon="1.8687">
        <ele>707</ele>
        <time>2013-08-09T11:41:07Z</time>
      </trkpt>
      <trkpt lat="45.81835" lon="1.86868">
        <ele>712</ele>
        <time>2013-08-09T11:41:16Z</time>
      </trkpt>
      <trkpt lat="45.8185" lon="1.86865">
        <ele>717</ele>
        <time>2013-08-09T11:41:25Z</time>
      </trkpt>
      <trkpt lat="45.81865" lon="1.86868">
        <ele>720</ele>
        <time>2013-08-09T11:41:34Z</time>
      </trkpt>
      <trkpt lat="45.81888" lon="1.8687">
        <ele>722</ele>
        <time>2013-08-09T11:41:51Z</time>
      </trkpt>
      <trkpt lat="45.81903" lon="1.86868">
        <ele>731</ele>
        <time>2013-08-09T11:42:16Z</time>
      </trkpt>
      <trkpt lat="45.81918" lon="1.86868">
        <ele>731</ele>
        <time>2013-08-09T11:42:26Z</time>
      </trkpt>
      <trkpt lat="45.8193" lon="1.86875">
        <ele>730</ele>
        <time>2013-08-09T11:42:39Z</time>
      </trkpt>
      <trkpt lat="45.8196" lon="1.8688">
        <ele>735</ele>
        <time>2013-08-09T11:43:03Z</time>
      </trkpt>
      <trkpt lat="45.81975" lon="1.86875">
        <ele>736</ele>
        <time>2013-08-09T11:43:11Z</time>
      </trkpt>
      <trkpt lat="45.8199" lon="1.8687">
        <ele>737</ele>
        <time>2013-08-09T11:43:21Z</time>
      </trkpt>
      <trkpt lat="45.81998" lon="1.8685">
        <ele>735</ele>
        <time>2013-08-09T11:43:32Z</time>
      </trkpt>
      <trkpt lat="45.82005" lon="1.8683">
        <ele>730</ele>
        <time>2013-08-09T11:43:44Z</time>
      </trkpt>
      <trkpt lat="45.8201" lon="1.8681">
        <ele>726</ele>
        <time>2013-08-09T11:43:53Z</time>
      </trkpt>
      <trkpt lat="45.82018" lon="1.86793">
        <ele>725</ele>
        <time>2013-08-09T11:44:06Z</time>
      </trkpt>
      <trkpt lat="45.82025" lon="1.86773">
        <ele>723</ele>
        <time>2013-08-09T11:44:17Z</time>
      </trkpt>
      <trkpt lat="45.82033" lon="1.86755">
        <ele>719</ele>
        <time>2013-08-09T11:44:27Z</time>
      </trkpt>
      <trkpt lat="45.8204" lon="1.86738">
        <ele>718</ele>
        <time>2013-08-09T11:44:36Z</time>
      </trkpt>
      <trkpt lat="45.82048" lon="1.8672">
        <ele>717</ele>
        <time>2013-08-09T11:44:46Z</time>
      </trkpt>
      <trkpt lat="45.82055" lon="1.86703">
        <ele>716</ele>
        <time>2013-08-09T11:44:54Z</time>
      </trkpt>
      <trkpt lat="45.82055" lon="1.86683">
        <ele>718</ele>
        <time>2013-08-09T11:45:02Z</time>
      </trkpt>
      <trkpt lat="45.8206" lon="1.86663">
        <ele>719</ele>
        <time>2013-08-09T11:45:15Z</time>
      </trkpt>
      <trkpt lat="45.8207" lon="1.86648">
        <ele>716</ele>
        <time>2013-08-09T11:45:26Z</time>
      </trkpt>
      <trkpt lat="45.82073" lon="1.86628">
        <ele>715</ele>
        <time>2013-08-09T11:45:36Z</time>
      </trkpt>
      <trkpt lat="45.82075" lon="1.86608">
        <ele>713</ele>
        <time>2013-08-09T11:45:46Z</time>
      </trkpt>
      <trkpt lat="45.82075" lon="1.86588">
        <ele>713</ele>
        <time>2013-08-09T11:45:55Z</time>
      </trkpt>
      <trkpt lat="45.82078" lon="1.86568">
        <ele>710</ele>
        <time>2013-08-09T11:46:07Z</time>
      </trkpt>
      <trkpt lat="45.82083" lon="1.86548">
        <ele>710</ele>
        <time>2013-08-09T11:46:18Z</time>
      </trkpt>
      <trkpt lat="45.82085" lon="1.8651">
        <ele>712</ele>
        <time>2013-08-09T11:46:42Z</time>
      </trkpt>
      <trkpt lat="45.82088" lon="1.8649">
        <ele>711</ele>
        <time>2013-08-09T11:46:52Z</time>
      </trkpt>
      <trkpt lat="45.82098" lon="1.86453">
        <ele>714</ele>
        <time>2013-08-09T11:47:14Z</time>
      </trkpt>
      <trkpt lat="45.82108" lon="1.8643">
        <ele>718</ele>
        <time>2013-08-09T11:47:31Z</time>
      </trkpt>
      <trkpt lat="45.82113" lon="1.8641">
        <ele>719</ele>
        <time>2013-08-09T11:47:38Z</time>
      </trkpt>
      <trkpt lat="45.82118" lon="1.8639">
        <ele>719</ele>
        <time>2013-08-09T11:47:48Z</time>
      </trkpt>
      <trkpt lat="45.82128" lon="1.86375">
        <ele>719</ele>
        <time>2013-08-09T11:47:55Z</time>
      </trkpt>
      <trkpt lat="45.82135" lon="1.86358">
        <ele>718</ele>
        <time>2013-08-09T11:48:08Z</time>
      </trkpt>
      <trkpt lat="45.82138" lon="1.86338">
        <ele>719</ele>
        <time>2013-08-09T11:48:21Z</time>
      </trkpt>
      <trkpt lat="45.82148" lon="1.86323">
        <ele>722</ele>
        <time>2013-08-09T11:48:34Z</time>
      </trkpt>
      <trkpt lat="45.8215" lon="1.86303">
        <ele>724</ele>
        <time>2013-08-09T11:48:43Z</time>
      </trkpt>
      <trkpt lat="45.82155" lon="1.86283">
        <ele>723</ele>
        <time>2013-08-09T11:48:50Z</time>
      </trkpt>
      <trkpt lat="45.82163" lon="1.86263">
        <ele>724</ele>
        <time>2013-08-09T11:48:58Z</time>
      </trkpt>
      <trkpt lat="45.82163" lon="1.86243">
        <ele>722</ele>
        <time>2013-08-09T11:49:07Z</time>
      </trkpt>
      <trkpt lat="45.8217" lon="1.86225">
        <ele>722</ele>
        <time>2013-08-09T11:49:19Z</time>
      </trkpt>
      <trkpt lat="45.82168" lon="1.86205">
        <ele>720</ele>
        <time>2013-08-09T11:49:31Z</time>
      </trkpt>
      <trkpt lat="45.82168" lon="1.86185">
        <ele>716</ele>
        <time>2013-08-09T11:49:40Z</time>
      </trkpt>
      <trkpt lat="45.8217" lon="1.86165">
        <ele>714</ele>
        <time>2013-08-09T11:49:48Z</time>
      </trkpt>
      <trkpt lat="45.8217" lon="1.86145">
        <ele>716</ele>
        <time>2013-08-09T11:49:57Z</time>
      </trkpt>
      <trkpt lat="45.8217" lon="1.86125">
        <ele>714</ele>
        <time>2013-08-09T11:50:05Z</time>
      </trkpt>
      <trkpt lat="45.82168" lon="1.86105">
        <ele>715</ele>
        <time>2013-08-09T11:50:12Z</time>
      </trkpt>
      <trkpt lat="45.82158" lon="1.8609">
        <ele>712</ele>
        <time>2013-08-09T11:50:24Z</time>
      </trkpt>
      <trkpt lat="45.82153" lon="1.8607">
        <ele>710</ele>
        <time>2013-08-09T11:50:31Z</time>
      </trkpt>
      <trkpt lat="45.82155" lon="1.8605">
        <ele>711</ele>
        <time>2013-08-09T11:50:39Z</time>
      </trkpt>
      <trkpt lat="45.82173" lon="1.86035">
        <ele>707</ele>
        <time>2013-08-09T11:50:56Z</time>
      </trkpt>
      <trkpt lat="45.82185" lon="1.86028">
        <ele>703</ele>
        <time>2013-08-09T11:51:04Z</time>
      </trkpt>
      <trkpt lat="45.82193" lon="1.8601">
        <ele>698</ele>
        <time>2013-08-09T11:51:16Z</time>
      </trkpt>
      <trkpt lat="45.82205" lon="1.85978">
        <ele>699</ele>
        <time>2013-08-09T11:51:33Z</time>
      </trkpt>
      <trkpt lat="45.82218" lon="1.85953">
        <ele>696</ele>
        <time>2013-08-09T11:51:46Z</time>
      </trkpt>
      <trkpt lat="45.82223" lon="1.85933">
        <ele>697</ele>
        <time>2013-08-09T11:51:54Z</time>
      </trkpt>
      <trkpt lat="45.82233" lon="1.85915">
        <ele>694</ele>
        <time>2013-08-09T11:52:04Z</time>
      </trkpt>
      <trkpt lat="45.8224" lon="1.85885">
        <ele>693</ele>
        <time>2013-08-09T11:52:16Z</time>
      </trkpt>
      <trkpt lat="45.82238" lon="1.85865">
        <ele>693</ele>
        <time>2013-08-09T11:52:22Z</time>
      </trkpt>
      <trkpt lat="45.82238" lon="1.85845">
        <ele>689</ele>
        <time>2013-08-09T11:52:31Z</time>
      </trkpt>
      <trkpt lat="45.82235" lon="1.85825">
        <ele>682</ele>
        <time>2013-08-09T11:52:41Z</time>
      </trkpt>
      <trkpt lat="45.82235" lon="1.85805">
        <ele>676</ele>
        <time>2013-08-09T11:52:49Z</time>
      </trkpt>
      <trkpt lat="45.82233" lon="1.85785">
        <ele>673</ele>
        <time>2013-08-09T11:52:58Z</time>
      </trkpt>
      <trkpt lat="45.82228" lon="1.85765">
        <ele>673</ele>
        <time>2013-08-09T11:53:06Z</time>
      </trkpt>
      <trkpt lat="45.82215" lon="1.85753">
        <ele>670</ele>
        <time>2013-08-09T11:53:18Z</time>
      </trkpt>
      <trkpt lat="45.82203" lon="1.85738">
        <ele>665</ele>
        <time>2013-08-09T11:53:31Z</time>
      </trkpt>
      <trkpt lat="45.8219" lon="1.85725">
        <ele>663</ele>
        <time>2013-08-09T11:53:42Z</time>
      </trkpt>
      <trkpt lat="45.82178" lon="1.85715">
        <ele>659</ele>
        <time>2013-08-09T11:54:04Z</time>
      </trkpt>
      <trkpt lat="45.82168" lon="1.8573">
        <ele>658</ele>
        <time>2013-08-09T11:54:14Z</time>
      </trkpt>
      <trkpt lat="45.82163" lon="1.8575">
        <ele>656</ele>
        <time>2013-08-09T11:54:25Z</time>
      </trkpt>
      <trkpt lat="45.82155" lon="1.85768">
        <ele>655</ele>
        <time>2013-08-09T11:54:35Z</time>
      </trkpt>
      <trkpt lat="45.82143" lon="1.85775">
        <ele>654</ele>
        <time>2013-08-09T11:54:43Z</time>
      </trkpt>
      <trkpt lat="45.82133" lon="1.8579">
        <ele>655</ele>
        <time>2013-08-09T11:54:56Z</time>
      </trkpt>
      <trkpt lat="45.82128" lon="1.8581">
        <ele>655</ele>
        <time>2013-08-09T11:55:06Z</time>
      </trkpt>
      <trkpt lat="45.82115" lon="1.8582">
        <ele>653</ele>
        <time>2013-08-09T11:55:17Z</time>
      </trkpt>
      <trkpt lat="45.82103" lon="1.8583">
        <ele>652</ele>
        <time>2013-08-09T11:55:27Z</time>
      </trkpt>
      <trkpt lat="45.8209" lon="1.85843">
        <ele>651</ele>
        <time>2013-08-09T11:55:40Z</time>
      </trkpt>
      <trkpt lat="45.82078" lon="1.85855">
        <ele>650</ele>
        <time>2013-08-09T11:55:53Z</time>
      </trkpt>
      <trkpt lat="45.82065" lon="1.85865">
        <ele>650</ele>
        <time>2013-08-09T11:56:00Z</time>
      </trkpt>
      <trkpt lat="45.82043" lon="1.85893">
        <ele>649</ele>
        <time>2013-08-09T11:56:22Z</time>
      </trkpt>
      <trkpt lat="45.82028" lon="1.85893">
        <ele>647</ele>
        <time>2013-08-09T11:56:33Z</time>
      </trkpt>
      <trkpt lat="45.82015" lon="1.85908">
        <ele>649</ele>
        <time>2013-08-09T11:56:40Z</time>
      </trkpt>
      <trkpt lat="45.82003" lon="1.85918">
        <ele>651</ele>
        <time>2013-08-09T11:56:51Z</time>
      </trkpt>
      <trkpt lat="45.8199" lon="1.85925">
        <ele>653</ele>
        <time>2013-08-09T11:57:00Z</time>
      </trkpt>
      <trkpt lat="45.81978" lon="1.85935">
        <ele>653</ele>
        <time>2013-08-09T11:57:08Z</time>
      </trkpt>
      <trkpt lat="45.81965" lon="1.85948">
        <ele>653</ele>
        <time>2013-08-09T11:57:18Z</time>
      </trkpt>
      <trkpt lat="45.81955" lon="1.85965">
        <ele>655</ele>
        <time>2013-08-09T11:57:30Z</time>
      </trkpt>
      <trkpt lat="45.8195" lon="1.85985">
        <ele>656</ele>
        <time>2013-08-09T11:57:40Z</time>
      </trkpt>
      <trkpt lat="45.81945" lon="1.86008">
        <ele>655</ele>
        <time>2013-08-09T11:57:49Z</time>
      </trkpt>
      <trkpt lat="45.81933" lon="1.86015">
        <ele>655</ele>
        <time>2013-08-09T11:57:56Z</time>
      </trkpt>
      <trkpt lat="45.81918" lon="1.86023">
        <ele>662</ele>
        <time>2013-08-09T11:58:08Z</time>
      </trkpt>
      <trkpt lat="45.81905" lon="1.86033">
        <ele>663</ele>
        <time>2013-08-09T11:58:15Z</time>
      </trkpt>
      <trkpt lat="45.81893" lon="1.8604">
        <ele>665</ele>
        <time>2013-08-09T11:58:23Z</time>
      </trkpt>
      <trkpt lat="45.8188" lon="1.86048">
        <ele>667</ele>
        <time>2013-08-09T11:58:30Z</time>
      </trkpt>
      <trkpt lat="45.81868" lon="1.86055">
        <ele>669</ele>
        <time>2013-08-09T11:58:40Z</time>
      </trkpt>
      <trkpt lat="45.81853" lon="1.8606">
        <ele>666</ele>
        <time>2013-08-09T11:58:49Z</time>
      </trkpt>
      <trkpt lat="45.8184" lon="1.86068">
        <ele>664</ele>
        <time>2013-08-09T11:58:55Z</time>
      </trkpt>
      <trkpt lat="45.81828" lon="1.86075">
        <ele>662</ele>
        <time>2013-08-09T11:59:04Z</time>
      </trkpt>
      <trkpt lat="45.81813" lon="1.8607">
        <ele>663</ele>
        <time>2013-08-09T11:59:11Z</time>
      </trkpt>
      <trkpt lat="45.818" lon="1.86063">
        <ele>659</ele>
        <time>2013-08-09T11:59:19Z</time>
      </trkpt>
      <trkpt lat="45.81785" lon="1.86058">
        <ele>659</ele>
        <time>2013-08-09T11:59:29Z</time>
      </trkpt>
      <trkpt lat="45.81773" lon="1.8605">
        <ele>657</ele>
        <time>2013-08-09T11:59:36Z</time>
      </trkpt>
      <trkpt lat="45.8176" lon="1.86038">
        <ele>657</ele>
        <time>2013-08-09T11:59:45Z</time>
      </trkpt>
      <trkpt lat="45.81748" lon="1.86028">
        <ele>657</ele>
        <time>2013-08-09T11:59:53Z</time>
      </trkpt>
      <trkpt lat="45.81735" lon="1.86015">
        <ele>654</ele>
        <time>2013-08-09T12:00:03Z</time>
      </trkpt>
      <trkpt lat="45.81725" lon="1.86">
        <ele>654</ele>
        <time>2013-08-09T12:00:13Z</time>
      </trkpt>
      <trkpt lat="45.81715" lon="1.85985">
        <ele>654</ele>
        <time>2013-08-09T12:00:21Z</time>
      </trkpt>
      <trkpt lat="45.81713" lon="1.85965">
        <ele>654</ele>
        <time>2013-08-09T12:00:30Z</time>
      </trkpt>
      <trkpt lat="45.81708" lon="1.85943">
        <ele>653</ele>
        <time>2013-08-09T12:00:41Z</time>
      </trkpt>
      <trkpt lat="45.81703" lon="1.8592">
        <ele>653</ele>
        <time>2013-08-09T12:00:53Z</time>
      </trkpt>
      <trkpt lat="45.81698" lon="1.859">
        <ele>652</ele>
        <time>2013-08-09T12:01:03Z</time>
      </trkpt>
      <trkpt lat="45.81695" lon="1.8588">
        <ele>653</ele>
        <time>2013-08-09T12:01:12Z</time>
      </trkpt>
      <trkpt lat="45.8169" lon="1.8586">
        <ele>654</ele>
        <time>2013-08-09T12:01:21Z</time>
      </trkpt>
      <trkpt lat="45.81685" lon="1.8584">
        <ele>656</ele>
        <time>2013-08-09T12:01:31Z</time>
      </trkpt>
      <trkpt lat="45.8168" lon="1.8582">
        <ele>657</ele>
        <time>2013-08-09T12:01:41Z</time>
      </trkpt>
      <trkpt lat="45.81675" lon="1.858">
        <ele>658</ele>
        <time>2013-08-09T12:01:50Z</time>
      </trkpt>
      <trkpt lat="45.81663" lon="1.85793">
        <ele>656</ele>
        <time>2013-08-09T12:02:03Z</time>
      </trkpt>
      <trkpt lat="45.81648" lon="1.85785">
        <ele>657</ele>
        <time>2013-08-09T12:02:21Z</time>
      </trkpt>
      <trkpt lat="45.81635" lon="1.85798">
        <ele>656</ele>
        <time>2013-08-09T12:02:32Z</time>
      </trkpt>
      <trkpt lat="45.81623" lon="1.85805">
        <ele>654</ele>
        <time>2013-08-09T12:02:45Z</time>
      </trkpt>
      <trkpt lat="45.81608" lon="1.85803">
        <ele>654</ele>
        <time>2013-08-09T12:03:02Z</time>
      </trkpt>
      <trkpt lat="45.81595" lon="1.85795">
        <ele>655</ele>
        <time>2013-08-09T12:03:10Z</time>
      </trkpt>
      <trkpt lat="45.81578" lon="1.85788">
        <ele>656</ele>
        <time>2013-08-09T12:03:28Z</time>
      </trkpt>
      <trkpt lat="45.81563" lon="1.85783">
        <ele>655</ele>
        <time>2013-08-09T12:03:37Z</time>
      </trkpt>
      <trkpt lat="45.8155" lon="1.85775">
        <ele>654</ele>
        <time>2013-08-09T12:03:44Z</time>
      </trkpt>
      <trkpt lat="45.8154" lon="1.85758">
        <ele>652</ele>
        <time>2013-08-09T12:04:01Z</time>
      </trkpt>
      <trkpt lat="45.81528" lon="1.85748">
        <ele>652</ele>
        <time>2013-08-09T12:04:09Z</time>
      </trkpt>
      <trkpt lat="45.8152" lon="1.8573">
        <ele>651</ele>
        <time>2013-08-09T12:04:18Z</time>
      </trkpt>
      <trkpt lat="45.81518" lon="1.8571">
        <ele>651</ele>
        <time>2013-08-09T12:04:25Z</time>
      </trkpt>
      <trkpt lat="45.8151" lon="1.85693">
        <ele>652</ele>
        <time>2013-08-09T12:04:34Z</time>
      </trkpt>
      <trkpt lat="45.815" lon="1.85675">
        <ele>653</ele>
        <time>2013-08-09T12:04:42Z</time>
      </trkpt>
      <trkpt lat="45.81503" lon="1.85655">
        <ele>655</ele>
        <time>2013-08-09T12:04:53Z</time>
      </trkpt>
      <trkpt lat="45.8151" lon="1.85638">
        <ele>658</ele>
        <time>2013-08-09T12:05:03Z</time>
      </trkpt>
      <trkpt lat="45.8152" lon="1.85623">
        <ele>658</ele>
        <time>2013-08-09T12:05:15Z</time>
      </trkpt>
      <trkpt lat="45.8153" lon="1.85608">
        <ele>659</ele>
        <time>2013-08-09T12:05:26Z</time>
      </trkpt>
      <trkpt lat="45.81543" lon="1.85595">
        <ele>660</ele>
        <time>2013-08-09T12:05:39Z</time>
      </trkpt>
      <trkpt lat="45.8155" lon="1.85578">
        <ele>661</ele>
        <time>2013-08-09T12:05:49Z</time>
      </trkpt>
      <trkpt lat="45.8156" lon="1.85563">
        <ele>660</ele>
        <time>2013-08-09T12:05:58Z</time>
      </trkpt>
      <trkpt lat="45.81568" lon="1.85545">
        <ele>660</ele>
        <time>2013-08-09T12:06:09Z</time>
      </trkpt>
      <trkpt lat="45.81575" lon="1.85528">
        <ele>661</ele>
        <time>2013-08-09T12:06:18Z</time>
      </trkpt>
      <trkpt lat="45.81573" lon="1.85495">
        <ele>663</ele>
        <time>2013-08-09T12:06:31Z</time>
      </trkpt>
      <trkpt lat="45.81563" lon="1.8548">
        <ele>658</ele>
        <time>2013-08-09T12:06:41Z</time>
      </trkpt>
      <trkpt lat="45.81555" lon="1.85463">
        <ele>655</ele>
        <time>2013-08-09T12:06:50Z</time>
      </trkpt>
      <trkpt lat="45.81543" lon="1.8544">
        <ele>651</ele>
        <time>2013-08-09T12:07:03Z</time>
      </trkpt>
      <trkpt lat="45.81535" lon="1.85423">
        <ele>653</ele>
        <time>2013-08-09T12:07:13Z</time>
      </trkpt>
      <trkpt lat="45.81525" lon="1.85408">
        <ele>653</ele>
        <time>2013-08-09T12:07:23Z</time>
      </trkpt>
      <trkpt lat="45.81515" lon="1.85383">
        <ele>654</ele>
        <time>2013-08-09T12:07:42Z</time>
      </trkpt>
      <trkpt lat="45.81505" lon="1.85365">
        <ele>651</ele>
        <time>2013-08-09T12:07:51Z</time>
      </trkpt>
      <trkpt lat="45.81498" lon="1.85348">
        <ele>651</ele>
        <time>2013-08-09T12:08:01Z</time>
      </trkpt>
      <trkpt lat="45.81488" lon="1.85333">
        <ele>652</ele>
        <time>2013-08-09T12:08:11Z</time>
      </trkpt>
      <trkpt lat="45.81478" lon="1.85315">
        <ele>652</ele>
        <time>2013-08-09T12:08:21Z</time>
      </trkpt>
      <trkpt lat="45.8147" lon="1.85298">
        <ele>651</ele>
        <time>2013-08-09T12:08:31Z</time>
      </trkpt>
      <trkpt lat="45.8146" lon="1.85283">
        <ele>649</ele>
        <time>2013-08-09T12:08:40Z</time>
      </trkpt>
      <trkpt lat="45.81448" lon="1.8526">
        <ele>647</ele>
        <time>2013-08-09T12:08:52Z</time>
      </trkpt>
      <trkpt lat="45.81438" lon="1.85243">
        <ele>648</ele>
        <time>2013-08-09T12:09:02Z</time>
      </trkpt>
      <trkpt lat="45.8143" lon="1.85223">
        <ele>648</ele>
        <time>2013-08-09T12:09:14Z</time>
      </trkpt>
      <trkpt lat="45.8142" lon="1.85208">
        <ele>647</ele>
        <time>2013-08-09T12:09:23Z</time>
      </trkpt>
      <trkpt lat="45.8141" lon="1.8519">
        <ele>646</ele>
        <time>2013-08-09T12:09:33Z</time>
      </trkpt>
      <trkpt lat="45.814" lon="1.85175">
        <ele>647</ele>
        <time>2013-08-09T12:09:42Z</time>
      </trkpt>
      <trkpt lat="45.81393" lon="1.85158">
        <ele>645</ele>
        <time>2013-08-09T12:09:51Z</time>
      </trkpt>
      <trkpt lat="45.81383" lon="1.85143">
        <ele>645</ele>
        <time>2013-08-09T12:09:59Z</time>
      </trkpt>
      <trkpt lat="45.81375" lon="1.85123">
        <ele>643</ele>
        <time>2013-08-09T12:10:12Z</time>
      </trkpt>
      <trkpt lat="45.81365" lon="1.85105">
        <ele>644</ele>
        <time>2013-08-09T12:10:23Z</time>
      </trkpt>
      <trkpt lat="45.81358" lon="1.85088">
        <ele>643</ele>
        <time>2013-08-09T12:10:33Z</time>
      </trkpt>
      <trkpt lat="45.81353" lon="1.85068">
        <ele>642</ele>
        <time>2013-08-09T12:10:43Z</time>
      </trkpt>
      <trkpt lat="45.81348" lon="1.85048">
        <ele>643</ele>
        <time>2013-08-09T12:10:54Z</time>
      </trkpt>
      <trkpt lat="45.81348" lon="1.85028">
        <ele>644</ele>
        <time>2013-08-09T12:11:04Z</time>
      </trkpt>
      <trkpt lat="45.81343" lon="1.85008">
        <ele>646</ele>
        <time>2013-08-09T12:11:14Z</time>
      </trkpt>
      <trkpt lat="45.81338" lon="1.84988">
        <ele>648</ele>
        <time>2013-08-09T12:11:24Z</time>
      </trkpt>
      <trkpt lat="45.81333" lon="1.84968">
        <ele>648</ele>
        <time>2013-08-09T12:11:34Z</time>
      </trkpt>
      <trkpt lat="45.81325" lon="1.8495">
        <ele>649</ele>
        <time>2013-08-09T12:11:44Z</time>
      </trkpt>
      <trkpt lat="45.81313" lon="1.84935">
        <ele>650</ele>
        <time>2013-08-09T12:11:54Z</time>
      </trkpt>
      <trkpt lat="45.813" lon="1.84923">
        <ele>654</ele>
        <time>2013-08-09T12:12:03Z</time>
      </trkpt>
      <trkpt lat="45.81288" lon="1.84913">
        <ele>655</ele>
        <time>2013-08-09T12:12:12Z</time>
      </trkpt>
      <trkpt lat="45.81273" lon="1.8491">
        <ele>657</ele>
        <time>2013-08-09T12:12:21Z</time>
      </trkpt>
      <trkpt lat="45.81258" lon="1.8491">
        <ele>660</ele>
        <time>2013-08-09T12:12:31Z</time>
      </trkpt>
      <trkpt lat="45.81243" lon="1.84913">
        <ele>664</ele>
        <time>2013-08-09T12:12:42Z</time>
      </trkpt>
      <trkpt lat="45.8123" lon="1.84923">
        <ele>668</ele>
        <time>2013-08-09T12:12:51Z</time>
      </trkpt>
      <trkpt lat="45.8122" lon="1.84908">
        <ele>674</ele>
        <time>2013-08-09T12:13:11Z</time>
      </trkpt>
      <trkpt lat="45.81213" lon="1.8489">
        <ele>677</ele>
        <time>2013-08-09T12:13:21Z</time>
      </trkpt>
      <trkpt lat="45.812" lon="1.84875">
        <ele>680</ele>
        <time>2013-08-09T12:13:34Z</time>
      </trkpt>
      <trkpt lat="45.8119" lon="1.8486">
        <ele>682</ele>
        <time>2013-08-09T12:13:47Z</time>
      </trkpt>
      <trkpt lat="45.8118" lon="1.84845">
        <ele>688</ele>
        <time>2013-08-09T12:13:57Z</time>
      </trkpt>
      <trkpt lat="45.81168" lon="1.84823">
        <ele>692</ele>
        <time>2013-08-09T12:14:14Z</time>
      </trkpt>
      <trkpt lat="45.81155" lon="1.84813">
        <ele>697</ele>
        <time>2013-08-09T12:14:26Z</time>
      </trkpt>
      <trkpt lat="45.8114" lon="1.84803">
        <ele>702</ele>
        <time>2013-08-09T12:14:44Z</time>
      </trkpt>
      <trkpt lat="45.81128" lon="1.84795">
        <ele>703</ele>
        <time>2013-08-09T12:14:56Z</time>
      </trkpt>
      <trkpt lat="45.81115" lon="1.84803">
        <ele>701</ele>
        <time>2013-08-09T12:15:06Z</time>
      </trkpt>
      <trkpt lat="45.8111" lon="1.84823">
        <ele>701</ele>
        <time>2013-08-09T12:15:16Z</time>
      </trkpt>
      <trkpt lat="45.81098" lon="1.84838">
        <ele>701</ele>
        <time>2013-08-09T12:15:28Z</time>
      </trkpt>
      <trkpt lat="45.8109" lon="1.84855">
        <ele>704</ele>
        <time>2013-08-09T12:15:39Z</time>
      </trkpt>
      <trkpt lat="45.81078" lon="1.84865">
        <ele>702</ele>
        <time>2013-08-09T12:15:50Z</time>
      </trkpt>
      <trkpt lat="45.81065" lon="1.84875">
        <ele>702</ele>
        <time>2013-08-09T12:16:03Z</time>
      </trkpt>
      <trkpt lat="45.81053" lon="1.84883">
        <ele>700</ele>
        <time>2013-08-09T12:16:11Z</time>
      </trkpt>
      <trkpt lat="45.8104" lon="1.84873">
        <ele>702</ele>
        <time>2013-08-09T12:16:21Z</time>
      </trkpt>
      <trkpt lat="45.8102" lon="1.84868">
        <ele>706</ele>
        <time>2013-08-09T12:16:50Z</time>
      </trkpt>
      <trkpt lat="45.81003" lon="1.84863">
        <ele>706</ele>
        <time>2013-08-09T12:17:03Z</time>
      </trkpt>
      <trkpt lat="45.80988" lon="1.8486">
        <ele>706</ele>
        <time>2013-08-09T12:17:13Z</time>
      </trkpt>
      <trkpt lat="45.80975" lon="1.84853">
        <ele>705</ele>
        <time>2013-08-09T12:17:22Z</time>
      </trkpt>
      <trkpt lat="45.8096" lon="1.84848">
        <ele>706</ele>
        <time>2013-08-09T12:17:33Z</time>
      </trkpt>
      <trkpt lat="45.80945" lon="1.84845">
        <ele>706</ele>
        <time>2013-08-09T12:17:42Z</time>
      </trkpt>
      <trkpt lat="45.80935" lon="1.8483">
        <ele>705</ele>
        <time>2013-08-09T12:17:52Z</time>
      </trkpt>
      <trkpt lat="45.80923" lon="1.84823">
        <ele>704</ele>
        <time>2013-08-09T12:18:00Z</time>
      </trkpt>
      <trkpt lat="45.80908" lon="1.8482">
        <ele>703</ele>
        <time>2013-08-09T12:18:09Z</time>
      </trkpt>
      <trkpt lat="45.80893" lon="1.84823">
        <ele>704</ele>
        <time>2013-08-09T12:18:18Z</time>
      </trkpt>
      <trkpt lat="45.8088" lon="1.84815">
        <ele>703</ele>
        <time>2013-08-09T12:18:27Z</time>
      </trkpt>
      <trkpt lat="45.80868" lon="1.84803">
        <ele>703</ele>
        <time>2013-08-09T12:18:36Z</time>
      </trkpt>
      <trkpt lat="45.80855" lon="1.84795">
        <ele>702</ele>
        <time>2013-08-09T12:18:43Z</time>
      </trkpt>
      <trkpt lat="45.8084" lon="1.84788">
        <ele>699</ele>
        <time>2013-08-09T12:18:55Z</time>
      </trkpt>
      <trkpt lat="45.80825" lon="1.8478">
        <ele>699</ele>
        <time>2013-08-09T12:19:07Z</time>
      </trkpt>
      <trkpt lat="45.8081" lon="1.84778">
        <ele>698</ele>
        <time>2013-08-09T12:19:15Z</time>
      </trkpt>
      <trkpt lat="45.80798" lon="1.84785">
        <ele>699</ele>
        <time>2013-08-09T12:19:23Z</time>
      </trkpt>
      <trkpt lat="45.80783" lon="1.84785">
        <ele>696</ele>
        <time>2013-08-09T12:19:36Z</time>
      </trkpt>
      <trkpt lat="45.80768" lon="1.84783">
        <ele>692</ele>
        <time>2013-08-09T12:19:46Z</time>
      </trkpt>
      <trkpt lat="45.80753" lon="1.84778">
        <ele>692</ele>
        <time>2013-08-09T12:19:54Z</time>
      </trkpt>
      <trkpt lat="45.80743" lon="1.8476">
        <ele>692</ele>
        <time>2013-08-09T12:20:06Z</time>
      </trkpt>
      <trkpt lat="45.80738" lon="1.8474">
        <ele>689</ele>
        <time>2013-08-09T12:20:13Z</time>
      </trkpt>
      <trkpt lat="45.8073" lon="1.84723">
        <ele>688</ele>
        <time>2013-08-09T12:20:22Z</time>
      </trkpt>
      <trkpt lat="45.80723" lon="1.84703">
        <ele>686</ele>
        <time>2013-08-09T12:20:29Z</time>
      </trkpt>
      <trkpt lat="45.8072" lon="1.84673">
        <ele>682</ele>
        <time>2013-08-09T12:20:46Z</time>
      </trkpt>
      <trkpt lat="45.80718" lon="1.84653">
        <ele>679</ele>
        <time>2013-08-09T12:20:57Z</time>
      </trkpt>
      <trkpt lat="45.80713" lon="1.84628">
        <ele>679</ele>
        <time>2013-08-09T12:21:08Z</time>
      </trkpt>
      <trkpt lat="45.80713" lon="1.84608">
        <ele>682</ele>
        <time>2013-08-09T12:21:16Z</time>
      </trkpt>
      <trkpt lat="45.80715" lon="1.84588">
        <ele>686</ele>
        <time>2013-08-09T12:21:25Z</time>
      </trkpt>
      <trkpt lat="45.80715" lon="1.84568">
        <ele>686</ele>
        <time>2013-08-09T12:21:34Z</time>
      </trkpt>
      <trkpt lat="45.80715" lon="1.84548">
        <ele>682</ele>
        <time>2013-08-09T12:21:41Z</time>
      </trkpt>
      <trkpt lat="45.80715" lon="1.84523">
        <ele>678</ele>
        <time>2013-08-09T12:21:50Z</time>
      </trkpt>
      <trkpt lat="45.80715" lon="1.84503">
        <ele>674</ele>
        <time>2013-08-09T12:21:58Z</time>
      </trkpt>
      <trkpt lat="45.80715" lon="1.84483">
        <ele>671</ele>
        <time>2013-08-09T12:22:05Z</time>
      </trkpt>
      <trkpt lat="45.80708" lon="1.84463">
        <ele>673</ele>
        <time>2013-08-09T12:22:15Z</time>
      </trkpt>
      <trkpt lat="45.80693" lon="1.8447">
        <ele>666</ele>
        <time>2013-08-09T12:22:32Z</time>
      </trkpt>
      <trkpt lat="45.80685" lon="1.84453">
        <ele>664</ele>
        <time>2013-08-09T12:22:39Z</time>
      </trkpt>
      <trkpt lat="45.80675" lon="1.84438">
        <ele>663</ele>
        <time>2013-08-09T12:22:47Z</time>
      </trkpt>
      <trkpt lat="45.80663" lon="1.84428">
        <ele>661</ele>
        <time>2013-08-09T12:22:56Z</time>
      </trkpt>
      <trkpt lat="45.80648" lon="1.84423">
        <ele>662</ele>
        <time>2013-08-09T12:23:05Z</time>
      </trkpt>
      <trkpt lat="45.80635" lon="1.84415">
        <ele>660</ele>
        <time>2013-08-09T12:23:14Z</time>
      </trkpt>
      <trkpt lat="45.8061" lon="1.84398">
        <ele>659</ele>
        <time>2013-08-09T12:23:32Z</time>
      </trkpt>
      <trkpt lat="45.80598" lon="1.84388">
        <ele>654</ele>
        <time>2013-08-09T12:23:40Z</time>
      </trkpt>
      <trkpt lat="45.80588" lon="1.84373">
        <ele>655</ele>
        <time>2013-08-09T12:23:50Z</time>
      </trkpt>
      <trkpt lat="45.80578" lon="1.84358">
        <ele>655</ele>
        <time>2013-08-09T12:23:59Z</time>
      </trkpt>
      <trkpt lat="45.80565" lon="1.84348">
        <ele>656</ele>
        <time>2013-08-09T12:24:10Z</time>
      </trkpt>
      <trkpt lat="45.8055" lon="1.84338">
        <ele>655</ele>
        <time>2013-08-09T12:24:20Z</time>
      </trkpt>
      <trkpt lat="45.8054" lon="1.84323">
        <ele>655</ele>
        <time>2013-08-09T12:24:30Z</time>
      </trkpt>
      <trkpt lat="45.8054" lon="1.84343">
        <ele>655</ele>
        <time>2013-08-09T12:28:05Z</time>
      </trkpt>
      <trkpt lat="45.80538" lon="1.84363">
        <ele>656</ele>
        <time>2013-08-09T12:28:16Z</time>
      </trkpt>
      <trkpt lat="45.80533" lon="1.84383">
        <ele>656</ele>
        <time>2013-08-09T12:28:28Z</time>
      </trkpt>
      <trkpt lat="45.80528" lon="1.84403">
        <ele>657</ele>
        <time>2013-08-09T12:28:39Z</time>
      </trkpt>
      <trkpt lat="45.80523" lon="1.84423">
        <ele>657</ele>
        <time>2013-08-09T12:28:50Z</time>
      </trkpt>
      <trkpt lat="45.80518" lon="1.84443">
        <ele>657</ele>
        <time>2013-08-09T12:29:03Z</time>
      </trkpt>
      <trkpt lat="45.80508" lon="1.84468">
        <ele>656</ele>
        <time>2013-08-09T12:29:21Z</time>
      </trkpt>
      <trkpt lat="45.80505" lon="1.84448">
        <ele>654</ele>
        <time>2013-08-09T12:31:11Z</time>
      </trkpt>
      <trkpt lat="45.8051" lon="1.84428">
        <ele>653</ele>
        <time>2013-08-09T12:31:20Z</time>
      </trkpt>
      <trkpt lat="45.80513" lon="1.84408">
        <ele>651</ele>
        <time>2013-08-09T12:31:32Z</time>
      </trkpt>
      <trkpt lat="45.80515" lon="1.84388">
        <ele>650</ele>
        <time>2013-08-09T12:31:41Z</time>
      </trkpt>
      <trkpt lat="45.8052" lon="1.84368">
        <ele>650</ele>
        <time>2013-08-09T12:31:54Z</time>
      </trkpt>
      <trkpt lat="45.80528" lon="1.8435">
        <ele>650</ele>
        <time>2013-08-09T12:32:05Z</time>
      </trkpt>
      <trkpt lat="45.80533" lon="1.8433">
        <ele>652</ele>
        <time>2013-08-09T12:32:15Z</time>
      </trkpt>
      <trkpt lat="45.80535" lon="1.8431">
        <ele>656</ele>
        <time>2013-08-09T12:32:39Z</time>
      </trkpt>
      <trkpt lat="45.80523" lon="1.84298">
        <ele>661</ele>
        <time>2013-08-09T12:34:22Z</time>
      </trkpt>
      <trkpt lat="45.80513" lon="1.8428">
        <ele>661</ele>
        <time>2013-08-09T12:34:31Z</time>
      </trkpt>
      <trkpt lat="45.80503" lon="1.84263">
        <ele>660</ele>
        <time>2013-08-09T12:34:44Z</time>
      </trkpt>
      <trkpt lat="45.805" lon="1.84243">
        <ele>657</ele>
        <time>2013-08-09T12:35:14Z</time>
      </trkpt>
      <trkpt lat="45.80493" lon="1.84225">
        <ele>656</ele>
        <time>2013-08-09T12:35:24Z</time>
      </trkpt>
      <trkpt lat="45.80488" lon="1.84205">
        <ele>657</ele>
        <time>2013-08-09T12:35:34Z</time>
      </trkpt>
      <trkpt lat="45.80485" lon="1.84185">
        <ele>658</ele>
        <time>2013-08-09T12:35:44Z</time>
      </trkpt>
      <trkpt lat="45.80473" lon="1.84178">
        <ele>659</ele>
        <time>2013-08-09T12:35:57Z</time>
      </trkpt>
      <trkpt lat="45.80463" lon="1.84193">
        <ele>659</ele>
        <time>2013-08-09T12:36:10Z</time>
      </trkpt>
      <trkpt lat="45.80443" lon="1.84218">
        <ele>660</ele>
        <time>2013-08-09T12:36:32Z</time>
      </trkpt>
      <trkpt lat="45.80423" lon="1.84238">
        <ele>663</ele>
        <time>2013-08-09T12:36:50Z</time>
      </trkpt>
      <trkpt lat="45.80398" lon="1.84255">
        <ele>661</ele>
        <time>2013-08-09T12:37:08Z</time>
      </trkpt>
      <trkpt lat="45.80385" lon="1.84268">
        <ele>660</ele>
        <time>2013-08-09T12:37:17Z</time>
      </trkpt>
      <trkpt lat="45.80373" lon="1.84278">
        <ele>660</ele>
        <time>2013-08-09T12:37:29Z</time>
      </trkpt>
      <trkpt lat="45.80358" lon="1.84285">
        <ele>658</ele>
        <time>2013-08-09T12:37:40Z</time>
      </trkpt>
      <trkpt lat="45.80345" lon="1.84293">
        <ele>659</ele>
        <time>2013-08-09T12:37:49Z</time>
      </trkpt>
      <trkpt lat="45.80333" lon="1.84308">
        <ele>661</ele>
        <time>2013-08-09T12:38:00Z</time>
      </trkpt>
      <trkpt lat="45.8032" lon="1.8432">
        <ele>663</ele>
        <time>2013-08-09T12:38:10Z</time>
      </trkpt>
      <trkpt lat="45.8031" lon="1.84335">
        <ele>664</ele>
        <time>2013-08-09T12:38:20Z</time>
      </trkpt>
      <trkpt lat="45.80298" lon="1.84345">
        <ele>665</ele>
        <time>2013-08-09T12:38:31Z</time>
      </trkpt>
      <trkpt lat="45.80285" lon="1.84355">
        <ele>664</ele>
        <time>2013-08-09T12:38:39Z</time>
      </trkpt>
      <trkpt lat="45.80273" lon="1.84368">
        <ele>662</ele>
        <time>2013-08-09T12:38:51Z</time>
      </trkpt>
      <trkpt lat="45.8026" lon="1.84383">
        <ele>663</ele>
        <time>2013-08-09T12:39:02Z</time>
      </trkpt>
      <trkpt lat="45.80248" lon="1.84393">
        <ele>663</ele>
        <time>2013-08-09T12:39:11Z</time>
      </trkpt>
      <trkpt lat="45.80238" lon="1.84408">
        <ele>665</ele>
        <time>2013-08-09T12:39:22Z</time>
      </trkpt>
      <trkpt lat="45.8023" lon="1.84425">
        <ele>663</ele>
        <time>2013-08-09T12:39:34Z</time>
      </trkpt>
      <trkpt lat="45.80225" lon="1.84445">
        <ele>663</ele>
        <time>2013-08-09T12:39:44Z</time>
      </trkpt>
      <trkpt lat="45.8022" lon="1.84465">
        <ele>661</ele>
        <time>2013-08-09T12:39:56Z</time>
      </trkpt>
      <trkpt lat="45.80213" lon="1.84483">
        <ele>661</ele>
        <time>2013-08-09T12:40:05Z</time>
      </trkpt>
      <trkpt lat="45.802" lon="1.84495">
        <ele>658</ele>
        <time>2013-08-09T12:40:14Z</time>
      </trkpt>
      <trkpt lat="45.80188" lon="1.84505">
        <ele>657</ele>
        <time>2013-08-09T12:40:23Z</time>
      </trkpt>
      <trkpt lat="45.80173" lon="1.84513">
        <ele>657</ele>
        <time>2013-08-09T12:40:33Z</time>
      </trkpt>
      <trkpt lat="45.80158" lon="1.84518">
        <ele>657</ele>
        <time>2013-08-09T12:40:44Z</time>
      </trkpt>
      <trkpt lat="45.80143" lon="1.84523">
        <ele>658</ele>
        <time>2013-08-09T12:40:56Z</time>
      </trkpt>
      <trkpt lat="45.80128" lon="1.84528">
        <ele>660</ele>
        <time>2013-08-09T12:41:04Z</time>
      </trkpt>
      <trkpt lat="45.80113" lon="1.84525">
        <ele>660</ele>
        <time>2013-08-09T12:41:13Z</time>
      </trkpt>
      <trkpt lat="45.80098" lon="1.84523">
        <ele>660</ele>
        <time>2013-08-09T12:41:23Z</time>
      </trkpt>
      <trkpt lat="45.80085" lon="1.84513">
        <ele>657</ele>
        <time>2013-08-09T12:41:31Z</time>
      </trkpt>
      <trkpt lat="45.80073" lon="1.84505">
        <ele>656</ele>
        <time>2013-08-09T12:41:40Z</time>
      </trkpt>
      <trkpt lat="45.80058" lon="1.845">
        <ele>656</ele>
        <time>2013-08-09T12:41:50Z</time>
      </trkpt>
      <trkpt lat="45.80045" lon="1.84515">
        <ele>658</ele>
        <time>2013-08-09T12:42:01Z</time>
      </trkpt>
      <trkpt lat="45.80035" lon="1.8453">
        <ele>654</ele>
        <time>2013-08-09T12:42:11Z</time>
      </trkpt>
      <trkpt lat="45.8002" lon="1.84535">
        <ele>654</ele>
        <time>2013-08-09T12:42:22Z</time>
      </trkpt>
      <trkpt lat="45.80008" lon="1.84528">
        <ele>652</ele>
        <time>2013-08-09T12:42:30Z</time>
      </trkpt>
      <trkpt lat="45.79993" lon="1.8453">
        <ele>653</ele>
        <time>2013-08-09T12:42:40Z</time>
      </trkpt>
      <trkpt lat="45.7998" lon="1.84538">
        <ele>654</ele>
        <time>2013-08-09T12:42:49Z</time>
      </trkpt>
      <trkpt lat="45.79968" lon="1.8453">
        <ele>654</ele>
        <time>2013-08-09T12:42:56Z</time>
      </trkpt>
      <trkpt lat="45.79955" lon="1.84518">
        <ele>652</ele>
        <time>2013-08-09T12:43:04Z</time>
      </trkpt>
      <trkpt lat="45.79955" lon="1.84498">
        <ele>649</ele>
        <time>2013-08-09T12:43:15Z</time>
      </trkpt>
      <trkpt lat="45.79958" lon="1.84478">
        <ele>648</ele>
        <time>2013-08-09T12:43:22Z</time>
      </trkpt>
      <trkpt lat="45.79965" lon="1.8446">
        <ele>645</ele>
        <time>2013-08-09T12:43:30Z</time>
      </trkpt>
      <trkpt lat="45.79968" lon="1.8444">
        <ele>645</ele>
        <time>2013-08-09T12:43:39Z</time>
      </trkpt>
      <trkpt lat="45.79973" lon="1.8442">
        <ele>643</ele>
        <time>2013-08-09T12:43:49Z</time>
      </trkpt>
      <trkpt lat="45.79973" lon="1.844">
        <ele>643</ele>
        <time>2013-08-09T12:43:57Z</time>
      </trkpt>
      <trkpt lat="45.79973" lon="1.8438">
        <ele>644</ele>
        <time>2013-08-09T12:44:07Z</time>
      </trkpt>
      <trkpt lat="45.7997" lon="1.8436">
        <ele>646</ele>
        <time>2013-08-09T12:44:14Z</time>
      </trkpt>
      <trkpt lat="45.79965" lon="1.8434">
        <ele>648</ele>
        <time>2013-08-09T12:44:25Z</time>
      </trkpt>
      <trkpt lat="45.79958" lon="1.84323">
        <ele>649</ele>
        <time>2013-08-09T12:44:37Z</time>
      </trkpt>
      <trkpt lat="45.79945" lon="1.8431">
        <ele>650</ele>
        <time>2013-08-09T12:44:47Z</time>
      </trkpt>
      <trkpt lat="45.79933" lon="1.84303">
        <ele>650</ele>
        <time>2013-08-09T12:44:58Z</time>
      </trkpt>
      <trkpt lat="45.7992" lon="1.84295">
        <ele>650</ele>
        <time>2013-08-09T12:45:11Z</time>
      </trkpt>
      <trkpt lat="45.7991" lon="1.8428">
        <ele>655</ele>
        <time>2013-08-09T12:47:35Z</time>
      </trkpt>
      <trkpt lat="45.79903" lon="1.84298">
        <ele>652</ele>
        <time>2013-08-09T12:47:55Z</time>
      </trkpt>
      <trkpt lat="45.7989" lon="1.84288">
        <ele>650</ele>
        <time>2013-08-09T12:48:07Z</time>
      </trkpt>
      <trkpt lat="45.79875" lon="1.84283">
        <ele>651</ele>
        <time>2013-08-09T12:48:19Z</time>
      </trkpt>
      <trkpt lat="45.79855" lon="1.84278">
        <ele>650</ele>
        <time>2013-08-09T12:48:32Z</time>
      </trkpt>
      <trkpt lat="45.7984" lon="1.84278">
        <ele>649</ele>
        <time>2013-08-09T12:48:43Z</time>
      </trkpt>
      <trkpt lat="45.7982" lon="1.84273">
        <ele>651</ele>
        <time>2013-08-09T12:49:00Z</time>
      </trkpt>
      <trkpt lat="45.79798" lon="1.8428">
        <ele>655</ele>
        <time>2013-08-09T12:49:17Z</time>
      </trkpt>
      <trkpt lat="45.79785" lon="1.84288">
        <ele>656</ele>
        <time>2013-08-09T12:49:25Z</time>
      </trkpt>
      <trkpt lat="45.79775" lon="1.84303">
        <ele>656</ele>
        <time>2013-08-09T12:49:36Z</time>
      </trkpt>
      <trkpt lat="45.79763" lon="1.8431">
        <ele>655</ele>
        <time>2013-08-09T12:49:44Z</time>
      </trkpt>
      <trkpt lat="45.79758" lon="1.8433">
        <ele>655</ele>
        <time>2013-08-09T12:49:56Z</time>
      </trkpt>
      <trkpt lat="45.79765" lon="1.84348">
        <ele>655</ele>
        <time>2013-08-09T12:50:07Z</time>
      </trkpt>
      <trkpt lat="45.79763" lon="1.84368">
        <ele>657</ele>
        <time>2013-08-09T12:50:16Z</time>
      </trkpt>
      <trkpt lat="45.7976" lon="1.84388">
        <ele>655</ele>
        <time>2013-08-09T12:50:27Z</time>
      </trkpt>
      <trkpt lat="45.79755" lon="1.84408">
        <ele>652</ele>
        <time>2013-08-09T12:50:35Z</time>
      </trkpt>
      <trkpt lat="45.7975" lon="1.84428">
        <ele>651</ele>
        <time>2013-08-09T12:50:44Z</time>
      </trkpt>
      <trkpt lat="45.7974" lon="1.8447">
        <ele>652</ele>
        <time>2013-08-09T12:51:10Z</time>
      </trkpt>
      <trkpt lat="45.7974" lon="1.8449">
        <ele>654</ele>
        <time>2013-08-09T12:51:17Z</time>
      </trkpt>
      <trkpt lat="45.7974" lon="1.8451">
        <ele>655</ele>
        <time>2013-08-09T12:51:26Z</time>
      </trkpt>
      <trkpt lat="45.79738" lon="1.8453">
        <ele>657</ele>
        <time>2013-08-09T12:51:35Z</time>
      </trkpt>
      <trkpt lat="45.79735" lon="1.8455">
        <ele>658</ele>
        <time>2013-08-09T12:51:44Z</time>
      </trkpt>
      <trkpt lat="45.79733" lon="1.8457">
        <ele>658</ele>
        <time>2013-08-09T12:51:53Z</time>
      </trkpt>
      <trkpt lat="45.79725" lon="1.84588">
        <ele>660</ele>
        <time>2013-08-09T12:52:04Z</time>
      </trkpt>
      <trkpt lat="45.79718" lon="1.84608">
        <ele>660</ele>
        <time>2013-08-09T12:52:13Z</time>
      </trkpt>
      <trkpt lat="45.79713" lon="1.84628">
        <ele>664</ele>
        <time>2013-08-09T12:52:24Z</time>
      </trkpt>
      <trkpt lat="45.7971" lon="1.84648">
        <ele>664</ele>
        <time>2013-08-09T12:52:33Z</time>
      </trkpt>
      <trkpt lat="45.79705" lon="1.84668">
        <ele>665</ele>
        <time>2013-08-09T12:52:41Z</time>
      </trkpt>
      <trkpt lat="45.79703" lon="1.8469">
        <ele>663</ele>
        <time>2013-08-09T12:52:50Z</time>
      </trkpt>
      <trkpt lat="45.797" lon="1.8471">
        <ele>661</ele>
        <time>2013-08-09T12:53:02Z</time>
      </trkpt>
      <trkpt lat="45.79698" lon="1.8473">
        <ele>662</ele>
        <time>2013-08-09T12:53:08Z</time>
      </trkpt>
      <trkpt lat="45.79693" lon="1.8475">
        <ele>660</ele>
        <time>2013-08-09T12:53:17Z</time>
      </trkpt>
      <trkpt lat="45.7969" lon="1.8477">
        <ele>661</ele>
        <time>2013-08-09T12:53:25Z</time>
      </trkpt>
      <trkpt lat="45.79685" lon="1.8479">
        <ele>660</ele>
        <time>2013-08-09T12:53:35Z</time>
      </trkpt>
      <trkpt lat="45.7968" lon="1.8481">
        <ele>659</ele>
        <time>2013-08-09T12:53:48Z</time>
      </trkpt>
      <trkpt lat="45.79675" lon="1.8483">
        <ele>659</ele>
        <time>2013-08-09T12:53:56Z</time>
      </trkpt>
      <trkpt lat="45.7967" lon="1.8485">
        <ele>657</ele>
        <time>2013-08-09T12:54:07Z</time>
      </trkpt>
      <trkpt lat="45.79665" lon="1.8487">
        <ele>655</ele>
        <time>2013-08-09T12:54:17Z</time>
      </trkpt>
      <trkpt lat="45.79663" lon="1.8489">
        <ele>653</ele>
        <time>2013-08-09T12:54:27Z</time>
      </trkpt>
      <trkpt lat="45.79655" lon="1.84908">
        <ele>652</ele>
        <time>2013-08-09T12:54:35Z</time>
      </trkpt>
      <trkpt lat="45.79648" lon="1.84928">
        <ele>651</ele>
        <time>2013-08-09T12:54:44Z</time>
      </trkpt>
      <trkpt lat="45.79638" lon="1.84945">
        <ele>650</ele>
        <time>2013-08-09T12:54:52Z</time>
      </trkpt>
      <trkpt lat="45.7963" lon="1.84963">
        <ele>649</ele>
        <time>2013-08-09T12:55:02Z</time>
      </trkpt>
      <trkpt lat="45.79618" lon="1.84973">
        <ele>649</ele>
        <time>2013-08-09T12:55:12Z</time>
      </trkpt>
      <trkpt lat="45.79603" lon="1.84975">
        <ele>648</ele>
        <time>2013-08-09T12:55:23Z</time>
      </trkpt>
      <trkpt lat="45.79583" lon="1.84988">
        <ele>647</ele>
        <time>2013-08-09T12:55:41Z</time>
      </trkpt>
      <trkpt lat="45.79573" lon="1.85005">
        <ele>649</ele>
        <time>2013-08-09T12:55:51Z</time>
      </trkpt>
      <trkpt lat="45.79568" lon="1.85025">
        <ele>647</ele>
        <time>2013-08-09T12:56:01Z</time>
      </trkpt>
      <trkpt lat="45.79563" lon="1.85045">
        <ele>648</ele>
        <time>2013-08-09T12:56:09Z</time>
      </trkpt>
      <trkpt lat="45.79553" lon="1.8506">
        <ele>646</ele>
        <time>2013-08-09T12:56:18Z</time>
      </trkpt>
      <trkpt lat="45.7954" lon="1.85075">
        <ele>647</ele>
        <time>2013-08-09T12:56:29Z</time>
      </trkpt>
      <trkpt lat="45.7953" lon="1.8509">
        <ele>646</ele>
        <time>2013-08-09T12:56:37Z</time>
      </trkpt>
      <trkpt lat="45.79523" lon="1.85108">
        <ele>645</ele>
        <time>2013-08-09T12:56:46Z</time>
      </trkpt>
      <trkpt lat="45.79513" lon="1.85123">
        <ele>645</ele>
        <time>2013-08-09T12:56:55Z</time>
      </trkpt>
      <trkpt lat="45.79505" lon="1.8514">
        <ele>647</ele>
        <time>2013-08-09T12:57:04Z</time>
      </trkpt>
      <trkpt lat="45.79493" lon="1.85153">
        <ele>647</ele>
        <time>2013-08-09T12:57:14Z</time>
      </trkpt>
      <trkpt lat="45.79478" lon="1.85155">
        <ele>645</ele>
        <time>2013-08-09T12:57:25Z</time>
      </trkpt>
      <trkpt lat="45.79465" lon="1.85168">
        <ele>645</ele>
        <time>2013-08-09T12:57:37Z</time>
      </trkpt>
      <trkpt lat="45.79455" lon="1.85185">
        <ele>649</ele>
        <time>2013-08-09T12:57:46Z</time>
      </trkpt>
      <trkpt lat="45.79448" lon="1.85203">
        <ele>648</ele>
        <time>2013-08-09T12:57:55Z</time>
      </trkpt>
      <trkpt lat="45.79435" lon="1.85215">
        <ele>648</ele>
        <time>2013-08-09T12:58:03Z</time>
      </trkpt>
      <trkpt lat="45.79423" lon="1.85225">
        <ele>649</ele>
        <time>2013-08-09T12:58:11Z</time>
      </trkpt>
      <trkpt lat="45.79408" lon="1.85238">
        <ele>647</ele>
        <time>2013-08-09T12:58:22Z</time>
      </trkpt>
      <trkpt lat="45.79395" lon="1.85245">
        <ele>646</ele>
        <time>2013-08-09T12:58:30Z</time>
      </trkpt>
      <trkpt lat="45.7938" lon="1.85248">
        <ele>645</ele>
        <time>2013-08-09T12:58:40Z</time>
      </trkpt>
      <trkpt lat="45.79365" lon="1.8525">
        <ele>644</ele>
        <time>2013-08-09T12:58:51Z</time>
      </trkpt>
      <trkpt lat="45.7935" lon="1.85255">
        <ele>644</ele>
        <time>2013-08-09T12:59:00Z</time>
      </trkpt>
      <trkpt lat="45.79335" lon="1.85258">
        <ele>645</ele>
        <time>2013-08-09T12:59:10Z</time>
      </trkpt>
      <trkpt lat="45.7932" lon="1.85255">
        <ele>645</ele>
        <time>2013-08-09T12:59:20Z</time>
      </trkpt>
      <trkpt lat="45.79305" lon="1.85263">
        <ele>649</ele>
        <time>2013-08-09T12:59:31Z</time>
      </trkpt>
      <trkpt lat="45.79293" lon="1.85275">
        <ele>651</ele>
        <time>2013-08-09T12:59:41Z</time>
      </trkpt>
      <trkpt lat="45.7928" lon="1.85283">
        <ele>651</ele>
        <time>2013-08-09T12:59:50Z</time>
      </trkpt>
      <trkpt lat="45.79268" lon="1.85293">
        <ele>653</ele>
        <time>2013-08-09T12:59:58Z</time>
      </trkpt>
      <trkpt lat="45.79255" lon="1.853">
        <ele>651</ele>
        <time>2013-08-09T13:00:08Z</time>
      </trkpt>
      <trkpt lat="45.79243" lon="1.8531">
        <ele>651</ele>
        <time>2013-08-09T13:00:19Z</time>
      </trkpt>
      <trkpt lat="45.7923" lon="1.85318">
        <ele>650</ele>
        <time>2013-08-09T13:00:27Z</time>
      </trkpt>
      <trkpt lat="45.79215" lon="1.85325">
        <ele>650</ele>
        <time>2013-08-09T13:00:36Z</time>
      </trkpt>
      <trkpt lat="45.79203" lon="1.85333">
        <ele>650</ele>
        <time>2013-08-09T13:00:43Z</time>
      </trkpt>
      <trkpt lat="45.79188" lon="1.85335">
        <ele>649</ele>
        <time>2013-08-09T13:00:54Z</time>
      </trkpt>
      <trkpt lat="45.79173" lon="1.85335">
        <ele>651</ele>
        <time>2013-08-09T13:01:03Z</time>
      </trkpt>
      <trkpt lat="45.79158" lon="1.85328">
        <ele>647</ele>
        <time>2013-08-09T13:01:13Z</time>
      </trkpt>
      <trkpt lat="45.79143" lon="1.85328">
        <ele>648</ele>
        <time>2013-08-09T13:01:25Z</time>
      </trkpt>
      <trkpt lat="45.79128" lon="1.8533">
        <ele>649</ele>
        <time>2013-08-09T13:01:33Z</time>
      </trkpt>
      <trkpt lat="45.79113" lon="1.8533">
        <ele>648</ele>
        <time>2013-08-09T13:01:44Z</time>
      </trkpt>
      <trkpt lat="45.79098" lon="1.85325">
        <ele>646</ele>
        <time>2013-08-09T13:02:04Z</time>
      </trkpt>
      <trkpt lat="45.79085" lon="1.85313">
        <ele>644</ele>
        <time>2013-08-09T13:02:11Z</time>
      </trkpt>
      <trkpt lat="45.7907" lon="1.85305">
        <ele>645</ele>
        <time>2013-08-09T13:02:19Z</time>
      </trkpt>
      <trkpt lat="45.79058" lon="1.85293">
        <ele>646</ele>
        <time>2013-08-09T13:02:31Z</time>
      </trkpt>
      <trkpt lat="45.7904" lon="1.85288">
        <ele>645</ele>
        <time>2013-08-09T13:02:39Z</time>
      </trkpt>
      <trkpt lat="45.79028" lon="1.85278">
        <ele>646</ele>
        <time>2013-08-09T13:02:45Z</time>
      </trkpt>
      <trkpt lat="45.79015" lon="1.8527">
        <ele>649</ele>
        <time>2013-08-09T13:02:56Z</time>
      </trkpt>
      <trkpt lat="45.79" lon="1.85268">
        <ele>653</ele>
        <time>2013-08-09T13:03:55Z</time>
      </trkpt>
      <trkpt lat="45.78985" lon="1.85263">
        <ele>653</ele>
        <time>2013-08-09T13:04:20Z</time>
      </trkpt>
      <trkpt lat="45.78973" lon="1.85255">
        <ele>653</ele>
        <time>2013-08-09T13:04:28Z</time>
      </trkpt>
      <trkpt lat="45.78958" lon="1.85255">
        <ele>653</ele>
        <time>2013-08-09T13:04:38Z</time>
      </trkpt>
      <trkpt lat="45.78943" lon="1.8525">
        <ele>656</ele>
        <time>2013-08-09T13:04:51Z</time>
      </trkpt>
      <trkpt lat="45.7893" lon="1.8524">
        <ele>654</ele>
        <time>2013-08-09T13:05:03Z</time>
      </trkpt>
      <trkpt lat="45.78915" lon="1.85235">
        <ele>655</ele>
        <time>2013-08-09T13:05:13Z</time>
      </trkpt>
      <trkpt lat="45.78903" lon="1.85223">
        <ele>654</ele>
        <time>2013-08-09T13:05:20Z</time>
      </trkpt>
      <trkpt lat="45.78888" lon="1.8522">
        <ele>654</ele>
        <time>2013-08-09T13:05:29Z</time>
      </trkpt>
      <trkpt lat="45.78878" lon="1.85205">
        <ele>654</ele>
        <time>2013-08-09T13:05:40Z</time>
      </trkpt>
      <trkpt lat="45.7886" lon="1.852">
        <ele>656</ele>
        <time>2013-08-09T13:05:52Z</time>
      </trkpt>
      <trkpt lat="45.78848" lon="1.85193">
        <ele>656</ele>
        <time>2013-08-09T13:05:59Z</time>
      </trkpt>
      <trkpt lat="45.78835" lon="1.85183">
        <ele>655</ele>
        <time>2013-08-09T13:06:06Z</time>
      </trkpt>
      <trkpt lat="45.78823" lon="1.85168">
        <ele>654</ele>
        <time>2013-08-09T13:06:23Z</time>
      </trkpt>
      <trkpt lat="45.7881" lon="1.85153">
        <ele>659</ele>
        <time>2013-08-09T13:06:33Z</time>
      </trkpt>
      <trkpt lat="45.78795" lon="1.85148">
        <ele>663</ele>
        <time>2013-08-09T13:06:39Z</time>
      </trkpt>
      <trkpt lat="45.7878" lon="1.85143">
        <ele>665</ele>
        <time>2013-08-09T13:06:47Z</time>
      </trkpt>
      <trkpt lat="45.78765" lon="1.85143">
        <ele>667</ele>
        <time>2013-08-09T13:06:56Z</time>
      </trkpt>
      <trkpt lat="45.7875" lon="1.85143">
        <ele>667</ele>
        <time>2013-08-09T13:07:06Z</time>
      </trkpt>
      <trkpt lat="45.78735" lon="1.85138">
        <ele>667</ele>
        <time>2013-08-09T13:07:17Z</time>
      </trkpt>
      <trkpt lat="45.7872" lon="1.85133">
        <ele>666</ele>
        <time>2013-08-09T13:07:25Z</time>
      </trkpt>
      <trkpt lat="45.78705" lon="1.8513">
        <ele>666</ele>
        <time>2013-08-09T13:07:33Z</time>
      </trkpt>
      <trkpt lat="45.7869" lon="1.85125">
        <ele>669</ele>
        <time>2013-08-09T13:07:43Z</time>
      </trkpt>
      <trkpt lat="45.78678" lon="1.85118">
        <ele>671</ele>
        <time>2013-08-09T13:07:53Z</time>
      </trkpt>
      <trkpt lat="45.78665" lon="1.85103">
        <ele>671</ele>
        <time>2013-08-09T13:08:11Z</time>
      </trkpt>
      <trkpt lat="45.78653" lon="1.85095">
        <ele>673</ele>
        <time>2013-08-09T13:08:19Z</time>
      </trkpt>
      <trkpt lat="45.78638" lon="1.8509">
        <ele>671</ele>
        <time>2013-08-09T13:08:29Z</time>
      </trkpt>
      <trkpt lat="45.78623" lon="1.85085">
        <ele>672</ele>
        <time>2013-08-09T13:08:37Z</time>
      </trkpt>
      <trkpt lat="45.7861" lon="1.85075">
        <ele>672</ele>
        <time>2013-08-09T13:08:43Z</time>
      </trkpt>
      <trkpt lat="45.78598" lon="1.85068">
        <ele>672</ele>
        <time>2013-08-09T13:08:49Z</time>
      </trkpt>
      <trkpt lat="45.78585" lon="1.85058">
        <ele>671</ele>
        <time>2013-08-09T13:08:56Z</time>
      </trkpt>
      <trkpt lat="45.7857" lon="1.85053">
        <ele>671</ele>
        <time>2013-08-09T13:09:07Z</time>
      </trkpt>
      <trkpt lat="45.78555" lon="1.85053">
        <ele>672</ele>
        <time>2013-08-09T13:09:16Z</time>
      </trkpt>
      <trkpt lat="45.7854" lon="1.8505">
        <ele>672</ele>
        <time>2013-08-09T13:09:23Z</time>
      </trkpt>
      <trkpt lat="45.78528" lon="1.85043">
        <ele>668</ele>
        <time>2013-08-09T13:09:34Z</time>
      </trkpt>
      <trkpt lat="45.7851" lon="1.85033">
        <ele>665</ele>
        <time>2013-08-09T13:09:47Z</time>
      </trkpt>
      <trkpt lat="45.78493" lon="1.85018">
        <ele>663</ele>
        <time>2013-08-09T13:09:57Z</time>
      </trkpt>
      <trkpt lat="45.78478" lon="1.8501">
        <ele>663</ele>
        <time>2013-08-09T13:10:05Z</time>
      </trkpt>
      <trkpt lat="45.78465" lon="1.85003">
        <ele>662</ele>
        <time>2013-08-09T13:10:11Z</time>
      </trkpt>
      <trkpt lat="45.78453" lon="1.84995">
        <ele>665</ele>
        <time>2013-08-09T13:10:22Z</time>
      </trkpt>
      <trkpt lat="45.78438" lon="1.8499">
        <ele>663</ele>
        <time>2013-08-09T13:10:30Z</time>
      </trkpt>
      <trkpt lat="45.78425" lon="1.84983">
        <ele>663</ele>
        <time>2013-08-09T13:10:37Z</time>
      </trkpt>
      <trkpt lat="45.78415" lon="1.84965">
        <ele>661</ele>
        <time>2013-08-09T13:10:54Z</time>
      </trkpt>
      <trkpt lat="45.78395" lon="1.84938">
        <ele>661</ele>
        <time>2013-08-09T13:11:16Z</time>
      </trkpt>
      <trkpt lat="45.78383" lon="1.8493">
        <ele>659</ele>
        <time>2013-08-09T13:11:22Z</time>
      </trkpt>
      <trkpt lat="45.7837" lon="1.8492">
        <ele>658</ele>
        <time>2013-08-09T13:11:29Z</time>
      </trkpt>
      <trkpt lat="45.78355" lon="1.84915">
        <ele>658</ele>
        <time>2013-08-09T13:11:36Z</time>
      </trkpt>
      <trkpt lat="45.7834" lon="1.84915">
        <ele>662</ele>
        <time>2013-08-09T13:11:43Z</time>
      </trkpt>
      <trkpt lat="45.78325" lon="1.8492">
        <ele>663</ele>
        <time>2013-08-09T13:11:54Z</time>
      </trkpt>
      <trkpt lat="45.7831" lon="1.84923">
        <ele>663</ele>
        <time>2013-08-09T13:12:03Z</time>
      </trkpt>
      <trkpt lat="45.78293" lon="1.84923">
        <ele>663</ele>
        <time>2013-08-09T13:12:13Z</time>
      </trkpt>
      <trkpt lat="45.78278" lon="1.84925">
        <ele>665</ele>
        <time>2013-08-09T13:12:22Z</time>
      </trkpt>
      <trkpt lat="45.78263" lon="1.84925">
        <ele>663</ele>
        <time>2013-08-09T13:12:34Z</time>
      </trkpt>
      <trkpt lat="45.78248" lon="1.8492">
        <ele>662</ele>
        <time>2013-08-09T13:12:44Z</time>
      </trkpt>
      <trkpt lat="45.78238" lon="1.84903">
        <ele>663</ele>
        <time>2013-08-09T13:12:55Z</time>
      </trkpt>
      <trkpt lat="45.7823" lon="1.84885">
        <ele>663</ele>
        <time>2013-08-09T13:13:02Z</time>
      </trkpt>
      <trkpt lat="45.78228" lon="1.84865">
        <ele>663</ele>
        <time>2013-08-09T13:13:10Z</time>
      </trkpt>
      <trkpt lat="45.78228" lon="1.84845">
        <ele>662</ele>
        <time>2013-08-09T13:13:18Z</time>
      </trkpt>
      <trkpt lat="45.78225" lon="1.84823">
        <ele>662</ele>
        <time>2013-08-09T13:13:28Z</time>
      </trkpt>
      <trkpt lat="45.78223" lon="1.84795">
        <ele>659</ele>
        <time>2013-08-09T13:13:40Z</time>
      </trkpt>
      <trkpt lat="45.78213" lon="1.84778">
        <ele>657</ele>
        <time>2013-08-09T13:13:48Z</time>
      </trkpt>
      <trkpt lat="45.782" lon="1.84763">
        <ele>656</ele>
        <time>2013-08-09T13:13:58Z</time>
      </trkpt>
      <trkpt lat="45.78188" lon="1.84755">
        <ele>657</ele>
        <time>2013-08-09T13:14:07Z</time>
      </trkpt>
      <trkpt lat="45.78175" lon="1.84748">
        <ele>658</ele>
        <time>2013-08-09T13:14:14Z</time>
      </trkpt>
      <trkpt lat="45.78158" lon="1.8476">
        <ele>660</ele>
        <time>2013-08-09T13:14:31Z</time>
      </trkpt>
      <trkpt lat="45.78153" lon="1.84783">
        <ele>659</ele>
        <time>2013-08-09T13:14:39Z</time>
      </trkpt>
      <trkpt lat="45.78148" lon="1.84803">
        <ele>658</ele>
        <time>2013-08-09T13:14:46Z</time>
      </trkpt>
      <trkpt lat="45.78148" lon="1.84823">
        <ele>659</ele>
        <time>2013-08-09T13:14:53Z</time>
      </trkpt>
      <trkpt lat="45.78145" lon="1.84848">
        <ele>659</ele>
        <time>2013-08-09T13:15:03Z</time>
      </trkpt>
      <trkpt lat="45.78145" lon="1.84868">
        <ele>659</ele>
        <time>2013-08-09T13:15:10Z</time>
      </trkpt>
      <trkpt lat="45.78145" lon="1.84888">
        <ele>657</ele>
        <time>2013-08-09T13:15:18Z</time>
      </trkpt>
      <trkpt lat="45.78143" lon="1.84913">
        <ele>657</ele>
        <time>2013-08-09T13:15:30Z</time>
      </trkpt>
      <trkpt lat="45.78138" lon="1.84933">
        <ele>656</ele>
        <time>2013-08-09T13:15:40Z</time>
      </trkpt>
      <trkpt lat="45.7813" lon="1.8495">
        <ele>654</ele>
        <time>2013-08-09T13:15:47Z</time>
      </trkpt>
      <trkpt lat="45.78128" lon="1.8497">
        <ele>655</ele>
        <time>2013-08-09T13:15:57Z</time>
      </trkpt>
      <trkpt lat="45.78123" lon="1.8499">
        <ele>654</ele>
        <time>2013-08-09T13:16:05Z</time>
      </trkpt>
      <trkpt lat="45.78115" lon="1.85008">
        <ele>654</ele>
        <time>2013-08-09T13:16:14Z</time>
      </trkpt>
      <trkpt lat="45.78105" lon="1.85023">
        <ele>654</ele>
        <time>2013-08-09T13:16:24Z</time>
      </trkpt>
      <trkpt lat="45.78093" lon="1.85035">
        <ele>653</ele>
        <time>2013-08-09T13:16:33Z</time>
      </trkpt>
      <trkpt lat="45.78078" lon="1.85038">
        <ele>652</ele>
        <time>2013-08-09T13:16:40Z</time>
      </trkpt>
      <trkpt lat="45.78065" lon="1.8503">
        <ele>653</ele>
        <time>2013-08-09T13:16:50Z</time>
      </trkpt>
      <trkpt lat="45.7805" lon="1.85033">
        <ele>654</ele>
        <time>2013-08-09T13:16:57Z</time>
      </trkpt>
      <trkpt lat="45.78035" lon="1.8504">
        <ele>654</ele>
        <time>2013-08-09T13:17:05Z</time>
      </trkpt>
      <trkpt lat="45.7802" lon="1.85045">
        <ele>653</ele>
        <time>2013-08-09T13:17:16Z</time>
      </trkpt>
      <trkpt lat="45.78008" lon="1.85053">
        <ele>654</ele>
        <time>2013-08-09T13:17:22Z</time>
      </trkpt>
      <trkpt lat="45.77995" lon="1.85065">
        <ele>655</ele>
        <time>2013-08-09T13:17:31Z</time>
      </trkpt>
      <trkpt lat="45.77983" lon="1.85078">
        <ele>655</ele>
        <time>2013-08-09T13:17:40Z</time>
      </trkpt>
      <trkpt lat="45.77978" lon="1.851">
        <ele>655</ele>
        <time>2013-08-09T13:17:50Z</time>
      </trkpt>
      <trkpt lat="45.77978" lon="1.85123">
        <ele>656</ele>
        <time>2013-08-09T13:17:57Z</time>
      </trkpt>
      <trkpt lat="45.77983" lon="1.85143">
        <ele>656</ele>
        <time>2013-08-09T13:18:07Z</time>
      </trkpt>
      <trkpt lat="45.77988" lon="1.85163">
        <ele>658</ele>
        <time>2013-08-09T13:18:15Z</time>
      </trkpt>
      <trkpt lat="45.77998" lon="1.8518">
        <ele>660</ele>
        <time>2013-08-09T13:18:24Z</time>
      </trkpt>
      <trkpt lat="45.78008" lon="1.85195">
        <ele>659</ele>
        <time>2013-08-09T13:18:32Z</time>
      </trkpt>
      <trkpt lat="45.78015" lon="1.8522">
        <ele>658</ele>
        <time>2013-08-09T13:18:49Z</time>
      </trkpt>
      <trkpt lat="45.78023" lon="1.8524">
        <ele>659</ele>
        <time>2013-08-09T13:18:59Z</time>
      </trkpt>
      <trkpt lat="45.7803" lon="1.85258">
        <ele>660</ele>
        <time>2013-08-09T13:19:08Z</time>
      </trkpt>
      <trkpt lat="45.78035" lon="1.85278">
        <ele>661</ele>
        <time>2013-08-09T13:19:15Z</time>
      </trkpt>
      <trkpt lat="45.7803" lon="1.85298">
        <ele>661</ele>
        <time>2013-08-09T13:19:21Z</time>
      </trkpt>
      <trkpt lat="45.78048" lon="1.85285">
        <ele>661</ele>
        <time>2013-08-09T13:19:38Z</time>
      </trkpt>
      <trkpt lat="45.7806" lon="1.85278">
        <ele>659</ele>
        <time>2013-08-09T13:19:47Z</time>
      </trkpt>
      <trkpt lat="45.78075" lon="1.8528">
        <ele>659</ele>
        <time>2013-08-09T13:19:56Z</time>
      </trkpt>
      <trkpt lat="45.78085" lon="1.85295">
        <ele>659</ele>
        <time>2013-08-09T13:20:04Z</time>
      </trkpt>
      <trkpt lat="45.7809" lon="1.85315">
        <ele>657</ele>
        <time>2013-08-09T13:20:16Z</time>
      </trkpt>
      <trkpt lat="45.7809" lon="1.85335">
        <ele>657</ele>
        <time>2013-08-09T13:20:24Z</time>
      </trkpt>
      <trkpt lat="45.78093" lon="1.85355">
        <ele>655</ele>
        <time>2013-08-09T13:20:33Z</time>
      </trkpt>
      <trkpt lat="45.7808" lon="1.85365">
        <ele>655</ele>
        <time>2013-08-09T13:20:42Z</time>
      </trkpt>
      <trkpt lat="45.7807" lon="1.85383">
        <ele>654</ele>
        <time>2013-08-09T13:20:55Z</time>
      </trkpt>
      <trkpt lat="45.78068" lon="1.85403">
        <ele>653</ele>
        <time>2013-08-09T13:21:03Z</time>
      </trkpt>
      <trkpt lat="45.78063" lon="1.85423">
        <ele>655</ele>
        <time>2013-08-09T13:21:11Z</time>
      </trkpt>
      <trkpt lat="45.78063" lon="1.85443">
        <ele>655</ele>
        <time>2013-08-09T13:21:18Z</time>
      </trkpt>
      <trkpt lat="45.78065" lon="1.85465">
        <ele>657</ele>
        <time>2013-08-09T13:21:27Z</time>
      </trkpt>
      <trkpt lat="45.78065" lon="1.85485">
        <ele>656</ele>
        <time>2013-08-09T13:21:37Z</time>
      </trkpt>
      <trkpt lat="45.78063" lon="1.85505">
        <ele>657</ele>
        <time>2013-08-09T13:21:44Z</time>
      </trkpt>
      <trkpt lat="45.78065" lon="1.85525">
        <ele>657</ele>
        <time>2013-08-09T13:21:51Z</time>
      </trkpt>
      <trkpt lat="45.78065" lon="1.85505">
        <ele>657</ele>
        <time>2013-08-09T13:22:42Z</time>
      </trkpt>
      <trkpt lat="45.78065" lon="1.85525">
        <ele>655</ele>
        <time>2013-08-09T13:23:48Z</time>
      </trkpt>
      <trkpt lat="45.78075" lon="1.8554">
        <ele>656</ele>
        <time>2013-08-09T13:23:58Z</time>
      </trkpt>
      <trkpt lat="45.78088" lon="1.85553">
        <ele>651</ele>
        <time>2013-08-09T13:25:11Z</time>
      </trkpt>
      <trkpt lat="45.78073" lon="1.85553">
        <ele>653</ele>
        <time>2013-08-09T13:29:50Z</time>
      </trkpt>
      <trkpt lat="45.78085" lon="1.8556">
        <ele>656</ele>
        <time>2013-08-09T13:30:36Z</time>
      </trkpt>
      <trkpt lat="45.78098" lon="1.85575">
        <ele>658</ele>
        <time>2013-08-09T13:30:45Z</time>
      </trkpt>
      <trkpt lat="45.78088" lon="1.8556">
        <ele>652</ele>
        <time>2013-08-09T13:32:02Z</time>
      </trkpt>
      <trkpt lat="45.78073" lon="1.85565">
        <ele>669</ele>
        <time>2013-08-09T13:41:20Z</time>
      </trkpt>
      <trkpt lat="45.78085" lon="1.85558">
        <ele>666</ele>
        <time>2013-08-09T13:53:51Z</time>
      </trkpt>
      <trkpt lat="45.78098" lon="1.85565">
        <ele>655</ele>
        <time>2013-08-09T13:56:23Z</time>
      </trkpt>
      <trkpt lat="45.7809" lon="1.85548">
        <ele>658</ele>
        <time>2013-08-09T14:00:28Z</time>
      </trkpt>
      <trkpt lat="45.78075" lon="1.85548">
        <ele>657</ele>
        <time>2013-08-09T14:05:35Z</time>
      </trkpt>
      <trkpt lat="45.7806" lon="1.85535">
        <ele>658</ele>
        <time>2013-08-09T14:05:52Z</time>
      </trkpt>
      <trkpt lat="45.78073" lon="1.85548">
        <ele>661</ele>
        <time>2013-08-09T14:06:40Z</time>
      </trkpt>
      <trkpt lat="45.78085" lon="1.85555">
        <ele>663</ele>
        <time>2013-08-09T14:06:53Z</time>
      </trkpt>
      <trkpt lat="45.781" lon="1.85545">
        <ele>660</ele>
        <time>2013-08-09T14:13:59Z</time>
      </trkpt>
      <trkpt lat="45.78085" lon="1.85548">
        <ele>664</ele>
        <time>2013-08-09T14:14:19Z</time>
      </trkpt>
      <trkpt lat="45.78073" lon="1.85555">
        <ele>681</ele>
        <time>2013-08-09T14:16:46Z</time>
      </trkpt>
      <trkpt lat="45.78085" lon="1.85568">
        <ele>678</ele>
        <time>2013-08-09T14:35:05Z</time>
      </trkpt>
      <trkpt lat="45.78098" lon="1.8556">
        <ele>674</ele>
        <time>2013-08-09T14:35:52Z</time>
      </trkpt>
      <trkpt lat="45.78088" lon="1.85545">
        <ele>662</ele>
        <time>2013-08-09T14:37:11Z</time>
      </trkpt>
      <trkpt lat="45.78073" lon="1.85545">
        <ele>662</ele>
        <time>2013-08-09T14:44:52Z</time>
      </trkpt>
      <trkpt lat="45.78085" lon="1.85553">
        <ele>664</ele>
        <time>2013-08-09T14:46:03Z</time>
      </trkpt>
      <trkpt lat="45.78085" lon="1.85533">
        <ele>655</ele>
        <time>2013-08-09T14:47:34Z</time>
      </trkpt>
      <trkpt lat="45.78078" lon="1.85515">
        <ele>659</ele>
        <time>2013-08-09T14:48:09Z</time>
      </trkpt>
      <trkpt lat="45.7808" lon="1.85535">
        <ele>652</ele>
        <time>2013-08-09T14:50:21Z</time>
      </trkpt>
      <trkpt lat="45.78083" lon="1.85555">
        <ele>653</ele>
        <time>2013-08-09T14:52:08Z</time>
      </trkpt>
      <trkpt lat="45.78073" lon="1.85575">
        <ele>653</ele>
        <time>2013-08-09T14:52:26Z</time>
      </trkpt>
      <trkpt lat="45.78068" lon="1.85595">
        <ele>652</ele>
        <time>2013-08-09T14:52:33Z</time>
      </trkpt>
      <trkpt lat="45.78065" lon="1.85615">
        <ele>653</ele>
        <time>2013-08-09T14:52:45Z</time>
      </trkpt>
      <trkpt lat="45.7806" lon="1.85638">
        <ele>653</ele>
        <time>2013-08-09T14:52:58Z</time>
      </trkpt>
      <trkpt lat="45.78058" lon="1.85658">
        <ele>655</ele>
        <time>2013-08-09T14:53:08Z</time>
      </trkpt>
      <trkpt lat="45.78063" lon="1.85678">
        <ele>654</ele>
        <time>2013-08-09T14:53:19Z</time>
      </trkpt>
      <trkpt lat="45.7807" lon="1.85695">
        <ele>656</ele>
        <time>2013-08-09T14:53:32Z</time>
      </trkpt>
      <trkpt lat="45.7808" lon="1.85713">
        <ele>655</ele>
        <time>2013-08-09T14:53:43Z</time>
      </trkpt>
      <trkpt lat="45.7809" lon="1.85728">
        <ele>652</ele>
        <time>2013-08-09T14:53:54Z</time>
      </trkpt>
      <trkpt lat="45.78103" lon="1.8574">
        <ele>652</ele>
        <time>2013-08-09T14:54:03Z</time>
      </trkpt>
      <trkpt lat="45.78113" lon="1.85755">
        <ele>650</ele>
        <time>2013-08-09T14:54:24Z</time>
      </trkpt>
      <trkpt lat="45.78128" lon="1.8576">
        <ele>650</ele>
        <time>2013-08-09T14:55:02Z</time>
      </trkpt>
      <trkpt lat="45.78145" lon="1.85753">
        <ele>648</ele>
        <time>2013-08-09T14:55:20Z</time>
      </trkpt>
      <trkpt lat="45.7816" lon="1.85755">
        <ele>650</ele>
        <time>2013-08-09T14:55:33Z</time>
      </trkpt>
      <trkpt lat="45.78175" lon="1.85755">
        <ele>653</ele>
        <time>2013-08-09T14:55:51Z</time>
      </trkpt>
      <trkpt lat="45.78188" lon="1.85748">
        <ele>657</ele>
        <time>2013-08-09T14:57:27Z</time>
      </trkpt>
      <trkpt lat="45.78203" lon="1.85748">
        <ele>661</ele>
        <time>2013-08-09T14:58:31Z</time>
      </trkpt>
      <trkpt lat="45.78218" lon="1.85735">
        <ele>661</ele>
        <time>2013-08-09T14:58:48Z</time>
      </trkpt>
      <trkpt lat="45.7823" lon="1.85725">
        <ele>662</ele>
        <time>2013-08-09T14:58:57Z</time>
      </trkpt>
      <trkpt lat="45.78245" lon="1.85723">
        <ele>663</ele>
        <time>2013-08-09T14:59:04Z</time>
      </trkpt>
      <trkpt lat="45.7826" lon="1.85718">
        <ele>663</ele>
        <time>2013-08-09T14:59:13Z</time>
      </trkpt>
      <trkpt lat="45.78273" lon="1.85725">
        <ele>664</ele>
        <time>2013-08-09T14:59:25Z</time>
      </trkpt>
      <trkpt lat="45.7828" lon="1.85743">
        <ele>663</ele>
        <time>2013-08-09T14:59:31Z</time>
      </trkpt>
      <trkpt lat="45.78285" lon="1.85763">
        <ele>663</ele>
        <time>2013-08-09T14:59:36Z</time>
      </trkpt>
      <trkpt lat="45.7829" lon="1.85783">
        <ele>663</ele>
        <time>2013-08-09T14:59:48Z</time>
      </trkpt>
      <trkpt lat="45.78295" lon="1.85803">
        <ele>663</ele>
        <time>2013-08-09T14:59:57Z</time>
      </trkpt>
      <trkpt lat="45.78303" lon="1.85823">
        <ele>665</ele>
        <time>2013-08-09T15:00:06Z</time>
      </trkpt>
      <trkpt lat="45.78305" lon="1.85843">
        <ele>665</ele>
        <time>2013-08-09T15:00:15Z</time>
      </trkpt>
      <trkpt lat="45.78293" lon="1.85903">
        <ele>664</ele>
        <time>2013-08-09T15:00:56Z</time>
      </trkpt>
      <trkpt lat="45.7828" lon="1.85913">
        <ele>665</ele>
        <time>2013-08-09T15:01:06Z</time>
      </trkpt>
      <trkpt lat="45.78268" lon="1.85925">
        <ele>665</ele>
        <time>2013-08-09T15:01:14Z</time>
      </trkpt>
      <trkpt lat="45.78255" lon="1.85933">
        <ele>666</ele>
        <time>2013-08-09T15:01:23Z</time>
      </trkpt>
      <trkpt lat="45.78243" lon="1.85943">
        <ele>668</ele>
        <time>2013-08-09T15:01:33Z</time>
      </trkpt>
      <trkpt lat="45.7823" lon="1.85958">
        <ele>668</ele>
        <time>2013-08-09T15:01:43Z</time>
      </trkpt>
      <trkpt lat="45.78218" lon="1.85965">
        <ele>669</ele>
        <time>2013-08-09T15:01:53Z</time>
      </trkpt>
      <trkpt lat="45.78205" lon="1.85975">
        <ele>671</ele>
        <time>2013-08-09T15:02:02Z</time>
      </trkpt>
      <trkpt lat="45.78198" lon="1.85993">
        <ele>669</ele>
        <time>2013-08-09T15:02:15Z</time>
      </trkpt>
      <trkpt lat="45.78188" lon="1.86008">
        <ele>667</ele>
        <time>2013-08-09T15:02:26Z</time>
      </trkpt>
      <trkpt lat="45.78178" lon="1.86023">
        <ele>666</ele>
        <time>2013-08-09T15:02:35Z</time>
      </trkpt>
      <trkpt lat="45.78165" lon="1.86033">
        <ele>667</ele>
        <time>2013-08-09T15:02:44Z</time>
      </trkpt>
      <trkpt lat="45.78153" lon="1.8604">
        <ele>666</ele>
        <time>2013-08-09T15:02:54Z</time>
      </trkpt>
      <trkpt lat="45.78145" lon="1.86058">
        <ele>663</ele>
        <time>2013-08-09T15:03:03Z</time>
      </trkpt>
      <trkpt lat="45.7814" lon="1.86078">
        <ele>665</ele>
        <time>2013-08-09T15:03:14Z</time>
      </trkpt>
      <trkpt lat="45.78135" lon="1.86103">
        <ele>666</ele>
        <time>2013-08-09T15:03:22Z</time>
      </trkpt>
      <trkpt lat="45.7813" lon="1.86125">
        <ele>666</ele>
        <time>2013-08-09T15:03:32Z</time>
      </trkpt>
      <trkpt lat="45.78125" lon="1.86145">
        <ele>667</ele>
        <time>2013-08-09T15:03:41Z</time>
      </trkpt>
      <trkpt lat="45.78123" lon="1.86165">
        <ele>667</ele>
        <time>2013-08-09T15:03:50Z</time>
      </trkpt>
      <trkpt lat="45.78118" lon="1.86185">
        <ele>666</ele>
        <time>2013-08-09T15:03:59Z</time>
      </trkpt>
      <trkpt lat="45.78115" lon="1.86208">
        <ele>665</ele>
        <time>2013-08-09T15:04:08Z</time>
      </trkpt>
      <trkpt lat="45.7811" lon="1.86228">
        <ele>664</ele>
        <time>2013-08-09T15:04:18Z</time>
      </trkpt>
      <trkpt lat="45.78108" lon="1.86248">
        <ele>664</ele>
        <time>2013-08-09T15:04:25Z</time>
      </trkpt>
      <trkpt lat="45.78105" lon="1.86268">
        <ele>662</ele>
        <time>2013-08-09T15:04:36Z</time>
      </trkpt>
      <trkpt lat="45.781" lon="1.86288">
        <ele>662</ele>
        <time>2013-08-09T15:04:45Z</time>
      </trkpt>
      <trkpt lat="45.78095" lon="1.86308">
        <ele>662</ele>
        <time>2013-08-09T15:04:55Z</time>
      </trkpt>
      <trkpt lat="45.78085" lon="1.86348">
        <ele>661</ele>
        <time>2013-08-09T15:05:18Z</time>
      </trkpt>
      <trkpt lat="45.78085" lon="1.86368">
        <ele>661</ele>
        <time>2013-08-09T15:05:25Z</time>
      </trkpt>
      <trkpt lat="45.78085" lon="1.86388">
        <ele>661</ele>
        <time>2013-08-09T15:05:35Z</time>
      </trkpt>
      <trkpt lat="45.78085" lon="1.86408">
        <ele>660</ele>
        <time>2013-08-09T15:05:43Z</time>
      </trkpt>
      <trkpt lat="45.7808" lon="1.86428">
        <ele>661</ele>
        <time>2013-08-09T15:05:52Z</time>
      </trkpt>
      <trkpt lat="45.78075" lon="1.8646">
        <ele>658</ele>
        <time>2013-08-09T15:06:10Z</time>
      </trkpt>
      <trkpt lat="45.7807" lon="1.8648">
        <ele>657</ele>
        <time>2013-08-09T15:06:19Z</time>
      </trkpt>
      <trkpt lat="45.78068" lon="1.865">
        <ele>657</ele>
        <time>2013-08-09T15:06:28Z</time>
      </trkpt>
      <trkpt lat="45.7806" lon="1.86518">
        <ele>655</ele>
        <time>2013-08-09T15:06:39Z</time>
      </trkpt>
      <trkpt lat="45.78055" lon="1.86538">
        <ele>654</ele>
        <time>2013-08-09T15:06:48Z</time>
      </trkpt>
      <trkpt lat="45.78045" lon="1.86553">
        <ele>652</ele>
        <time>2013-08-09T15:06:59Z</time>
      </trkpt>
      <trkpt lat="45.78035" lon="1.86568">
        <ele>652</ele>
        <time>2013-08-09T15:07:08Z</time>
      </trkpt>
      <trkpt lat="45.78023" lon="1.86578">
        <ele>652</ele>
        <time>2013-08-09T15:07:18Z</time>
      </trkpt>
      <trkpt lat="45.7801" lon="1.86588">
        <ele>652</ele>
        <time>2013-08-09T15:07:27Z</time>
      </trkpt>
      <trkpt lat="45.77995" lon="1.8659">
        <ele>650</ele>
        <time>2013-08-09T15:07:38Z</time>
      </trkpt>
      <trkpt lat="45.7798" lon="1.8659">
        <ele>649</ele>
        <time>2013-08-09T15:07:48Z</time>
      </trkpt>
      <trkpt lat="45.77965" lon="1.86588">
        <ele>648</ele>
        <time>2013-08-09T15:08:00Z</time>
      </trkpt>
      <trkpt lat="45.77953" lon="1.86575">
        <ele>646</ele>
        <time>2013-08-09T15:08:10Z</time>
      </trkpt>
      <trkpt lat="45.7794" lon="1.86568">
        <ele>644</ele>
        <time>2013-08-09T15:08:21Z</time>
      </trkpt>
      <trkpt lat="45.77928" lon="1.8656">
        <ele>643</ele>
        <time>2013-08-09T15:08:30Z</time>
      </trkpt>
      <trkpt lat="45.77915" lon="1.86553">
        <ele>643</ele>
        <time>2013-08-09T15:08:37Z</time>
      </trkpt>
      <trkpt lat="45.779" lon="1.86533">
        <ele>643</ele>
        <time>2013-08-09T15:08:54Z</time>
      </trkpt>
      <trkpt lat="45.77893" lon="1.86515">
        <ele>645</ele>
        <time>2013-08-09T15:09:06Z</time>
      </trkpt>
      <trkpt lat="45.77885" lon="1.86495">
        <ele>643</ele>
        <time>2013-08-09T15:09:15Z</time>
      </trkpt>
      <trkpt lat="45.77878" lon="1.86475">
        <ele>643</ele>
        <time>2013-08-09T15:09:25Z</time>
      </trkpt>
      <trkpt lat="45.7787" lon="1.86455">
        <ele>643</ele>
        <time>2013-08-09T15:09:36Z</time>
      </trkpt>
      <trkpt lat="45.77863" lon="1.86435">
        <ele>642</ele>
        <time>2013-08-09T15:09:45Z</time>
      </trkpt>
      <trkpt lat="45.7785" lon="1.86423">
        <ele>640</ele>
        <time>2013-08-09T15:09:54Z</time>
      </trkpt>
      <trkpt lat="45.77835" lon="1.86408">
        <ele>641</ele>
        <time>2013-08-09T15:10:06Z</time>
      </trkpt>
      <trkpt lat="45.77818" lon="1.86393">
        <ele>646</ele>
        <time>2013-08-09T15:10:18Z</time>
      </trkpt>
      <trkpt lat="45.77805" lon="1.86383">
        <ele>647</ele>
        <time>2013-08-09T15:10:28Z</time>
      </trkpt>
      <trkpt lat="45.7779" lon="1.86378">
        <ele>647</ele>
        <time>2013-08-09T15:10:37Z</time>
      </trkpt>
      <trkpt lat="45.77775" lon="1.86378">
        <ele>645</ele>
        <time>2013-08-09T15:10:48Z</time>
      </trkpt>
      <trkpt lat="45.7776" lon="1.86383">
        <ele>646</ele>
        <time>2013-08-09T15:10:57Z</time>
      </trkpt>
      <trkpt lat="45.77748" lon="1.86393">
        <ele>647</ele>
        <time>2013-08-09T15:11:06Z</time>
      </trkpt>
      <trkpt lat="45.77733" lon="1.8641">
        <ele>650</ele>
        <time>2013-08-09T15:11:16Z</time>
      </trkpt>
      <trkpt lat="45.77723" lon="1.86428">
        <ele>651</ele>
        <time>2013-08-09T15:11:26Z</time>
      </trkpt>
      <trkpt lat="45.77715" lon="1.86445">
        <ele>652</ele>
        <time>2013-08-09T15:11:36Z</time>
      </trkpt>
      <trkpt lat="45.77713" lon="1.86465">
        <ele>652</ele>
        <time>2013-08-09T15:11:45Z</time>
      </trkpt>
      <trkpt lat="45.77715" lon="1.86485">
        <ele>651</ele>
        <time>2013-08-09T15:11:54Z</time>
      </trkpt>
      <trkpt lat="45.77715" lon="1.8651">
        <ele>651</ele>
        <time>2013-08-09T15:12:06Z</time>
      </trkpt>
      <trkpt lat="45.77718" lon="1.8653">
        <ele>650</ele>
        <time>2013-08-09T15:12:14Z</time>
      </trkpt>
      <trkpt lat="45.77718" lon="1.8655">
        <ele>647</ele>
        <time>2013-08-09T15:12:23Z</time>
      </trkpt>
      <trkpt lat="45.77718" lon="1.8657">
        <ele>648</ele>
        <time>2013-08-09T15:12:33Z</time>
      </trkpt>
      <trkpt lat="45.7772" lon="1.8659">
        <ele>647</ele>
        <time>2013-08-09T15:12:42Z</time>
      </trkpt>
      <trkpt lat="45.77725" lon="1.86613">
        <ele>647</ele>
        <time>2013-08-09T15:12:52Z</time>
      </trkpt>
      <trkpt lat="45.7773" lon="1.86633">
        <ele>647</ele>
        <time>2013-08-09T15:12:59Z</time>
      </trkpt>
      <trkpt lat="45.77733" lon="1.86653">
        <ele>646</ele>
        <time>2013-08-09T15:13:08Z</time>
      </trkpt>
      <trkpt lat="45.77735" lon="1.86673">
        <ele>646</ele>
        <time>2013-08-09T15:13:16Z</time>
      </trkpt>
      <trkpt lat="45.7774" lon="1.86693">
        <ele>645</ele>
        <time>2013-08-09T15:13:25Z</time>
      </trkpt>
      <trkpt lat="45.77743" lon="1.86713">
        <ele>645</ele>
        <time>2013-08-09T15:13:36Z</time>
      </trkpt>
      <trkpt lat="45.77745" lon="1.86733">
        <ele>644</ele>
        <time>2013-08-09T15:13:46Z</time>
      </trkpt>
      <trkpt lat="45.7775" lon="1.86753">
        <ele>646</ele>
        <time>2013-08-09T15:13:55Z</time>
      </trkpt>
      <trkpt lat="45.77765" lon="1.86755">
        <ele>646</ele>
        <time>2013-08-09T15:14:06Z</time>
      </trkpt>
      <trkpt lat="45.7778" lon="1.86758">
        <ele>646</ele>
        <time>2013-08-09T15:14:17Z</time>
      </trkpt>
      <trkpt lat="45.7779" lon="1.86773">
        <ele>646</ele>
        <time>2013-08-09T15:14:29Z</time>
      </trkpt>
      <trkpt lat="45.7779" lon="1.86793">
        <ele>645</ele>
        <time>2013-08-09T15:14:38Z</time>
      </trkpt>
      <trkpt lat="45.77778" lon="1.86808">
        <ele>644</ele>
        <time>2013-08-09T15:14:51Z</time>
      </trkpt>
      <trkpt lat="45.77768" lon="1.86823">
        <ele>643</ele>
        <time>2013-08-09T15:15:01Z</time>
      </trkpt>
      <trkpt lat="45.77768" lon="1.86843">
        <ele>642</ele>
        <time>2013-08-09T15:15:12Z</time>
      </trkpt>
      <trkpt lat="45.77768" lon="1.86863">
        <ele>640</ele>
        <time>2013-08-09T15:15:21Z</time>
      </trkpt>
      <trkpt lat="45.77755" lon="1.86875">
        <ele>639</ele>
        <time>2013-08-09T15:15:33Z</time>
      </trkpt>
      <trkpt lat="45.77743" lon="1.86883">
        <ele>638</ele>
        <time>2013-08-09T15:15:42Z</time>
      </trkpt>
      <trkpt lat="45.77728" lon="1.86888">
        <ele>639</ele>
        <time>2013-08-09T15:15:54Z</time>
      </trkpt>
      <trkpt lat="45.77715" lon="1.86895">
        <ele>638</ele>
        <time>2013-08-09T15:16:06Z</time>
      </trkpt>
      <trkpt lat="45.77715" lon="1.86915">
        <ele>638</ele>
        <time>2013-08-09T15:16:16Z</time>
      </trkpt>
      <trkpt lat="45.77718" lon="1.86935">
        <ele>639</ele>
        <time>2013-08-09T15:16:23Z</time>
      </trkpt>
      <trkpt lat="45.7772" lon="1.86955">
        <ele>639</ele>
        <time>2013-08-09T15:16:33Z</time>
      </trkpt>
      <trkpt lat="45.77723" lon="1.86978">
        <ele>639</ele>
        <time>2013-08-09T15:16:41Z</time>
      </trkpt>
      <trkpt lat="45.77723" lon="1.86998">
        <ele>639</ele>
        <time>2013-08-09T15:16:51Z</time>
      </trkpt>
      <trkpt lat="45.7773" lon="1.87015">
        <ele>639</ele>
        <time>2013-08-09T15:17:00Z</time>
      </trkpt>
      <trkpt lat="45.77735" lon="1.87035">
        <ele>639</ele>
        <time>2013-08-09T15:17:09Z</time>
      </trkpt>
      <trkpt lat="45.77743" lon="1.87053">
        <ele>639</ele>
        <time>2013-08-09T15:17:16Z</time>
      </trkpt>
      <trkpt lat="45.77753" lon="1.8707">
        <ele>640</ele>
        <time>2013-08-09T15:17:27Z</time>
      </trkpt>
      <trkpt lat="45.77768" lon="1.8708">
        <ele>640</ele>
        <time>2013-08-09T15:17:45Z</time>
      </trkpt>
      <trkpt lat="45.77783" lon="1.8708">
        <ele>640</ele>
        <time>2013-08-09T15:17:53Z</time>
      </trkpt>
      <trkpt lat="45.77798" lon="1.87083">
        <ele>641</ele>
        <time>2013-08-09T15:18:01Z</time>
      </trkpt>
      <trkpt lat="45.7782" lon="1.87085">
        <ele>640</ele>
        <time>2013-08-09T15:18:19Z</time>
      </trkpt>
      <trkpt lat="45.77835" lon="1.8709">
        <ele>642</ele>
        <time>2013-08-09T15:18:32Z</time>
      </trkpt>
      <trkpt lat="45.7785" lon="1.87085">
        <ele>643</ele>
        <time>2013-08-09T15:18:39Z</time>
      </trkpt>
      <trkpt lat="45.77865" lon="1.87083">
        <ele>644</ele>
        <time>2013-08-09T15:18:48Z</time>
      </trkpt>
      <trkpt lat="45.7788" lon="1.87083">
        <ele>648</ele>
        <time>2013-08-09T15:18:56Z</time>
      </trkpt>
      <trkpt lat="45.77898" lon="1.87078">
        <ele>651</ele>
        <time>2013-08-09T15:19:06Z</time>
      </trkpt>
      <trkpt lat="45.77913" lon="1.87078">
        <ele>658</ele>
        <time>2013-08-09T15:19:13Z</time>
      </trkpt>
      <trkpt lat="45.77928" lon="1.8708">
        <ele>657</ele>
        <time>2013-08-09T15:19:22Z</time>
      </trkpt>
      <trkpt lat="45.77943" lon="1.87078">
        <ele>655</ele>
        <time>2013-08-09T15:19:34Z</time>
      </trkpt>
      <trkpt lat="45.77958" lon="1.8708">
        <ele>655</ele>
        <time>2013-08-09T15:19:41Z</time>
      </trkpt>
      <trkpt lat="45.77975" lon="1.87093">
        <ele>652</ele>
        <time>2013-08-09T15:19:58Z</time>
      </trkpt>
      <trkpt lat="45.77988" lon="1.871">
        <ele>654</ele>
        <time>2013-08-09T15:20:05Z</time>
      </trkpt>
      <trkpt lat="45.78" lon="1.8711">
        <ele>656</ele>
        <time>2013-08-09T15:20:18Z</time>
      </trkpt>
      <trkpt lat="45.78015" lon="1.87128">
        <ele>656</ele>
        <time>2013-08-09T15:20:35Z</time>
      </trkpt>
      <trkpt lat="45.7803" lon="1.87145">
        <ele>654</ele>
        <time>2013-08-09T15:20:46Z</time>
      </trkpt>
      <trkpt lat="45.78038" lon="1.87163">
        <ele>655</ele>
        <time>2013-08-09T15:20:55Z</time>
      </trkpt>
      <trkpt lat="45.78043" lon="1.87183">
        <ele>656</ele>
        <time>2013-08-09T15:21:04Z</time>
      </trkpt>
      <trkpt lat="45.78053" lon="1.87203">
        <ele>657</ele>
        <time>2013-08-09T15:21:14Z</time>
      </trkpt>
      <trkpt lat="45.78053" lon="1.87223">
        <ele>653</ele>
        <time>2013-08-09T15:21:25Z</time>
      </trkpt>
      <trkpt lat="45.78055" lon="1.87298">
        <ele>652</ele>
        <time>2013-08-09T15:22:00Z</time>
      </trkpt>
      <trkpt lat="45.78053" lon="1.87318">
        <ele>653</ele>
        <time>2013-08-09T15:22:11Z</time>
      </trkpt>
      <trkpt lat="45.78055" lon="1.87338">
        <ele>654</ele>
        <time>2013-08-09T15:22:20Z</time>
      </trkpt>
      <trkpt lat="45.7806" lon="1.87358">
        <ele>658</ele>
        <time>2013-08-09T15:22:30Z</time>
      </trkpt>
      <trkpt lat="45.78063" lon="1.87398">
        <ele>656</ele>
        <time>2013-08-09T15:22:53Z</time>
      </trkpt>
      <trkpt lat="45.78065" lon="1.87418">
        <ele>657</ele>
        <time>2013-08-09T15:23:02Z</time>
      </trkpt>
      <trkpt lat="45.78065" lon="1.8744">
        <ele>657</ele>
        <time>2013-08-09T15:23:09Z</time>
      </trkpt>
      <trkpt lat="45.78068" lon="1.8746">
        <ele>659</ele>
        <time>2013-08-09T15:23:16Z</time>
      </trkpt>
      <trkpt lat="45.7807" lon="1.87483">
        <ele>661</ele>
        <time>2013-08-09T15:23:25Z</time>
      </trkpt>
      <trkpt lat="45.78068" lon="1.87503">
        <ele>663</ele>
        <time>2013-08-09T15:23:34Z</time>
      </trkpt>
      <trkpt lat="45.78058" lon="1.87518">
        <ele>663</ele>
        <time>2013-08-09T15:23:43Z</time>
      </trkpt>
      <trkpt lat="45.78045" lon="1.87525">
        <ele>660</ele>
        <time>2013-08-09T15:23:51Z</time>
      </trkpt>
      <trkpt lat="45.78033" lon="1.87533">
        <ele>662</ele>
        <time>2013-08-09T15:24:02Z</time>
      </trkpt>
      <trkpt lat="45.78018" lon="1.87533">
        <ele>664</ele>
        <time>2013-08-09T15:24:15Z</time>
      </trkpt>
      <trkpt lat="45.78005" lon="1.8754">
        <ele>666</ele>
        <time>2013-08-09T15:24:26Z</time>
      </trkpt>
      <trkpt lat="45.77993" lon="1.87548">
        <ele>668</ele>
        <time>2013-08-09T15:24:32Z</time>
      </trkpt>
      <trkpt lat="45.7798" lon="1.87558">
        <ele>670</ele>
        <time>2013-08-09T15:24:44Z</time>
      </trkpt>
      <trkpt lat="45.77968" lon="1.87568">
        <ele>670</ele>
        <time>2013-08-09T15:24:54Z</time>
      </trkpt>
      <trkpt lat="45.77953" lon="1.8758">
        <ele>671</ele>
        <time>2013-08-09T15:25:05Z</time>
      </trkpt>
      <trkpt lat="45.77945" lon="1.87598">
        <ele>669</ele>
        <time>2013-08-09T15:25:12Z</time>
      </trkpt>
      <trkpt lat="45.77948" lon="1.87618">
        <ele>669</ele>
        <time>2013-08-09T15:25:20Z</time>
      </trkpt>
      <trkpt lat="45.77955" lon="1.87635">
        <ele>671</ele>
        <time>2013-08-09T15:25:31Z</time>
      </trkpt>
      <trkpt lat="45.77965" lon="1.8765">
        <ele>673</ele>
        <time>2013-08-09T15:25:44Z</time>
      </trkpt>
      <trkpt lat="45.77978" lon="1.87658">
        <ele>675</ele>
        <time>2013-08-09T15:25:51Z</time>
      </trkpt>
      <trkpt lat="45.77993" lon="1.87663">
        <ele>679</ele>
        <time>2013-08-09T15:26:00Z</time>
      </trkpt>
      <trkpt lat="45.78008" lon="1.87665">
        <ele>683</ele>
        <time>2013-08-09T15:26:09Z</time>
      </trkpt>
      <trkpt lat="45.78023" lon="1.87665">
        <ele>687</ele>
        <time>2013-08-09T15:26:18Z</time>
      </trkpt>
      <trkpt lat="45.78038" lon="1.87665">
        <ele>691</ele>
        <time>2013-08-09T15:26:27Z</time>
      </trkpt>
      <trkpt lat="45.78053" lon="1.87665">
        <ele>691</ele>
        <time>2013-08-09T15:26:36Z</time>
      </trkpt>
      <trkpt lat="45.78068" lon="1.87665">
        <ele>696</ele>
        <time>2013-08-09T15:26:45Z</time>
      </trkpt>
      <trkpt lat="45.78083" lon="1.87665">
        <ele>698</ele>
        <time>2013-08-09T15:26:55Z</time>
      </trkpt>
      <trkpt lat="45.78098" lon="1.87658">
        <ele>699</ele>
        <time>2013-08-09T15:27:05Z</time>
      </trkpt>
      <trkpt lat="45.78115" lon="1.8765">
        <ele>703</ele>
        <time>2013-08-09T15:27:16Z</time>
      </trkpt>
      <trkpt lat="45.7813" lon="1.8765">
        <ele>696</ele>
        <time>2013-08-09T15:27:27Z</time>
      </trkpt>
      <trkpt lat="45.78145" lon="1.87655">
        <ele>695</ele>
        <time>2013-08-09T15:27:36Z</time>
      </trkpt>
      <trkpt lat="45.7816" lon="1.87663">
        <ele>691</ele>
        <time>2013-08-09T15:27:48Z</time>
      </trkpt>
      <trkpt lat="45.78173" lon="1.87673">
        <ele>690</ele>
        <time>2013-08-09T15:27:55Z</time>
      </trkpt>
      <trkpt lat="45.78188" lon="1.87683">
        <ele>689</ele>
        <time>2013-08-09T15:28:05Z</time>
      </trkpt>
      <trkpt lat="45.78203" lon="1.8769">
        <ele>690</ele>
        <time>2013-08-09T15:28:14Z</time>
      </trkpt>
      <trkpt lat="45.78218" lon="1.87695">
        <ele>693</ele>
        <time>2013-08-09T15:28:23Z</time>
      </trkpt>
      <trkpt lat="45.7823" lon="1.87703">
        <ele>691</ele>
        <time>2013-08-09T15:28:31Z</time>
      </trkpt>
      <trkpt lat="45.78243" lon="1.8771">
        <ele>690</ele>
        <time>2013-08-09T15:28:38Z</time>
      </trkpt>
      <trkpt lat="45.78253" lon="1.87725">
        <ele>689</ele>
        <time>2013-08-09T15:28:50Z</time>
      </trkpt>
      <trkpt lat="45.78265" lon="1.87738">
        <ele>687</ele>
        <time>2013-08-09T15:28:58Z</time>
      </trkpt>
      <trkpt lat="45.78275" lon="1.87753">
        <ele>685</ele>
        <time>2013-08-09T15:29:07Z</time>
      </trkpt>
      <trkpt lat="45.78288" lon="1.87768">
        <ele>680</ele>
        <time>2013-08-09T15:29:18Z</time>
      </trkpt>
      <trkpt lat="45.783" lon="1.87783">
        <ele>675</ele>
        <time>2013-08-09T15:29:27Z</time>
      </trkpt>
      <trkpt lat="45.78313" lon="1.878">
        <ele>672</ele>
        <time>2013-08-09T15:29:38Z</time>
      </trkpt>
      <trkpt lat="45.78323" lon="1.87818">
        <ele>667</ele>
        <time>2013-08-09T15:29:48Z</time>
      </trkpt>
      <trkpt lat="45.78333" lon="1.87835">
        <ele>667</ele>
        <time>2013-08-09T15:29:57Z</time>
      </trkpt>
      <trkpt lat="45.78335" lon="1.87855">
        <ele>665</ele>
        <time>2013-08-09T15:30:05Z</time>
      </trkpt>
      <trkpt lat="45.78338" lon="1.87875">
        <ele>664</ele>
        <time>2013-08-09T15:30:13Z</time>
      </trkpt>
      <trkpt lat="45.7834" lon="1.87895">
        <ele>662</ele>
        <time>2013-08-09T15:30:22Z</time>
      </trkpt>
      <trkpt lat="45.78338" lon="1.87915">
        <ele>659</ele>
        <time>2013-08-09T15:30:30Z</time>
      </trkpt>
      <trkpt lat="45.78333" lon="1.87935">
        <ele>658</ele>
        <time>2013-08-09T15:30:38Z</time>
      </trkpt>
      <trkpt lat="45.7833" lon="1.87955">
        <ele>657</ele>
        <time>2013-08-09T15:30:47Z</time>
      </trkpt>
      <trkpt lat="45.78328" lon="1.87975">
        <ele>657</ele>
        <time>2013-08-09T15:30:54Z</time>
      </trkpt>
      <trkpt lat="45.78325" lon="1.88">
        <ele>656</ele>
        <time>2013-08-09T15:31:03Z</time>
      </trkpt>
      <trkpt lat="45.78323" lon="1.8802">
        <ele>653</ele>
        <time>2013-08-09T15:31:11Z</time>
      </trkpt>
      <trkpt lat="45.78323" lon="1.8804">
        <ele>653</ele>
        <time>2013-08-09T15:31:21Z</time>
      </trkpt>
      <trkpt lat="45.78325" lon="1.8806">
        <ele>651</ele>
        <time>2013-08-09T15:31:28Z</time>
      </trkpt>
      <trkpt lat="45.78338" lon="1.88073">
        <ele>652</ele>
        <time>2013-08-09T15:31:38Z</time>
      </trkpt>
      <trkpt lat="45.7835" lon="1.88083">
        <ele>653</ele>
        <time>2013-08-09T15:31:48Z</time>
      </trkpt>
      <trkpt lat="45.78363" lon="1.8809">
        <ele>653</ele>
        <time>2013-08-09T15:31:57Z</time>
      </trkpt>
      <trkpt lat="45.7838" lon="1.88093">
        <ele>653</ele>
        <time>2013-08-09T15:32:14Z</time>
      </trkpt>
      <trkpt lat="45.78395" lon="1.88095">
        <ele>652</ele>
        <time>2013-08-09T15:32:21Z</time>
      </trkpt>
      <trkpt lat="45.7841" lon="1.88098">
        <ele>651</ele>
        <time>2013-08-09T15:32:28Z</time>
      </trkpt>
      <trkpt lat="45.78438" lon="1.88103">
        <ele>648</ele>
        <time>2013-08-09T15:32:45Z</time>
      </trkpt>
      <trkpt lat="45.78453" lon="1.88103">
        <ele>647</ele>
        <time>2013-08-09T15:32:53Z</time>
      </trkpt>
      <trkpt lat="45.78468" lon="1.88105">
        <ele>649</ele>
        <time>2013-08-09T15:33:03Z</time>
      </trkpt>
      <trkpt lat="45.78485" lon="1.88105">
        <ele>653</ele>
        <time>2013-08-09T15:33:13Z</time>
      </trkpt>
      <trkpt lat="45.78503" lon="1.88103">
        <ele>652</ele>
        <time>2013-08-09T15:33:26Z</time>
      </trkpt>
      <trkpt lat="45.78518" lon="1.88105">
        <ele>652</ele>
        <time>2013-08-09T15:33:35Z</time>
      </trkpt>
      <trkpt lat="45.78533" lon="1.8811">
        <ele>654</ele>
        <time>2013-08-09T15:33:44Z</time>
      </trkpt>
      <trkpt lat="45.78543" lon="1.88095">
        <ele>653</ele>
        <time>2013-08-09T15:33:57Z</time>
      </trkpt>
      <trkpt lat="45.78533" lon="1.8808">
        <ele>652</ele>
        <time>2013-08-09T15:34:07Z</time>
      </trkpt>
      <trkpt lat="45.78538" lon="1.8806">
        <ele>652</ele>
        <time>2013-08-09T15:34:19Z</time>
      </trkpt>
      <trkpt lat="45.78553" lon="1.88058">
        <ele>653</ele>
        <time>2013-08-09T15:34:31Z</time>
      </trkpt>
      <trkpt lat="45.78568" lon="1.88058">
        <ele>652</ele>
        <time>2013-08-09T15:34:41Z</time>
      </trkpt>
      <trkpt lat="45.7858" lon="1.88065">
        <ele>651</ele>
        <time>2013-08-09T15:34:51Z</time>
      </trkpt>
      <trkpt lat="45.7861" lon="1.8808">
        <ele>653</ele>
        <time>2013-08-09T15:35:08Z</time>
      </trkpt>
      <trkpt lat="45.7863" lon="1.8809">
        <ele>655</ele>
        <time>2013-08-09T15:35:19Z</time>
      </trkpt>
      <trkpt lat="45.78643" lon="1.88098">
        <ele>656</ele>
        <time>2013-08-09T15:35:27Z</time>
      </trkpt>
      <trkpt lat="45.78655" lon="1.8811">
        <ele>656</ele>
        <time>2013-08-09T15:35:38Z</time>
      </trkpt>
      <trkpt lat="45.78668" lon="1.88118">
        <ele>657</ele>
        <time>2013-08-09T15:35:45Z</time>
      </trkpt>
      <trkpt lat="45.7868" lon="1.88128">
        <ele>658</ele>
        <time>2013-08-09T15:35:52Z</time>
      </trkpt>
      <trkpt lat="45.78693" lon="1.88135">
        <ele>658</ele>
        <time>2013-08-09T15:35:59Z</time>
      </trkpt>
      <trkpt lat="45.78708" lon="1.8814">
        <ele>655</ele>
        <time>2013-08-09T15:36:11Z</time>
      </trkpt>
      <trkpt lat="45.78725" lon="1.88145">
        <ele>653</ele>
        <time>2013-08-09T15:36:21Z</time>
      </trkpt>
      <trkpt lat="45.78738" lon="1.88158">
        <ele>649</ele>
        <time>2013-08-09T15:36:33Z</time>
      </trkpt>
      <trkpt lat="45.78753" lon="1.88165">
        <ele>649</ele>
        <time>2013-08-09T15:36:44Z</time>
      </trkpt>
      <trkpt lat="45.78765" lon="1.88175">
        <ele>651</ele>
        <time>2013-08-09T15:36:53Z</time>
      </trkpt>
      <trkpt lat="45.78778" lon="1.88185">
        <ele>654</ele>
        <time>2013-08-09T15:37:00Z</time>
      </trkpt>
      <trkpt lat="45.78793" lon="1.88195">
        <ele>652</ele>
        <time>2013-08-09T15:37:09Z</time>
      </trkpt>
      <trkpt lat="45.78805" lon="1.88205">
        <ele>652</ele>
        <time>2013-08-09T15:37:14Z</time>
      </trkpt>
      <trkpt lat="45.78818" lon="1.88213">
        <ele>651</ele>
        <time>2013-08-09T15:37:23Z</time>
      </trkpt>
      <trkpt lat="45.78833" lon="1.88218">
        <ele>651</ele>
        <time>2013-08-09T15:37:30Z</time>
      </trkpt>
      <trkpt lat="45.78845" lon="1.88225">
        <ele>652</ele>
        <time>2013-08-09T15:37:40Z</time>
      </trkpt>
      <trkpt lat="45.7886" lon="1.8823">
        <ele>653</ele>
        <time>2013-08-09T15:37:49Z</time>
      </trkpt>
      <trkpt lat="45.7888" lon="1.88233">
        <ele>651</ele>
        <time>2013-08-09T15:38:02Z</time>
      </trkpt>
      <trkpt lat="45.78893" lon="1.8824">
        <ele>652</ele>
        <time>2013-08-09T15:38:09Z</time>
      </trkpt>
      <trkpt lat="45.78908" lon="1.88245">
        <ele>651</ele>
        <time>2013-08-09T15:38:19Z</time>
      </trkpt>
      <trkpt lat="45.7892" lon="1.88253">
        <ele>651</ele>
        <time>2013-08-09T15:38:26Z</time>
      </trkpt>
      <trkpt lat="45.78933" lon="1.8827">
        <ele>652</ele>
        <time>2013-08-09T15:38:44Z</time>
      </trkpt>
      <trkpt lat="45.78948" lon="1.88278">
        <ele>651</ele>
        <time>2013-08-09T15:39:01Z</time>
      </trkpt>
      <trkpt lat="45.78963" lon="1.88283">
        <ele>652</ele>
        <time>2013-08-09T15:39:10Z</time>
      </trkpt>
      <trkpt lat="45.7897" lon="1.883">
        <ele>652</ele>
        <time>2013-08-09T15:39:20Z</time>
      </trkpt>
      <trkpt lat="45.78983" lon="1.88308">
        <ele>650</ele>
        <time>2013-08-09T15:39:28Z</time>
      </trkpt>
      <trkpt lat="45.78983" lon="1.88328">
        <ele>647</ele>
        <time>2013-08-09T15:39:38Z</time>
      </trkpt>
      <trkpt lat="45.78983" lon="1.88348">
        <ele>646</ele>
        <time>2013-08-09T15:39:47Z</time>
      </trkpt>
      <trkpt lat="45.78983" lon="1.88368">
        <ele>646</ele>
        <time>2013-08-09T15:39:58Z</time>
      </trkpt>
      <trkpt lat="45.78978" lon="1.88388">
        <ele>646</ele>
        <time>2013-08-09T15:40:06Z</time>
      </trkpt>
      <trkpt lat="45.78975" lon="1.88408">
        <ele>644</ele>
        <time>2013-08-09T15:40:15Z</time>
      </trkpt>
      <trkpt lat="45.78973" lon="1.88428">
        <ele>643</ele>
        <time>2013-08-09T15:40:25Z</time>
      </trkpt>
      <trkpt lat="45.7897" lon="1.8845">
        <ele>642</ele>
        <time>2013-08-09T15:40:34Z</time>
      </trkpt>
      <trkpt lat="45.7897" lon="1.8847">
        <ele>642</ele>
        <time>2013-08-09T15:40:43Z</time>
      </trkpt>
      <trkpt lat="45.78968" lon="1.8849">
        <ele>642</ele>
        <time>2013-08-09T15:40:52Z</time>
      </trkpt>
      <trkpt lat="45.78965" lon="1.8851">
        <ele>642</ele>
        <time>2013-08-09T15:41:00Z</time>
      </trkpt>
      <trkpt lat="45.78963" lon="1.8853">
        <ele>641</ele>
        <time>2013-08-09T15:41:11Z</time>
      </trkpt>
      <trkpt lat="45.7896" lon="1.8855">
        <ele>640</ele>
        <time>2013-08-09T15:41:20Z</time>
      </trkpt>
      <trkpt lat="45.78955" lon="1.8859">
        <ele>639</ele>
        <time>2013-08-09T15:41:38Z</time>
      </trkpt>
      <trkpt lat="45.78953" lon="1.8861">
        <ele>638</ele>
        <time>2013-08-09T15:41:45Z</time>
      </trkpt>
      <trkpt lat="45.78953" lon="1.8863">
        <ele>637</ele>
        <time>2013-08-09T15:41:54Z</time>
      </trkpt>
      <trkpt lat="45.7895" lon="1.8865">
        <ele>638</ele>
        <time>2013-08-09T15:42:01Z</time>
      </trkpt>
      <trkpt lat="45.7895" lon="1.8867">
        <ele>640</ele>
        <time>2013-08-09T15:42:09Z</time>
      </trkpt>
      <trkpt lat="45.78948" lon="1.8869">
        <ele>640</ele>
        <time>2013-08-09T15:42:19Z</time>
      </trkpt>
      <trkpt lat="45.78943" lon="1.8871">
        <ele>641</ele>
        <time>2013-08-09T15:42:27Z</time>
      </trkpt>
      <trkpt lat="45.7894" lon="1.8873">
        <ele>641</ele>
        <time>2013-08-09T15:42:34Z</time>
      </trkpt>
      <trkpt lat="45.78945" lon="1.8875">
        <ele>641</ele>
        <time>2013-08-09T15:42:43Z</time>
      </trkpt>
      <trkpt lat="45.78958" lon="1.88765">
        <ele>639</ele>
        <time>2013-08-09T15:42:54Z</time>
      </trkpt>
      <trkpt lat="45.78968" lon="1.8878">
        <ele>638</ele>
        <time>2013-08-09T15:43:05Z</time>
      </trkpt>
      <trkpt lat="45.78973" lon="1.888">
        <ele>637</ele>
        <time>2013-08-09T15:43:15Z</time>
      </trkpt>
      <trkpt lat="45.78973" lon="1.8882">
        <ele>638</ele>
        <time>2013-08-09T15:43:23Z</time>
      </trkpt>
      <trkpt lat="45.7897" lon="1.8884">
        <ele>637</ele>
        <time>2013-08-09T15:43:36Z</time>
      </trkpt>
      <trkpt lat="45.78963" lon="1.88858">
        <ele>636</ele>
        <time>2013-08-09T15:43:46Z</time>
      </trkpt>
      <trkpt lat="45.7895" lon="1.88868">
        <ele>636</ele>
        <time>2013-08-09T15:43:55Z</time>
      </trkpt>
      <trkpt lat="45.78938" lon="1.88875">
        <ele>636</ele>
        <time>2013-08-09T15:44:04Z</time>
      </trkpt>
      <trkpt lat="45.78928" lon="1.88893">
        <ele>637</ele>
        <time>2013-08-09T15:44:10Z</time>
      </trkpt>
      <trkpt lat="45.78923" lon="1.88913">
        <ele>640</ele>
        <time>2013-08-09T15:44:18Z</time>
      </trkpt>
      <trkpt lat="45.7892" lon="1.88935">
        <ele>640</ele>
        <time>2013-08-09T15:44:36Z</time>
      </trkpt>
      <trkpt lat="45.78923" lon="1.88955">
        <ele>639</ele>
        <time>2013-08-09T15:44:43Z</time>
      </trkpt>
      <trkpt lat="45.78938" lon="1.88955">
        <ele>639</ele>
        <time>2013-08-09T15:45:06Z</time>
      </trkpt>
      <trkpt lat="45.7895" lon="1.88948">
        <ele>640</ele>
        <time>2013-08-09T15:45:14Z</time>
      </trkpt>
      <trkpt lat="45.78965" lon="1.88943">
        <ele>641</ele>
        <time>2013-08-09T15:45:23Z</time>
      </trkpt>
      <trkpt lat="45.78995" lon="1.88935">
        <ele>645</ele>
        <time>2013-08-09T15:45:42Z</time>
      </trkpt>
      <trkpt lat="45.7901" lon="1.88933">
        <ele>649</ele>
        <time>2013-08-09T15:45:52Z</time>
      </trkpt>
      <trkpt lat="45.79025" lon="1.8893">
        <ele>650</ele>
        <time>2013-08-09T15:46:00Z</time>
      </trkpt>
      <trkpt lat="45.7904" lon="1.88925">
        <ele>651</ele>
        <time>2013-08-09T15:46:12Z</time>
      </trkpt>
      <trkpt lat="45.79055" lon="1.88925">
        <ele>652</ele>
        <time>2013-08-09T15:46:21Z</time>
      </trkpt>
      <trkpt lat="45.7907" lon="1.88925">
        <ele>654</ele>
        <time>2013-08-09T15:46:30Z</time>
      </trkpt>
      <trkpt lat="45.79083" lon="1.88935">
        <ele>654</ele>
        <time>2013-08-09T15:46:38Z</time>
      </trkpt>
      <trkpt lat="45.79088" lon="1.88955">
        <ele>650</ele>
        <time>2013-08-09T15:46:49Z</time>
      </trkpt>
      <trkpt lat="45.79098" lon="1.88973">
        <ele>653</ele>
        <time>2013-08-09T15:46:58Z</time>
      </trkpt>
      <trkpt lat="45.79105" lon="1.8899">
        <ele>656</ele>
        <time>2013-08-09T15:47:07Z</time>
      </trkpt>
      <trkpt lat="45.79113" lon="1.8901">
        <ele>660</ele>
        <time>2013-08-09T15:47:17Z</time>
      </trkpt>
      <trkpt lat="45.7912" lon="1.89028">
        <ele>660</ele>
        <time>2013-08-09T15:47:26Z</time>
      </trkpt>
      <trkpt lat="45.79128" lon="1.89045">
        <ele>662</ele>
        <time>2013-08-09T15:47:34Z</time>
      </trkpt>
      <trkpt lat="45.79135" lon="1.89063">
        <ele>665</ele>
        <time>2013-08-09T15:47:43Z</time>
      </trkpt>
      <trkpt lat="45.79145" lon="1.89078">
        <ele>668</ele>
        <time>2013-08-09T15:47:50Z</time>
      </trkpt>
      <trkpt lat="45.79153" lon="1.89095">
        <ele>669</ele>
        <time>2013-08-09T15:47:58Z</time>
      </trkpt>
      <trkpt lat="45.79158" lon="1.89115">
        <ele>668</ele>
        <time>2013-08-09T15:48:08Z</time>
      </trkpt>
      <trkpt lat="45.79163" lon="1.89135">
        <ele>668</ele>
        <time>2013-08-09T15:48:16Z</time>
      </trkpt>
      <trkpt lat="45.79158" lon="1.89173">
        <ele>662</ele>
        <time>2013-08-09T15:48:33Z</time>
      </trkpt>
      <trkpt lat="45.7915" lon="1.8919">
        <ele>659</ele>
        <time>2013-08-09T15:48:41Z</time>
      </trkpt>
      <trkpt lat="45.79143" lon="1.89208">
        <ele>660</ele>
        <time>2013-08-09T15:48:50Z</time>
      </trkpt>
      <trkpt lat="45.7913" lon="1.89223">
        <ele>660</ele>
        <time>2013-08-09T15:48:58Z</time>
      </trkpt>
      <trkpt lat="45.79118" lon="1.89233">
        <ele>657</ele>
        <time>2013-08-09T15:49:06Z</time>
      </trkpt>
      <trkpt lat="45.7911" lon="1.8925">
        <ele>652</ele>
        <time>2013-08-09T15:49:16Z</time>
      </trkpt>
      <trkpt lat="45.79105" lon="1.8927">
        <ele>649</ele>
        <time>2013-08-09T15:49:24Z</time>
      </trkpt>
      <trkpt lat="45.79103" lon="1.8929">
        <ele>648</ele>
        <time>2013-08-09T15:49:32Z</time>
      </trkpt>
      <trkpt lat="45.79108" lon="1.8931">
        <ele>648</ele>
        <time>2013-08-09T15:49:40Z</time>
      </trkpt>
      <trkpt lat="45.7911" lon="1.8933">
        <ele>645</ele>
        <time>2013-08-09T15:49:50Z</time>
      </trkpt>
      <trkpt lat="45.79105" lon="1.8935">
        <ele>643</ele>
        <time>2013-08-09T15:49:58Z</time>
      </trkpt>
      <trkpt lat="45.79105" lon="1.8937">
        <ele>641</ele>
        <time>2013-08-09T15:50:10Z</time>
      </trkpt>
      <trkpt lat="45.791" lon="1.8939">
        <ele>640</ele>
        <time>2013-08-09T15:50:20Z</time>
      </trkpt>
      <trkpt lat="45.79105" lon="1.8941">
        <ele>637</ele>
        <time>2013-08-09T15:50:31Z</time>
      </trkpt>
      <trkpt lat="45.7911" lon="1.8943">
        <ele>631</ele>
        <time>2013-08-09T15:50:55Z</time>
      </trkpt>
      <trkpt lat="45.7911" lon="1.8945">
        <ele>632</ele>
        <time>2013-08-09T15:51:12Z</time>
      </trkpt>
      <trkpt lat="45.79095" lon="1.89453">
        <ele>635</ele>
        <time>2013-08-09T15:51:25Z</time>
      </trkpt>
      <trkpt lat="45.79095" lon="1.89473">
        <ele>636</ele>
        <time>2013-08-09T15:52:03Z</time>
      </trkpt>
      <trkpt lat="45.79095" lon="1.89493">
        <ele>635</ele>
        <time>2013-08-09T15:52:12Z</time>
      </trkpt>
      <trkpt lat="45.79088" lon="1.8951">
        <ele>636</ele>
        <time>2013-08-09T15:52:21Z</time>
      </trkpt>
      <trkpt lat="45.79078" lon="1.89525">
        <ele>637</ele>
        <time>2013-08-09T15:52:31Z</time>
      </trkpt>
      <trkpt lat="45.79068" lon="1.89545">
        <ele>638</ele>
        <time>2013-08-09T15:52:42Z</time>
      </trkpt>
      <trkpt lat="45.7906" lon="1.89563">
        <ele>639</ele>
        <time>2013-08-09T15:52:54Z</time>
      </trkpt>
      <trkpt lat="45.79048" lon="1.89573">
        <ele>637</ele>
        <time>2013-08-09T15:53:05Z</time>
      </trkpt>
      <trkpt lat="45.79035" lon="1.89583">
        <ele>637</ele>
        <time>2013-08-09T15:53:15Z</time>
      </trkpt>
      <trkpt lat="45.79023" lon="1.89595">
        <ele>637</ele>
        <time>2013-08-09T15:53:26Z</time>
      </trkpt>
      <trkpt lat="45.79015" lon="1.89613">
        <ele>637</ele>
        <time>2013-08-09T15:53:36Z</time>
      </trkpt>
      <trkpt lat="45.79" lon="1.89643">
        <ele>639</ele>
        <time>2013-08-09T15:53:53Z</time>
      </trkpt>
      <trkpt lat="45.78995" lon="1.89663">
        <ele>640</ele>
        <time>2013-08-09T15:54:03Z</time>
      </trkpt>
      <trkpt lat="45.78988" lon="1.8968">
        <ele>640</ele>
        <time>2013-08-09T15:54:13Z</time>
      </trkpt>
      <trkpt lat="45.78988" lon="1.897">
        <ele>641</ele>
        <time>2013-08-09T15:54:26Z</time>
      </trkpt>
      <trkpt lat="45.78998" lon="1.89715">
        <ele>640</ele>
        <time>2013-08-09T15:54:38Z</time>
      </trkpt>
      <trkpt lat="45.79008" lon="1.89733">
        <ele>640</ele>
        <time>2013-08-09T15:54:48Z</time>
      </trkpt>
      <trkpt lat="45.79008" lon="1.89753">
        <ele>639</ele>
        <time>2013-08-09T15:54:58Z</time>
      </trkpt>
      <trkpt lat="45.79008" lon="1.89773">
        <ele>641</ele>
        <time>2013-08-09T15:55:06Z</time>
      </trkpt>
      <trkpt lat="45.7901" lon="1.89795">
        <ele>642</ele>
        <time>2013-08-09T15:55:17Z</time>
      </trkpt>
      <trkpt lat="45.7901" lon="1.89815">
        <ele>643</ele>
        <time>2013-08-09T15:55:24Z</time>
      </trkpt>
      <trkpt lat="45.7901" lon="1.89835">
        <ele>643</ele>
        <time>2013-08-09T15:55:33Z</time>
      </trkpt>
      <trkpt lat="45.7901" lon="1.89855">
        <ele>644</ele>
        <time>2013-08-09T15:55:40Z</time>
      </trkpt>
      <trkpt lat="45.79005" lon="1.89875">
        <ele>644</ele>
        <time>2013-08-09T15:55:51Z</time>
      </trkpt>
      <trkpt lat="45.78993" lon="1.89888">
        <ele>643</ele>
        <time>2013-08-09T15:56:01Z</time>
      </trkpt>
      <trkpt lat="45.78978" lon="1.89885">
        <ele>641</ele>
        <time>2013-08-09T15:56:10Z</time>
      </trkpt>
      <trkpt lat="45.7896" lon="1.8988">
        <ele>643</ele>
        <time>2013-08-09T15:56:22Z</time>
      </trkpt>
      <trkpt lat="45.78945" lon="1.89885">
        <ele>645</ele>
        <time>2013-08-09T15:56:32Z</time>
      </trkpt>
      <trkpt lat="45.7893" lon="1.89895">
        <ele>645</ele>
        <time>2013-08-09T15:56:45Z</time>
      </trkpt>
      <trkpt lat="45.78918" lon="1.89908">
        <ele>646</ele>
        <time>2013-08-09T15:56:55Z</time>
      </trkpt>
      <trkpt lat="45.78908" lon="1.89923">
        <ele>646</ele>
        <time>2013-08-09T15:57:04Z</time>
      </trkpt>
      <trkpt lat="45.78895" lon="1.89935">
        <ele>647</ele>
        <time>2013-08-09T15:57:15Z</time>
      </trkpt>
      <trkpt lat="45.78883" lon="1.89945">
        <ele>646</ele>
        <time>2013-08-09T15:57:23Z</time>
      </trkpt>
      <trkpt lat="45.7886" lon="1.8996">
        <ele>645</ele>
        <time>2013-08-09T15:57:40Z</time>
      </trkpt>
      <trkpt lat="45.7885" lon="1.89975">
        <ele>646</ele>
        <time>2013-08-09T15:57:52Z</time>
      </trkpt>
      <trkpt lat="45.7884" lon="1.8999">
        <ele>647</ele>
        <time>2013-08-09T15:58:04Z</time>
      </trkpt>
      <trkpt lat="45.78838" lon="1.9001">
        <ele>646</ele>
        <time>2013-08-09T15:58:12Z</time>
      </trkpt>
      <trkpt lat="45.78833" lon="1.9003">
        <ele>646</ele>
        <time>2013-08-09T15:58:19Z</time>
      </trkpt>
      <trkpt lat="45.78825" lon="1.9005">
        <ele>648</ele>
        <time>2013-08-09T15:58:36Z</time>
      </trkpt>
      <trkpt lat="45.78813" lon="1.90065">
        <ele>649</ele>
        <time>2013-08-09T15:58:46Z</time>
      </trkpt>
      <trkpt lat="45.788" lon="1.90078">
        <ele>647</ele>
        <time>2013-08-09T15:58:54Z</time>
      </trkpt>
      <trkpt lat="45.7878" lon="1.90098">
        <ele>649</ele>
        <time>2013-08-09T15:59:11Z</time>
      </trkpt>
      <trkpt lat="45.78768" lon="1.9011">
        <ele>649</ele>
        <time>2013-08-09T15:59:20Z</time>
      </trkpt>
      <trkpt lat="45.78755" lon="1.9013">
        <ele>647</ele>
        <time>2013-08-09T15:59:31Z</time>
      </trkpt>
      <trkpt lat="45.78748" lon="1.90148">
        <ele>642</ele>
        <time>2013-08-09T15:59:37Z</time>
      </trkpt>
      <trkpt lat="45.78743" lon="1.90168">
        <ele>641</ele>
        <time>2013-08-09T15:59:47Z</time>
      </trkpt>
      <trkpt lat="45.78735" lon="1.90185">
        <ele>641</ele>
        <time>2013-08-09T15:59:55Z</time>
      </trkpt>
      <trkpt lat="45.78725" lon="1.902">
        <ele>642</ele>
        <time>2013-08-09T16:00:06Z</time>
      </trkpt>
      <trkpt lat="45.78713" lon="1.9023">
        <ele>642</ele>
        <time>2013-08-09T16:00:23Z</time>
      </trkpt>
      <trkpt lat="45.78713" lon="1.9025">
        <ele>642</ele>
        <time>2013-08-09T16:00:54Z</time>
      </trkpt>
      <trkpt lat="45.78718" lon="1.9027">
        <ele>642</ele>
        <time>2013-08-09T16:01:06Z</time>
      </trkpt>
      <trkpt lat="45.78713" lon="1.9029">
        <ele>641</ele>
        <time>2013-08-09T16:01:15Z</time>
      </trkpt>
      <trkpt lat="45.7871" lon="1.9031">
        <ele>642</ele>
        <time>2013-08-09T16:01:23Z</time>
      </trkpt>
      <trkpt lat="45.78708" lon="1.9033">
        <ele>644</ele>
        <time>2013-08-09T16:01:33Z</time>
      </trkpt>
      <trkpt lat="45.78698" lon="1.90345">
        <ele>646</ele>
        <time>2013-08-09T16:01:42Z</time>
      </trkpt>
      <trkpt lat="45.78685" lon="1.90358">
        <ele>649</ele>
        <time>2013-08-09T16:01:55Z</time>
      </trkpt>
      <trkpt lat="45.78683" lon="1.90378">
        <ele>650</ele>
        <time>2013-08-09T16:02:02Z</time>
      </trkpt>
      <trkpt lat="45.78688" lon="1.90398">
        <ele>653</ele>
        <time>2013-08-09T16:02:12Z</time>
      </trkpt>
      <trkpt lat="45.78703" lon="1.90405">
        <ele>655</ele>
        <time>2013-08-09T16:02:19Z</time>
      </trkpt>
      <trkpt lat="45.78718" lon="1.90405">
        <ele>657</ele>
        <time>2013-08-09T16:02:32Z</time>
      </trkpt>
      <trkpt lat="45.78725" lon="1.90388">
        <ele>656</ele>
        <time>2013-08-09T16:02:43Z</time>
      </trkpt>
      <trkpt lat="45.78738" lon="1.9038">
        <ele>658</ele>
        <time>2013-08-09T16:02:51Z</time>
      </trkpt>
      <trkpt lat="45.78753" lon="1.90383">
        <ele>658</ele>
        <time>2013-08-09T16:03:00Z</time>
      </trkpt>
      <trkpt lat="45.78768" lon="1.90388">
        <ele>657</ele>
        <time>2013-08-09T16:03:11Z</time>
      </trkpt>
      <trkpt lat="45.7878" lon="1.90395">
        <ele>655</ele>
        <time>2013-08-09T16:03:20Z</time>
      </trkpt>
      <trkpt lat="45.78793" lon="1.90405">
        <ele>655</ele>
        <time>2013-08-09T16:03:28Z</time>
      </trkpt>
      <trkpt lat="45.78803" lon="1.90423">
        <ele>652</ele>
        <time>2013-08-09T16:03:38Z</time>
      </trkpt>
      <trkpt lat="45.78808" lon="1.90443">
        <ele>652</ele>
        <time>2013-08-09T16:03:48Z</time>
      </trkpt>
      <trkpt lat="45.7882" lon="1.90455">
        <ele>652</ele>
        <time>2013-08-09T16:03:57Z</time>
      </trkpt>
      <trkpt lat="45.7883" lon="1.9047">
        <ele>653</ele>
        <time>2013-08-09T16:04:04Z</time>
      </trkpt>
      <trkpt lat="45.78843" lon="1.90485">
        <ele>654</ele>
        <time>2013-08-09T16:04:16Z</time>
      </trkpt>
      <trkpt lat="45.78853" lon="1.90505">
        <ele>654</ele>
        <time>2013-08-09T16:04:24Z</time>
      </trkpt>
      <trkpt lat="45.78865" lon="1.90523">
        <ele>657</ele>
        <time>2013-08-09T16:04:35Z</time>
      </trkpt>
      <trkpt lat="45.78875" lon="1.90538">
        <ele>656</ele>
        <time>2013-08-09T16:04:44Z</time>
      </trkpt>
      <trkpt lat="45.7888" lon="1.90558">
        <ele>658</ele>
        <time>2013-08-09T16:04:56Z</time>
      </trkpt>
      <trkpt lat="45.78893" lon="1.90575">
        <ele>659</ele>
        <time>2013-08-09T16:05:09Z</time>
      </trkpt>
      <trkpt lat="45.78903" lon="1.90593">
        <ele>656</ele>
        <time>2013-08-09T16:05:18Z</time>
      </trkpt>
      <trkpt lat="45.78915" lon="1.90605">
        <ele>654</ele>
        <time>2013-08-09T16:05:26Z</time>
      </trkpt>
      <trkpt lat="45.78928" lon="1.90618">
        <ele>655</ele>
        <time>2013-08-09T16:05:34Z</time>
      </trkpt>
      <trkpt lat="45.7894" lon="1.90628">
        <ele>656</ele>
        <time>2013-08-09T16:05:40Z</time>
      </trkpt>
      <trkpt lat="45.78953" lon="1.9064">
        <ele>657</ele>
        <time>2013-08-09T16:05:53Z</time>
      </trkpt>
      <trkpt lat="45.78963" lon="1.90655">
        <ele>656</ele>
        <time>2013-08-09T16:06:01Z</time>
      </trkpt>
      <trkpt lat="45.7897" lon="1.90673">
        <ele>653</ele>
        <time>2013-08-09T16:06:09Z</time>
      </trkpt>
      <trkpt lat="45.78975" lon="1.90693">
        <ele>653</ele>
        <time>2013-08-09T16:06:17Z</time>
      </trkpt>
      <trkpt lat="45.78985" lon="1.90708">
        <ele>659</ele>
        <time>2013-08-09T16:06:27Z</time>
      </trkpt>
      <trkpt lat="45.78998" lon="1.90715">
        <ele>658</ele>
        <time>2013-08-09T16:06:36Z</time>
      </trkpt>
      <trkpt lat="45.79015" lon="1.90735">
        <ele>663</ele>
        <time>2013-08-09T16:07:09Z</time>
      </trkpt>
      <trkpt lat="45.79013" lon="1.90755">
        <ele>660</ele>
        <time>2013-08-09T16:07:40Z</time>
      </trkpt>
      <trkpt lat="45.79025" lon="1.90768">
        <ele>662</ele>
        <time>2013-08-09T16:08:28Z</time>
      </trkpt>
      <trkpt lat="45.79038" lon="1.90778">
        <ele>661</ele>
        <time>2013-08-09T16:08:38Z</time>
      </trkpt>
      <trkpt lat="45.79048" lon="1.90795">
        <ele>660</ele>
        <time>2013-08-09T16:08:46Z</time>
      </trkpt>
      <trkpt lat="45.7906" lon="1.90808">
        <ele>657</ele>
        <time>2013-08-09T16:08:54Z</time>
      </trkpt>
      <trkpt lat="45.79068" lon="1.90825">
        <ele>655</ele>
        <time>2013-08-09T16:09:06Z</time>
      </trkpt>
      <trkpt lat="45.79083" lon="1.90825">
        <ele>653</ele>
        <time>2013-08-09T16:09:14Z</time>
      </trkpt>
      <trkpt lat="45.791" lon="1.9082">
        <ele>652</ele>
        <time>2013-08-09T16:09:23Z</time>
      </trkpt>
      <trkpt lat="45.79108" lon="1.908">
        <ele>652</ele>
        <time>2013-08-09T16:09:33Z</time>
      </trkpt>
      <trkpt lat="45.79123" lon="1.908">
        <ele>653</ele>
        <time>2013-08-09T16:09:45Z</time>
      </trkpt>
      <trkpt lat="45.79138" lon="1.908">
        <ele>651</ele>
        <time>2013-08-09T16:09:56Z</time>
      </trkpt>
      <trkpt lat="45.79153" lon="1.908">
        <ele>652</ele>
        <time>2013-08-09T16:10:04Z</time>
      </trkpt>
      <trkpt lat="45.79168" lon="1.908">
        <ele>653</ele>
        <time>2013-08-09T16:10:15Z</time>
      </trkpt>
      <trkpt lat="45.7918" lon="1.90785">
        <ele>655</ele>
        <time>2013-08-09T16:10:25Z</time>
      </trkpt>
      <trkpt lat="45.79183" lon="1.90765">
        <ele>655</ele>
        <time>2013-08-09T16:10:33Z</time>
      </trkpt>
      <trkpt lat="45.7919" lon="1.90748">
        <ele>653</ele>
        <time>2013-08-09T16:10:41Z</time>
      </trkpt>
      <trkpt lat="45.79205" lon="1.90745">
        <ele>652</ele>
        <time>2013-08-09T16:10:50Z</time>
      </trkpt>
      <trkpt lat="45.7922" lon="1.90743">
        <ele>652</ele>
        <time>2013-08-09T16:11:02Z</time>
      </trkpt>
      <trkpt lat="45.79235" lon="1.90745">
        <ele>653</ele>
        <time>2013-08-09T16:11:15Z</time>
      </trkpt>
      <trkpt lat="45.7925" lon="1.90743">
        <ele>653</ele>
        <time>2013-08-09T16:11:27Z</time>
      </trkpt>
      <trkpt lat="45.79265" lon="1.90743">
        <ele>649</ele>
        <time>2013-08-09T16:11:33Z</time>
      </trkpt>
      <trkpt lat="45.7928" lon="1.90748">
        <ele>649</ele>
        <time>2013-08-09T16:11:40Z</time>
      </trkpt>
      <trkpt lat="45.79295" lon="1.9075">
        <ele>651</ele>
        <time>2013-08-09T16:11:48Z</time>
      </trkpt>
      <trkpt lat="45.79308" lon="1.90758">
        <ele>651</ele>
        <time>2013-08-09T16:11:59Z</time>
      </trkpt>
      <trkpt lat="45.7931" lon="1.90778">
        <ele>652</ele>
        <time>2013-08-09T16:12:10Z</time>
      </trkpt>
      <trkpt lat="45.79313" lon="1.90798">
        <ele>651</ele>
        <time>2013-08-09T16:12:18Z</time>
      </trkpt>
      <trkpt lat="45.79313" lon="1.90818">
        <ele>655</ele>
        <time>2013-08-09T16:12:27Z</time>
      </trkpt>
      <trkpt lat="45.79313" lon="1.90838">
        <ele>654</ele>
        <time>2013-08-09T16:12:36Z</time>
      </trkpt>
      <trkpt lat="45.79315" lon="1.90858">
        <ele>655</ele>
        <time>2013-08-09T16:12:44Z</time>
      </trkpt>
      <trkpt lat="45.79315" lon="1.90878">
        <ele>659</ele>
        <time>2013-08-09T16:12:53Z</time>
      </trkpt>
      <trkpt lat="45.79315" lon="1.90898">
        <ele>660</ele>
        <time>2013-08-09T16:13:04Z</time>
      </trkpt>
      <trkpt lat="45.7931" lon="1.90918">
        <ele>661</ele>
        <time>2013-08-09T16:13:11Z</time>
      </trkpt>
      <trkpt lat="45.7931" lon="1.90938">
        <ele>664</ele>
        <time>2013-08-09T16:13:19Z</time>
      </trkpt>
      <trkpt lat="45.7931" lon="1.90958">
        <ele>666</ele>
        <time>2013-08-09T16:13:30Z</time>
      </trkpt>
      <trkpt lat="45.79303" lon="1.90975">
        <ele>665</ele>
        <time>2013-08-09T16:13:39Z</time>
      </trkpt>
      <trkpt lat="45.79295" lon="1.90993">
        <ele>666</ele>
        <time>2013-08-09T16:13:49Z</time>
      </trkpt>
      <trkpt lat="45.7929" lon="1.91013">
        <ele>668</ele>
        <time>2013-08-09T16:13:57Z</time>
      </trkpt>
      <trkpt lat="45.7928" lon="1.9103">
        <ele>669</ele>
        <time>2013-08-09T16:14:23Z</time>
      </trkpt>
      <trkpt lat="45.7927" lon="1.91045">
        <ele>671</ele>
        <time>2013-08-09T16:14:57Z</time>
      </trkpt>
      <trkpt lat="45.79258" lon="1.91058">
        <ele>670</ele>
        <time>2013-08-09T16:15:05Z</time>
      </trkpt>
      <trkpt lat="45.79245" lon="1.9107">
        <ele>671</ele>
        <time>2013-08-09T16:15:14Z</time>
      </trkpt>
      <trkpt lat="45.79233" lon="1.91083">
        <ele>673</ele>
        <time>2013-08-09T16:15:23Z</time>
      </trkpt>
      <trkpt lat="45.7922" lon="1.91098">
        <ele>673</ele>
        <time>2013-08-09T16:15:33Z</time>
      </trkpt>
      <trkpt lat="45.79208" lon="1.91105">
        <ele>673</ele>
        <time>2013-08-09T16:15:44Z</time>
      </trkpt>
      <trkpt lat="45.79195" lon="1.91115">
        <ele>674</ele>
        <time>2013-08-09T16:15:52Z</time>
      </trkpt>
      <trkpt lat="45.79183" lon="1.9113">
        <ele>675</ele>
        <time>2013-08-09T16:16:03Z</time>
      </trkpt>
      <trkpt lat="45.79173" lon="1.91145">
        <ele>674</ele>
        <time>2013-08-09T16:16:13Z</time>
      </trkpt>
      <trkpt lat="45.7916" lon="1.91158">
        <ele>675</ele>
        <time>2013-08-09T16:16:23Z</time>
      </trkpt>
      <trkpt lat="45.7915" lon="1.9118">
        <ele>678</ele>
        <time>2013-08-09T16:16:35Z</time>
      </trkpt>
      <trkpt lat="45.79138" lon="1.91193">
        <ele>680</ele>
        <time>2013-08-09T16:16:44Z</time>
      </trkpt>
      <trkpt lat="45.79128" lon="1.91208">
        <ele>682</ele>
        <time>2013-08-09T16:16:55Z</time>
      </trkpt>
      <trkpt lat="45.79118" lon="1.91223">
        <ele>682</ele>
        <time>2013-08-09T16:17:03Z</time>
      </trkpt>
      <trkpt lat="45.79108" lon="1.91238">
        <ele>683</ele>
        <time>2013-08-09T16:17:11Z</time>
      </trkpt>
      <trkpt lat="45.79103" lon="1.91258">
        <ele>684</ele>
        <time>2013-08-09T16:17:22Z</time>
      </trkpt>
      <trkpt lat="45.79098" lon="1.91278">
        <ele>684</ele>
        <time>2013-08-09T16:17:39Z</time>
      </trkpt>
      <trkpt lat="45.79095" lon="1.91298">
        <ele>685</ele>
        <time>2013-08-09T16:17:48Z</time>
      </trkpt>
      <trkpt lat="45.79098" lon="1.91318">
        <ele>686</ele>
        <time>2013-08-09T16:17:56Z</time>
      </trkpt>
      <trkpt lat="45.791" lon="1.91338">
        <ele>686</ele>
        <time>2013-08-09T16:18:06Z</time>
      </trkpt>
      <trkpt lat="45.79108" lon="1.91355">
        <ele>689</ele>
        <time>2013-08-09T16:18:14Z</time>
      </trkpt>
      <trkpt lat="45.79118" lon="1.91373">
        <ele>689</ele>
        <time>2013-08-09T16:18:24Z</time>
      </trkpt>
      <trkpt lat="45.79128" lon="1.91388">
        <ele>691</ele>
        <time>2013-08-09T16:18:33Z</time>
      </trkpt>
      <trkpt lat="45.79138" lon="1.91405">
        <ele>687</ele>
        <time>2013-08-09T16:18:42Z</time>
      </trkpt>
      <trkpt lat="45.79145" lon="1.91423">
        <ele>688</ele>
        <time>2013-08-09T16:18:53Z</time>
      </trkpt>
      <trkpt lat="45.79145" lon="1.91443">
        <ele>687</ele>
        <time>2013-08-09T16:19:01Z</time>
      </trkpt>
      <trkpt lat="45.79145" lon="1.91463">
        <ele>687</ele>
        <time>2013-08-09T16:19:11Z</time>
      </trkpt>
      <trkpt lat="45.79145" lon="1.91483">
        <ele>687</ele>
        <time>2013-08-09T16:19:21Z</time>
      </trkpt>
      <trkpt lat="45.79143" lon="1.91503">
        <ele>685</ele>
        <time>2013-08-09T16:19:31Z</time>
      </trkpt>
      <trkpt lat="45.7914" lon="1.91523">
        <ele>686</ele>
        <time>2013-08-09T16:19:39Z</time>
      </trkpt>
      <trkpt lat="45.7914" lon="1.91543">
        <ele>685</ele>
        <time>2013-08-09T16:19:48Z</time>
      </trkpt>
      <trkpt lat="45.7914" lon="1.91563">
        <ele>685</ele>
        <time>2013-08-09T16:19:56Z</time>
      </trkpt>
      <trkpt lat="45.79145" lon="1.91583">
        <ele>685</ele>
        <time>2013-08-09T16:20:05Z</time>
      </trkpt>
      <trkpt lat="45.7915" lon="1.91603">
        <ele>686</ele>
        <time>2013-08-09T16:20:14Z</time>
      </trkpt>
      <trkpt lat="45.79155" lon="1.91625">
        <ele>684</ele>
        <time>2013-08-09T16:20:23Z</time>
      </trkpt>
      <trkpt lat="45.79158" lon="1.91645">
        <ele>681</ele>
        <time>2013-08-09T16:20:32Z</time>
      </trkpt>
      <trkpt lat="45.79158" lon="1.91665">
        <ele>682</ele>
        <time>2013-08-09T16:20:41Z</time>
      </trkpt>
      <trkpt lat="45.79158" lon="1.91685">
        <ele>681</ele>
        <time>2013-08-09T16:20:52Z</time>
      </trkpt>
      <trkpt lat="45.79155" lon="1.91705">
        <ele>682</ele>
        <time>2013-08-09T16:21:01Z</time>
      </trkpt>
      <trkpt lat="45.79148" lon="1.91728">
        <ele>684</ele>
        <time>2013-08-09T16:21:11Z</time>
      </trkpt>
      <trkpt lat="45.79143" lon="1.91748">
        <ele>683</ele>
        <time>2013-08-09T16:21:19Z</time>
      </trkpt>
      <trkpt lat="45.7914" lon="1.91768">
        <ele>685</ele>
        <time>2013-08-09T16:21:28Z</time>
      </trkpt>
      <trkpt lat="45.79135" lon="1.91803">
        <ele>683</ele>
        <time>2013-08-09T16:21:45Z</time>
      </trkpt>
      <trkpt lat="45.7913" lon="1.91823">
        <ele>683</ele>
        <time>2013-08-09T16:21:54Z</time>
      </trkpt>
      <trkpt lat="45.79128" lon="1.91843">
        <ele>685</ele>
        <time>2013-08-09T16:22:04Z</time>
      </trkpt>
      <trkpt lat="45.79123" lon="1.91863">
        <ele>686</ele>
        <time>2013-08-09T16:22:12Z</time>
      </trkpt>
      <trkpt lat="45.7912" lon="1.91883">
        <ele>689</ele>
        <time>2013-08-09T16:22:20Z</time>
      </trkpt>
      <trkpt lat="45.79113" lon="1.91903">
        <ele>688</ele>
        <time>2013-08-09T16:22:29Z</time>
      </trkpt>
      <trkpt lat="45.79105" lon="1.9192">
        <ele>690</ele>
        <time>2013-08-09T16:22:39Z</time>
      </trkpt>
      <trkpt lat="45.79103" lon="1.9194">
        <ele>692</ele>
        <time>2013-08-09T16:22:48Z</time>
      </trkpt>
      <trkpt lat="45.79098" lon="1.9196">
        <ele>694</ele>
        <time>2013-08-09T16:22:58Z</time>
      </trkpt>
      <trkpt lat="45.7909" lon="1.91978">
        <ele>694</ele>
        <time>2013-08-09T16:23:07Z</time>
      </trkpt>
      <trkpt lat="45.79083" lon="1.91995">
        <ele>694</ele>
        <time>2013-08-09T16:23:15Z</time>
      </trkpt>
      <trkpt lat="45.79075" lon="1.92013">
        <ele>695</ele>
        <time>2013-08-09T16:23:23Z</time>
      </trkpt>
      <trkpt lat="45.79063" lon="1.92043">
        <ele>696</ele>
        <time>2013-08-09T16:23:35Z</time>
      </trkpt>
      <trkpt lat="45.79053" lon="1.9206">
        <ele>696</ele>
        <time>2013-08-09T16:23:47Z</time>
      </trkpt>
      <trkpt lat="45.79045" lon="1.92078">
        <ele>695</ele>
        <time>2013-08-09T16:23:55Z</time>
      </trkpt>
      <trkpt lat="45.79038" lon="1.92095">
        <ele>695</ele>
        <time>2013-08-09T16:24:05Z</time>
      </trkpt>
      <trkpt lat="45.7903" lon="1.92113">
        <ele>693</ele>
        <time>2013-08-09T16:24:16Z</time>
      </trkpt>
      <trkpt lat="45.79023" lon="1.9213">
        <ele>692</ele>
        <time>2013-08-09T16:24:25Z</time>
      </trkpt>
      <trkpt lat="45.79015" lon="1.92148">
        <ele>688</ele>
        <time>2013-08-09T16:24:33Z</time>
      </trkpt>
      <trkpt lat="45.79005" lon="1.92163">
        <ele>685</ele>
        <time>2013-08-09T16:24:42Z</time>
      </trkpt>
      <trkpt lat="45.78995" lon="1.92178">
        <ele>680</ele>
        <time>2013-08-09T16:24:50Z</time>
      </trkpt>
      <trkpt lat="45.78983" lon="1.92195">
        <ele>678</ele>
        <time>2013-08-09T16:25:00Z</time>
      </trkpt>
      <trkpt lat="45.78973" lon="1.9221">
        <ele>678</ele>
        <time>2013-08-09T16:25:09Z</time>
      </trkpt>
      <trkpt lat="45.78968" lon="1.9223">
        <ele>676</ele>
        <time>2013-08-09T16:25:21Z</time>
      </trkpt>
      <trkpt lat="45.7898" lon="1.92238">
        <ele>676</ele>
        <time>2013-08-09T16:25:29Z</time>
      </trkpt>
      <trkpt lat="45.78995" lon="1.92235">
        <ele>673</ele>
        <time>2013-08-09T16:25:39Z</time>
      </trkpt>
      <trkpt lat="45.79013" lon="1.92233">
        <ele>669</ele>
        <time>2013-08-09T16:25:51Z</time>
      </trkpt>
      <trkpt lat="45.79028" lon="1.9223">
        <ele>667</ele>
        <time>2013-08-09T16:25:59Z</time>
      </trkpt>
      <trkpt lat="45.79043" lon="1.92223">
        <ele>666</ele>
        <time>2013-08-09T16:26:09Z</time>
      </trkpt>
      <trkpt lat="45.79055" lon="1.9221">
        <ele>665</ele>
        <time>2013-08-09T16:26:18Z</time>
      </trkpt>
      <trkpt lat="45.79065" lon="1.92195">
        <ele>664</ele>
        <time>2013-08-09T16:26:28Z</time>
      </trkpt>
      <trkpt lat="45.79075" lon="1.9218">
        <ele>663</ele>
        <time>2013-08-09T16:26:38Z</time>
      </trkpt>
      <trkpt lat="45.79083" lon="1.92163">
        <ele>662</ele>
        <time>2013-08-09T16:26:47Z</time>
      </trkpt>
      <trkpt lat="45.79093" lon="1.92148">
        <ele>661</ele>
        <time>2013-08-09T16:26:55Z</time>
      </trkpt>
      <trkpt lat="45.79108" lon="1.92143">
        <ele>660</ele>
        <time>2013-08-09T16:27:06Z</time>
      </trkpt>
      <trkpt lat="45.79123" lon="1.9214">
        <ele>658</ele>
        <time>2013-08-09T16:27:24Z</time>
      </trkpt>
      <trkpt lat="45.79138" lon="1.92143">
        <ele>655</ele>
        <time>2013-08-09T16:27:35Z</time>
      </trkpt>
      <trkpt lat="45.79158" lon="1.92143">
        <ele>653</ele>
        <time>2013-08-09T16:27:47Z</time>
      </trkpt>
      <trkpt lat="45.79173" lon="1.92143">
        <ele>654</ele>
        <time>2013-08-09T16:27:53Z</time>
      </trkpt>
      <trkpt lat="45.79188" lon="1.9214">
        <ele>655</ele>
        <time>2013-08-09T16:28:03Z</time>
      </trkpt>
      <trkpt lat="45.79208" lon="1.9214">
        <ele>667</ele>
        <time>2013-08-09T16:28:15Z</time>
      </trkpt>
      <trkpt lat="45.79223" lon="1.92138">
        <ele>674</ele>
        <time>2013-08-09T16:28:26Z</time>
      </trkpt>
      <trkpt lat="45.79238" lon="1.92133">
        <ele>681</ele>
        <time>2013-08-09T16:28:35Z</time>
      </trkpt>
      <trkpt lat="45.7925" lon="1.92123">
        <ele>689</ele>
        <time>2013-08-09T16:28:46Z</time>
      </trkpt>
      <trkpt lat="45.79263" lon="1.92108">
        <ele>692</ele>
        <time>2013-08-09T16:28:57Z</time>
      </trkpt>
      <trkpt lat="45.79273" lon="1.9209">
        <ele>701</ele>
        <time>2013-08-09T16:29:07Z</time>
      </trkpt>
      <trkpt lat="45.79283" lon="1.92075">
        <ele>707</ele>
        <time>2013-08-09T16:29:19Z</time>
      </trkpt>
      <trkpt lat="45.79293" lon="1.9206">
        <ele>712</ele>
        <time>2013-08-09T16:29:29Z</time>
      </trkpt>
      <trkpt lat="45.79305" lon="1.9205">
        <ele>719</ele>
        <time>2013-08-09T16:29:39Z</time>
      </trkpt>
      <trkpt lat="45.79318" lon="1.92043">
        <ele>723</ele>
        <time>2013-08-09T16:29:47Z</time>
      </trkpt>
      <trkpt lat="45.79333" lon="1.92038">
        <ele>735</ele>
        <time>2013-08-09T16:29:57Z</time>
      </trkpt>
      <trkpt lat="45.79348" lon="1.92028">
        <ele>750</ele>
        <time>2013-08-09T16:30:09Z</time>
      </trkpt>
      <trkpt lat="45.79363" lon="1.92023">
        <ele>752</ele>
        <time>2013-08-09T16:30:18Z</time>
      </trkpt>
      <trkpt lat="45.79383" lon="1.92013">
        <ele>758</ele>
        <time>2013-08-09T16:30:28Z</time>
      </trkpt>
      <trkpt lat="45.79398" lon="1.92">
        <ele>767</ele>
        <time>2013-08-09T16:30:39Z</time>
      </trkpt>
      <trkpt lat="45.79395" lon="1.9198">
        <ele>772</ele>
        <time>2013-08-09T16:31:04Z</time>
      </trkpt>
      <trkpt lat="45.7938" lon="1.91983">
        <ele>767</ele>
        <time>2013-08-09T16:31:14Z</time>
      </trkpt>
      <trkpt lat="45.79365" lon="1.9198">
        <ele>763</ele>
        <time>2013-08-09T16:31:24Z</time>
      </trkpt>
      <trkpt lat="45.79353" lon="1.91968">
        <ele>760</ele>
        <time>2013-08-09T16:31:36Z</time>
      </trkpt>
      <trkpt lat="45.79343" lon="1.9195">
        <ele>757</ele>
        <time>2013-08-09T16:31:46Z</time>
      </trkpt>
      <trkpt lat="45.79335" lon="1.91933">
        <ele>745</ele>
        <time>2013-08-09T16:32:03Z</time>
      </trkpt>
      <trkpt lat="45.7935" lon="1.91938">
        <ele>751</ele>
        <time>2013-08-09T16:32:24Z</time>
      </trkpt>
      <trkpt lat="45.79365" lon="1.91943">
        <ele>754</ele>
        <time>2013-08-09T16:32:32Z</time>
      </trkpt>
      <trkpt lat="45.7938" lon="1.9194">
        <ele>762</ele>
        <time>2013-08-09T16:32:41Z</time>
      </trkpt>
      <trkpt lat="45.79395" lon="1.91935">
        <ele>768</ele>
        <time>2013-08-09T16:32:50Z</time>
      </trkpt>
      <trkpt lat="45.79403" lon="1.91918">
        <ele>775</ele>
        <time>2013-08-09T16:33:00Z</time>
      </trkpt>
      <trkpt lat="45.79415" lon="1.9191">
        <ele>775</ele>
        <time>2013-08-09T16:33:10Z</time>
      </trkpt>
      <trkpt lat="45.7943" lon="1.91913">
        <ele>774</ele>
        <time>2013-08-09T16:33:18Z</time>
      </trkpt>
      <trkpt lat="45.79443" lon="1.91905">
        <ele>774</ele>
        <time>2013-08-09T16:33:26Z</time>
      </trkpt>
      <trkpt lat="45.79455" lon="1.9189">
        <ele>769</ele>
        <time>2013-08-09T16:33:33Z</time>
      </trkpt>
      <trkpt lat="45.79465" lon="1.91873">
        <ele>758</ele>
        <time>2013-08-09T16:33:43Z</time>
      </trkpt>
      <trkpt lat="45.79478" lon="1.91863">
        <ele>752</ele>
        <time>2013-08-09T16:33:50Z</time>
      </trkpt>
      <trkpt lat="45.7949" lon="1.91848">
        <ele>749</ele>
        <time>2013-08-09T16:34:00Z</time>
      </trkpt>
      <trkpt lat="45.79505" lon="1.91845">
        <ele>749</ele>
        <time>2013-08-09T16:34:10Z</time>
      </trkpt>
      <trkpt lat="45.7952" lon="1.91845">
        <ele>746</ele>
        <time>2013-08-09T16:34:19Z</time>
      </trkpt>
      <trkpt lat="45.79535" lon="1.9184">
        <ele>746</ele>
        <time>2013-08-09T16:34:29Z</time>
      </trkpt>
      <trkpt lat="45.7955" lon="1.91838">
        <ele>737</ele>
        <time>2013-08-09T16:34:39Z</time>
      </trkpt>
      <trkpt lat="45.79563" lon="1.91823">
        <ele>732</ele>
        <time>2013-08-09T16:34:45Z</time>
      </trkpt>
      <trkpt lat="45.79573" lon="1.91808">
        <ele>726</ele>
        <time>2013-08-09T16:34:51Z</time>
      </trkpt>
      <trkpt lat="45.7958" lon="1.9179">
        <ele>718</ele>
        <time>2013-08-09T16:35:02Z</time>
      </trkpt>
      <trkpt lat="45.79593" lon="1.91778">
        <ele>712</ele>
        <time>2013-08-09T16:35:12Z</time>
      </trkpt>
      <trkpt lat="45.79608" lon="1.9175">
        <ele>700</ele>
        <time>2013-08-09T16:35:36Z</time>
      </trkpt>
      <trkpt lat="45.7962" lon="1.91743">
        <ele>694</ele>
        <time>2013-08-09T16:35:47Z</time>
      </trkpt>
      <trkpt lat="45.79633" lon="1.91733">
        <ele>691</ele>
        <time>2013-08-09T16:35:53Z</time>
      </trkpt>
      <trkpt lat="45.79645" lon="1.9172">
        <ele>690</ele>
        <time>2013-08-09T16:36:01Z</time>
      </trkpt>
      <trkpt lat="45.79658" lon="1.91705">
        <ele>685</ele>
        <time>2013-08-09T16:36:13Z</time>
      </trkpt>
      <trkpt lat="45.79658" lon="1.91685">
        <ele>680</ele>
        <time>2013-08-09T16:36:24Z</time>
      </trkpt>
      <trkpt lat="45.7965" lon="1.9166">
        <ele>670</ele>
        <time>2013-08-09T16:36:42Z</time>
      </trkpt>
      <trkpt lat="45.79663" lon="1.91648">
        <ele>667</ele>
        <time>2013-08-09T16:36:51Z</time>
      </trkpt>
      <trkpt lat="45.79675" lon="1.9164">
        <ele>663</ele>
        <time>2013-08-09T16:36:59Z</time>
      </trkpt>
      <trkpt lat="45.7969" lon="1.91643">
        <ele>661</ele>
        <time>2013-08-09T16:37:10Z</time>
      </trkpt>
      <trkpt lat="45.79718" lon="1.91638">
        <ele>652</ele>
        <time>2013-08-09T16:37:28Z</time>
      </trkpt>
      <trkpt lat="45.79733" lon="1.91643">
        <ele>652</ele>
        <time>2013-08-09T16:37:41Z</time>
      </trkpt>
      <trkpt lat="45.7975" lon="1.91628">
        <ele>655</ele>
        <time>2013-08-09T16:37:58Z</time>
      </trkpt>
      <trkpt lat="45.79763" lon="1.91615">
        <ele>656</ele>
        <time>2013-08-09T16:38:10Z</time>
      </trkpt>
      <trkpt lat="45.79778" lon="1.91615">
        <ele>655</ele>
        <time>2013-08-09T16:38:19Z</time>
      </trkpt>
      <trkpt lat="45.7979" lon="1.91623">
        <ele>658</ele>
        <time>2013-08-09T16:38:29Z</time>
      </trkpt>
      <trkpt lat="45.79818" lon="1.91615">
        <ele>658</ele>
        <time>2013-08-09T16:38:48Z</time>
      </trkpt>
      <trkpt lat="45.7983" lon="1.91605">
        <ele>662</ele>
        <time>2013-08-09T16:38:56Z</time>
      </trkpt>
      <trkpt lat="45.79843" lon="1.91593">
        <ele>662</ele>
        <time>2013-08-09T16:39:02Z</time>
      </trkpt>
      <trkpt lat="45.79858" lon="1.91585">
        <ele>665</ele>
        <time>2013-08-09T16:39:15Z</time>
      </trkpt>
      <trkpt lat="45.7987" lon="1.91575">
        <ele>666</ele>
        <time>2013-08-09T16:39:24Z</time>
      </trkpt>
      <trkpt lat="45.7987" lon="1.91553">
        <ele>667</ele>
        <time>2013-08-09T16:39:41Z</time>
      </trkpt>
      <trkpt lat="45.79878" lon="1.91535">
        <ele>665</ele>
        <time>2013-08-09T16:39:58Z</time>
      </trkpt>
      <trkpt lat="45.7989" lon="1.91515">
        <ele>664</ele>
        <time>2013-08-09T16:40:15Z</time>
      </trkpt>
      <trkpt lat="45.79903" lon="1.91508">
        <ele>666</ele>
        <time>2013-08-09T16:40:25Z</time>
      </trkpt>
      <trkpt lat="45.79913" lon="1.91493">
        <ele>669</ele>
        <time>2013-08-09T16:40:35Z</time>
      </trkpt>
      <trkpt lat="45.79918" lon="1.91473">
        <ele>669</ele>
        <time>2013-08-09T16:40:44Z</time>
      </trkpt>
      <trkpt lat="45.7992" lon="1.91448">
        <ele>673</ele>
        <time>2013-08-09T16:40:54Z</time>
      </trkpt>
      <trkpt lat="45.79935" lon="1.91433">
        <ele>675</ele>
        <time>2013-08-09T16:41:11Z</time>
      </trkpt>
      <trkpt lat="45.7994" lon="1.91413">
        <ele>673</ele>
        <time>2013-08-09T16:41:23Z</time>
      </trkpt>
      <trkpt lat="45.7994" lon="1.91393">
        <ele>673</ele>
        <time>2013-08-09T16:41:31Z</time>
      </trkpt>
      <trkpt lat="45.79948" lon="1.91375">
        <ele>674</ele>
        <time>2013-08-09T16:41:38Z</time>
      </trkpt>
      <trkpt lat="45.79963" lon="1.9137">
        <ele>675</ele>
        <time>2013-08-09T16:41:48Z</time>
      </trkpt>
      <trkpt lat="45.79978" lon="1.91375">
        <ele>674</ele>
        <time>2013-08-09T16:41:59Z</time>
      </trkpt>
      <trkpt lat="45.79993" lon="1.9137">
        <ele>671</ele>
        <time>2013-08-09T16:42:16Z</time>
      </trkpt>
      <trkpt lat="45.80005" lon="1.9136">
        <ele>667</ele>
        <time>2013-08-09T16:42:27Z</time>
      </trkpt>
      <trkpt lat="45.80018" lon="1.91368">
        <ele>668</ele>
        <time>2013-08-09T16:42:36Z</time>
      </trkpt>
      <trkpt lat="45.80033" lon="1.91363">
        <ele>665</ele>
        <time>2013-08-09T16:42:42Z</time>
      </trkpt>
      <trkpt lat="45.80045" lon="1.91353">
        <ele>662</ele>
        <time>2013-08-09T16:42:52Z</time>
      </trkpt>
      <trkpt lat="45.80055" lon="1.91338">
        <ele>658</ele>
        <time>2013-08-09T16:43:01Z</time>
      </trkpt>
      <trkpt lat="45.80063" lon="1.9132">
        <ele>660</ele>
        <time>2013-08-09T16:43:10Z</time>
      </trkpt>
      <trkpt lat="45.80073" lon="1.91303">
        <ele>656</ele>
        <time>2013-08-09T16:43:19Z</time>
      </trkpt>
      <trkpt lat="45.80083" lon="1.91288">
        <ele>656</ele>
        <time>2013-08-09T16:43:28Z</time>
      </trkpt>
      <trkpt lat="45.8008" lon="1.91268">
        <ele>654</ele>
        <time>2013-08-09T16:43:48Z</time>
      </trkpt>
      <trkpt lat="45.8007" lon="1.9125">
        <ele>651</ele>
        <time>2013-08-09T16:44:05Z</time>
      </trkpt>
      <trkpt lat="45.80068" lon="1.91223">
        <ele>647</ele>
        <time>2013-08-09T16:44:22Z</time>
      </trkpt>
      <trkpt lat="45.80078" lon="1.91205">
        <ele>646</ele>
        <time>2013-08-09T16:44:32Z</time>
      </trkpt>
      <trkpt lat="45.80083" lon="1.91185">
        <ele>644</ele>
        <time>2013-08-09T16:44:42Z</time>
      </trkpt>
      <trkpt lat="45.8009" lon="1.91168">
        <ele>646</ele>
        <time>2013-08-09T16:44:53Z</time>
      </trkpt>
      <trkpt lat="45.80103" lon="1.91153">
        <ele>646</ele>
        <time>2013-08-09T16:45:03Z</time>
      </trkpt>
      <trkpt lat="45.80115" lon="1.9114">
        <ele>643</ele>
        <time>2013-08-09T16:45:12Z</time>
      </trkpt>
      <trkpt lat="45.8013" lon="1.91135">
        <ele>647</ele>
        <time>2013-08-09T16:45:30Z</time>
      </trkpt>
      <trkpt lat="45.80138" lon="1.91118">
        <ele>649</ele>
        <time>2013-08-09T16:45:39Z</time>
      </trkpt>
      <trkpt lat="45.80143" lon="1.91098">
        <ele>650</ele>
        <time>2013-08-09T16:45:47Z</time>
      </trkpt>
      <trkpt lat="45.8015" lon="1.91078">
        <ele>648</ele>
        <time>2013-08-09T16:45:56Z</time>
      </trkpt>
      <trkpt lat="45.80158" lon="1.9106">
        <ele>646</ele>
        <time>2013-08-09T16:46:05Z</time>
      </trkpt>
      <trkpt lat="45.80168" lon="1.91045">
        <ele>649</ele>
        <time>2013-08-09T16:46:16Z</time>
      </trkpt>
      <trkpt lat="45.80178" lon="1.9103">
        <ele>651</ele>
        <time>2013-08-09T16:46:27Z</time>
      </trkpt>
      <trkpt lat="45.80188" lon="1.91005">
        <ele>654</ele>
        <time>2013-08-09T16:46:44Z</time>
      </trkpt>
      <trkpt lat="45.80193" lon="1.90985">
        <ele>655</ele>
        <time>2013-08-09T16:46:52Z</time>
      </trkpt>
      <trkpt lat="45.80208" lon="1.90978">
        <ele>658</ele>
        <time>2013-08-09T16:47:10Z</time>
      </trkpt>
      <trkpt lat="45.8021" lon="1.90958">
        <ele>660</ele>
        <time>2013-08-09T16:47:52Z</time>
      </trkpt>
      <trkpt lat="45.8022" lon="1.90943">
        <ele>660</ele>
        <time>2013-08-09T16:48:02Z</time>
      </trkpt>
      <trkpt lat="45.80233" lon="1.90935">
        <ele>662</ele>
        <time>2013-08-09T16:48:10Z</time>
      </trkpt>
      <trkpt lat="45.80245" lon="1.90923">
        <ele>660</ele>
        <time>2013-08-09T16:48:17Z</time>
      </trkpt>
      <trkpt lat="45.80258" lon="1.90913">
        <ele>661</ele>
        <time>2013-08-09T16:48:26Z</time>
      </trkpt>
      <trkpt lat="45.80273" lon="1.9091">
        <ele>661</ele>
        <time>2013-08-09T16:48:37Z</time>
      </trkpt>
      <trkpt lat="45.80288" lon="1.90913">
        <ele>662</ele>
        <time>2013-08-09T16:48:48Z</time>
      </trkpt>
      <trkpt lat="45.803" lon="1.90905">
        <ele>662</ele>
        <time>2013-08-09T16:48:56Z</time>
      </trkpt>
      <trkpt lat="45.8031" lon="1.9089">
        <ele>662</ele>
        <time>2013-08-09T16:49:05Z</time>
      </trkpt>
      <trkpt lat="45.80325" lon="1.90885">
        <ele>664</ele>
        <time>2013-08-09T16:49:15Z</time>
      </trkpt>
      <trkpt lat="45.80335" lon="1.9087">
        <ele>664</ele>
        <time>2013-08-09T16:49:26Z</time>
      </trkpt>
      <trkpt lat="45.80345" lon="1.90855">
        <ele>666</ele>
        <time>2013-08-09T16:49:36Z</time>
      </trkpt>
      <trkpt lat="45.80363" lon="1.90838">
        <ele>668</ele>
        <time>2013-08-09T16:49:49Z</time>
      </trkpt>
      <trkpt lat="45.80378" lon="1.90833">
        <ele>668</ele>
        <time>2013-08-09T16:50:02Z</time>
      </trkpt>
      <trkpt lat="45.8039" lon="1.90823">
        <ele>668</ele>
        <time>2013-08-09T16:50:09Z</time>
      </trkpt>
      <trkpt lat="45.80403" lon="1.90815">
        <ele>664</ele>
        <time>2013-08-09T16:50:16Z</time>
      </trkpt>
      <trkpt lat="45.80413" lon="1.908">
        <ele>664</ele>
        <time>2013-08-09T16:50:26Z</time>
      </trkpt>
      <trkpt lat="45.80425" lon="1.90785">
        <ele>666</ele>
        <time>2013-08-09T16:50:34Z</time>
      </trkpt>
      <trkpt lat="45.80438" lon="1.90765">
        <ele>661</ele>
        <time>2013-08-09T16:50:52Z</time>
      </trkpt>
      <trkpt lat="45.80435" lon="1.90745">
        <ele>659</ele>
        <time>2013-08-09T16:51:01Z</time>
      </trkpt>
      <trkpt lat="45.8044" lon="1.90725">
        <ele>658</ele>
        <time>2013-08-09T16:51:13Z</time>
      </trkpt>
      <trkpt lat="45.8044" lon="1.90705">
        <ele>657</ele>
        <time>2013-08-09T16:51:22Z</time>
      </trkpt>
      <trkpt lat="45.8044" lon="1.90685">
        <ele>656</ele>
        <time>2013-08-09T16:51:31Z</time>
      </trkpt>
      <trkpt lat="45.80455" lon="1.90683">
        <ele>656</ele>
        <time>2013-08-09T16:51:40Z</time>
      </trkpt>
      <trkpt lat="45.80473" lon="1.90675">
        <ele>662</ele>
        <time>2013-08-09T16:51:57Z</time>
      </trkpt>
      <trkpt lat="45.80475" lon="1.90655">
        <ele>663</ele>
        <time>2013-08-09T16:52:08Z</time>
      </trkpt>
      <trkpt lat="45.80478" lon="1.90635">
        <ele>660</ele>
        <time>2013-08-09T16:52:16Z</time>
      </trkpt>
      <trkpt lat="45.80483" lon="1.90615">
        <ele>658</ele>
        <time>2013-08-09T16:52:24Z</time>
      </trkpt>
      <trkpt lat="45.80498" lon="1.9062">
        <ele>658</ele>
        <time>2013-08-09T16:52:31Z</time>
      </trkpt>
      <trkpt lat="45.80513" lon="1.90625">
        <ele>658</ele>
        <time>2013-08-09T16:52:42Z</time>
      </trkpt>
      <trkpt lat="45.80528" lon="1.90633">
        <ele>658</ele>
        <time>2013-08-09T16:52:50Z</time>
      </trkpt>
      <trkpt lat="45.8054" lon="1.90645">
        <ele>659</ele>
        <time>2013-08-09T16:52:59Z</time>
      </trkpt>
      <trkpt lat="45.80555" lon="1.90648">
        <ele>660</ele>
        <time>2013-08-09T16:53:09Z</time>
      </trkpt>
      <trkpt lat="45.8057" lon="1.9065">
        <ele>658</ele>
        <time>2013-08-09T16:53:18Z</time>
      </trkpt>
      <trkpt lat="45.80583" lon="1.90643">
        <ele>658</ele>
        <time>2013-08-09T16:53:26Z</time>
      </trkpt>
      <trkpt lat="45.80598" lon="1.90638">
        <ele>660</ele>
        <time>2013-08-09T16:54:10Z</time>
      </trkpt>
      <trkpt lat="45.80605" lon="1.9062">
        <ele>662</ele>
        <time>2013-08-09T16:54:23Z</time>
      </trkpt>
      <trkpt lat="45.80618" lon="1.9061">
        <ele>661</ele>
        <time>2013-08-09T16:54:35Z</time>
      </trkpt>
      <trkpt lat="45.80628" lon="1.90593">
        <ele>661</ele>
        <time>2013-08-09T16:58:53Z</time>
      </trkpt>
      <trkpt lat="45.8064" lon="1.90585">
        <ele>659</ele>
        <time>2013-08-09T16:59:01Z</time>
      </trkpt>
      <trkpt lat="45.80658" lon="1.90568">
        <ele>658</ele>
        <time>2013-08-09T16:59:18Z</time>
      </trkpt>
      <trkpt lat="45.8067" lon="1.9056">
        <ele>657</ele>
        <time>2013-08-09T16:59:25Z</time>
      </trkpt>
      <trkpt lat="45.80685" lon="1.90553">
        <ele>656</ele>
        <time>2013-08-09T16:59:33Z</time>
      </trkpt>
      <trkpt lat="45.807" lon="1.9055">
        <ele>657</ele>
        <time>2013-08-09T16:59:40Z</time>
      </trkpt>
      <trkpt lat="45.80715" lon="1.90545">
        <ele>656</ele>
        <time>2013-08-09T16:59:51Z</time>
      </trkpt>
      <trkpt lat="45.8073" lon="1.90545">
        <ele>657</ele>
        <time>2013-08-09T17:00:01Z</time>
      </trkpt>
      <trkpt lat="45.80743" lon="1.90553">
        <ele>659</ele>
        <time>2013-08-09T17:00:13Z</time>
      </trkpt>
      <trkpt lat="45.80758" lon="1.90553">
        <ele>659</ele>
        <time>2013-08-09T17:00:25Z</time>
      </trkpt>
      <trkpt lat="45.80765" lon="1.90535">
        <ele>660</ele>
        <time>2013-08-09T17:00:34Z</time>
      </trkpt>
      <trkpt lat="45.80773" lon="1.90515">
        <ele>659</ele>
        <time>2013-08-09T17:00:45Z</time>
      </trkpt>
      <trkpt lat="45.80785" lon="1.90503">
        <ele>658</ele>
        <time>2013-08-09T17:00:54Z</time>
      </trkpt>
      <trkpt lat="45.808" lon="1.90495">
        <ele>658</ele>
        <time>2013-08-09T17:01:02Z</time>
      </trkpt>
      <trkpt lat="45.80818" lon="1.90483">
        <ele>657</ele>
        <time>2013-08-09T17:01:19Z</time>
      </trkpt>
      <trkpt lat="45.8083" lon="1.90473">
        <ele>658</ele>
        <time>2013-08-09T17:01:30Z</time>
      </trkpt>
      <trkpt lat="45.80845" lon="1.90473">
        <ele>656</ele>
        <time>2013-08-09T17:01:40Z</time>
      </trkpt>
      <trkpt lat="45.8086" lon="1.90468">
        <ele>655</ele>
        <time>2013-08-09T17:01:46Z</time>
      </trkpt>
      <trkpt lat="45.80873" lon="1.9046">
        <ele>654</ele>
        <time>2013-08-09T17:01:53Z</time>
      </trkpt>
      <trkpt lat="45.80885" lon="1.9045">
        <ele>653</ele>
        <time>2013-08-09T17:01:59Z</time>
      </trkpt>
      <trkpt lat="45.80905" lon="1.90425">
        <ele>652</ele>
        <time>2013-08-09T17:02:21Z</time>
      </trkpt>
      <trkpt lat="45.80918" lon="1.90408">
        <ele>652</ele>
        <time>2013-08-09T17:02:32Z</time>
      </trkpt>
      <trkpt lat="45.80928" lon="1.90393">
        <ele>655</ele>
        <time>2013-08-09T17:02:39Z</time>
      </trkpt>
      <trkpt lat="45.8094" lon="1.90385">
        <ele>656</ele>
        <time>2013-08-09T17:02:46Z</time>
      </trkpt>
      <trkpt lat="45.80955" lon="1.90385">
        <ele>654</ele>
        <time>2013-08-09T17:02:54Z</time>
      </trkpt>
      <trkpt lat="45.8097" lon="1.90385">
        <ele>654</ele>
        <time>2013-08-09T17:03:05Z</time>
      </trkpt>
      <trkpt lat="45.80985" lon="1.9039">
        <ele>653</ele>
        <time>2013-08-09T17:03:12Z</time>
      </trkpt>
      <trkpt lat="45.80998" lon="1.90398">
        <ele>653</ele>
        <time>2013-08-09T17:03:21Z</time>
      </trkpt>
      <trkpt lat="45.8101" lon="1.90408">
        <ele>653</ele>
        <time>2013-08-09T17:03:28Z</time>
      </trkpt>
      <trkpt lat="45.81023" lon="1.90415">
        <ele>651</ele>
        <time>2013-08-09T17:03:35Z</time>
      </trkpt>
      <trkpt lat="45.81035" lon="1.90428">
        <ele>651</ele>
        <time>2013-08-09T17:03:45Z</time>
      </trkpt>
      <trkpt lat="45.81048" lon="1.90435">
        <ele>651</ele>
        <time>2013-08-09T17:03:52Z</time>
      </trkpt>
      <trkpt lat="45.8106" lon="1.90445">
        <ele>650</ele>
        <time>2013-08-09T17:04:01Z</time>
      </trkpt>
      <trkpt lat="45.81073" lon="1.90453">
        <ele>650</ele>
        <time>2013-08-09T17:04:08Z</time>
      </trkpt>
      <trkpt lat="45.8108" lon="1.9047">
        <ele>651</ele>
        <time>2013-08-09T17:04:19Z</time>
      </trkpt>
      <trkpt lat="45.81108" lon="1.90485">
        <ele>649</ele>
        <time>2013-08-09T17:04:39Z</time>
      </trkpt>
      <trkpt lat="45.81123" lon="1.90483">
        <ele>649</ele>
        <time>2013-08-09T17:04:47Z</time>
      </trkpt>
      <trkpt lat="45.81138" lon="1.90483">
        <ele>651</ele>
        <time>2013-08-09T17:04:58Z</time>
      </trkpt>
      <trkpt lat="45.81153" lon="1.9049">
        <ele>651</ele>
        <time>2013-08-09T17:05:06Z</time>
      </trkpt>
      <trkpt lat="45.81168" lon="1.90498">
        <ele>653</ele>
        <time>2013-08-09T17:05:17Z</time>
      </trkpt>
      <trkpt lat="45.8118" lon="1.90508">
        <ele>651</ele>
        <time>2013-08-09T17:05:25Z</time>
      </trkpt>
      <trkpt lat="45.81195" lon="1.90513">
        <ele>653</ele>
        <time>2013-08-09T17:05:38Z</time>
      </trkpt>
      <trkpt lat="45.8121" lon="1.90515">
        <ele>653</ele>
        <time>2013-08-09T17:05:47Z</time>
      </trkpt>
      <trkpt lat="45.81225" lon="1.9052">
        <ele>657</ele>
        <time>2013-08-09T17:05:58Z</time>
      </trkpt>
      <trkpt lat="45.81238" lon="1.90528">
        <ele>658</ele>
        <time>2013-08-09T17:06:07Z</time>
      </trkpt>
      <trkpt lat="45.81253" lon="1.90533">
        <ele>657</ele>
        <time>2013-08-09T17:06:14Z</time>
      </trkpt>
      <trkpt lat="45.81265" lon="1.90548">
        <ele>655</ele>
        <time>2013-08-09T17:06:22Z</time>
      </trkpt>
      <trkpt lat="45.81278" lon="1.9056">
        <ele>654</ele>
        <time>2013-08-09T17:06:33Z</time>
      </trkpt>
      <trkpt lat="45.8129" lon="1.90568">
        <ele>651</ele>
        <time>2013-08-09T17:06:39Z</time>
      </trkpt>
      <trkpt lat="45.81305" lon="1.90583">
        <ele>650</ele>
        <time>2013-08-09T17:06:47Z</time>
      </trkpt>
      <trkpt lat="45.8132" lon="1.90588">
        <ele>652</ele>
        <time>2013-08-09T17:06:58Z</time>
      </trkpt>
      <trkpt lat="45.81333" lon="1.90595">
        <ele>651</ele>
        <time>2013-08-09T17:07:05Z</time>
      </trkpt>
      <trkpt lat="45.81345" lon="1.90605">
        <ele>650</ele>
        <time>2013-08-09T17:07:15Z</time>
      </trkpt>
      <trkpt lat="45.8136" lon="1.9061">
        <ele>649</ele>
        <time>2013-08-09T17:07:21Z</time>
      </trkpt>
      <trkpt lat="45.81373" lon="1.9062">
        <ele>649</ele>
        <time>2013-08-09T17:07:29Z</time>
      </trkpt>
      <trkpt lat="45.81383" lon="1.90643">
        <ele>646</ele>
        <time>2013-08-09T17:07:46Z</time>
      </trkpt>
      <trkpt lat="45.81393" lon="1.90658">
        <ele>645</ele>
        <time>2013-08-09T17:07:55Z</time>
      </trkpt>
      <trkpt lat="45.81405" lon="1.9067">
        <ele>646</ele>
        <time>2013-08-09T17:08:02Z</time>
      </trkpt>
      <trkpt lat="45.81415" lon="1.90685">
        <ele>648</ele>
        <time>2013-08-09T17:08:15Z</time>
      </trkpt>
      <trkpt lat="45.81428" lon="1.90693">
        <ele>647</ele>
        <time>2013-08-09T17:08:22Z</time>
      </trkpt>
      <trkpt lat="45.8144" lon="1.907">
        <ele>646</ele>
        <time>2013-08-09T17:08:33Z</time>
      </trkpt>
      <trkpt lat="45.81455" lon="1.90698">
        <ele>645</ele>
        <time>2013-08-09T17:08:38Z</time>
      </trkpt>
      <trkpt lat="45.8147" lon="1.90703">
        <ele>644</ele>
        <time>2013-08-09T17:08:46Z</time>
      </trkpt>
      <trkpt lat="45.81488" lon="1.90708">
        <ele>645</ele>
        <time>2013-08-09T17:08:56Z</time>
      </trkpt>
      <trkpt lat="45.81503" lon="1.90713">
        <ele>645</ele>
        <time>2013-08-09T17:09:05Z</time>
      </trkpt>
      <trkpt lat="45.81515" lon="1.9072">
        <ele>647</ele>
        <time>2013-08-09T17:09:13Z</time>
      </trkpt>
      <trkpt lat="45.8153" lon="1.9072">
        <ele>649</ele>
        <time>2013-08-09T17:09:24Z</time>
      </trkpt>
      <trkpt lat="45.81545" lon="1.90715">
        <ele>649</ele>
        <time>2013-08-09T17:09:33Z</time>
      </trkpt>
      <trkpt lat="45.81555" lon="1.90698">
        <ele>649</ele>
        <time>2013-08-09T17:09:50Z</time>
      </trkpt>
      <trkpt lat="45.81553" lon="1.90678">
        <ele>648</ele>
        <time>2013-08-09T17:09:59Z</time>
      </trkpt>
      <trkpt lat="45.8155" lon="1.90658">
        <ele>648</ele>
        <time>2013-08-09T17:10:08Z</time>
      </trkpt>
      <trkpt lat="45.81545" lon="1.90638">
        <ele>649</ele>
        <time>2013-08-09T17:10:18Z</time>
      </trkpt>
      <trkpt lat="45.81543" lon="1.90618">
        <ele>651</ele>
        <time>2013-08-09T17:10:28Z</time>
      </trkpt>
      <trkpt lat="45.81543" lon="1.90598">
        <ele>652</ele>
        <time>2013-08-09T17:10:37Z</time>
      </trkpt>
      <trkpt lat="45.81545" lon="1.90578">
        <ele>653</ele>
        <time>2013-08-09T17:10:46Z</time>
      </trkpt>
      <trkpt lat="45.8155" lon="1.90553">
        <ele>653</ele>
        <time>2013-08-09T17:10:57Z</time>
      </trkpt>
      <trkpt lat="45.81548" lon="1.90523">
        <ele>655</ele>
        <time>2013-08-09T17:11:14Z</time>
      </trkpt>
      <trkpt lat="45.81563" lon="1.90508">
        <ele>657</ele>
        <time>2013-08-09T17:11:31Z</time>
      </trkpt>
      <trkpt lat="45.81575" lon="1.90498">
        <ele>660</ele>
        <time>2013-08-09T17:11:39Z</time>
      </trkpt>
      <trkpt lat="45.81588" lon="1.90483">
        <ele>662</ele>
        <time>2013-08-09T17:11:56Z</time>
      </trkpt>
      <trkpt lat="45.81603" lon="1.90475">
        <ele>665</ele>
        <time>2013-08-09T17:12:08Z</time>
      </trkpt>
      <trkpt lat="45.81618" lon="1.90468">
        <ele>664</ele>
        <time>2013-08-09T17:12:16Z</time>
      </trkpt>
      <trkpt lat="45.81635" lon="1.90468">
        <ele>665</ele>
        <time>2013-08-09T17:12:22Z</time>
      </trkpt>
      <trkpt lat="45.81663" lon="1.90463">
        <ele>666</ele>
        <time>2013-08-09T17:12:32Z</time>
      </trkpt>
      <trkpt lat="45.81678" lon="1.90468">
        <ele>669</ele>
        <time>2013-08-09T17:12:40Z</time>
      </trkpt>
      <trkpt lat="45.8169" lon="1.90475">
        <ele>670</ele>
        <time>2013-08-09T17:12:48Z</time>
      </trkpt>
      <trkpt lat="45.81703" lon="1.90483">
        <ele>670</ele>
        <time>2013-08-09T17:12:56Z</time>
      </trkpt>
      <trkpt lat="45.8172" lon="1.90483">
        <ele>671</ele>
        <time>2013-08-09T17:13:01Z</time>
      </trkpt>
      <trkpt lat="45.81738" lon="1.90483">
        <ele>673</ele>
        <time>2013-08-09T17:13:11Z</time>
      </trkpt>
      <trkpt lat="45.81753" lon="1.9048">
        <ele>673</ele>
        <time>2013-08-09T17:13:20Z</time>
      </trkpt>
      <trkpt lat="45.81768" lon="1.90475">
        <ele>673</ele>
        <time>2013-08-09T17:13:28Z</time>
      </trkpt>
      <trkpt lat="45.8179" lon="1.90473">
        <ele>673</ele>
        <time>2013-08-09T17:13:40Z</time>
      </trkpt>
      <trkpt lat="45.81813" lon="1.90468">
        <ele>674</ele>
        <time>2013-08-09T17:13:53Z</time>
      </trkpt>
      <trkpt lat="45.81828" lon="1.90468">
        <ele>674</ele>
        <time>2013-08-09T17:14:02Z</time>
      </trkpt>
      <trkpt lat="45.8187" lon="1.90476">
        <ele>676</ele>
        <time>2013-08-09T17:14:13Z</time>
      </trkpt>
      <trkpt lat="45.81908" lon="1.90479">
        <ele>681</ele>
        <time>2013-08-09T17:14:19Z</time>
      </trkpt>
      <trkpt lat="45.81968" lon="1.90493">
        <ele>685</ele>
      </trkpt>
      <trkpt lat="45.82018" lon="1.90509">
        <ele>685</ele>
      </trkpt>
      <trkpt lat="45.82068" lon="1.90486">
        <ele>691</ele>
      </trkpt>
      <trkpt lat="45.82117" lon="1.90469">
        <ele>697</ele>
      </trkpt>
      <trkpt lat="45.82194" lon="1.90461">
        <ele>700</ele>
      </trkpt>
      <trkpt lat="45.82259" lon="1.9045">
        <ele>702</ele>
      </trkpt>
      <trkpt lat="45.82319" lon="1.90424">
        <ele>708</ele>
      </trkpt>
      <trkpt lat="45.82353" lon="1.90406">
        <ele>713</ele>
      </trkpt>
      <trkpt lat="45.82425" lon="1.9042">
        <ele>716</ele>
      </trkpt>
      <trkpt lat="45.82509" lon="1.90431">
        <ele>720</ele>
      </trkpt>
      <trkpt lat="45.82585" lon="1.90585">
        <ele>714</ele>
      </trkpt>
      <trkpt lat="45.82633" lon="1.90711">
        <ele>703</ele>
      </trkpt>
      <trkpt lat="45.82674" lon="1.9083">
        <ele>701</ele>
      </trkpt>
      <trkpt lat="45.82705" lon="1.90878">
        <ele>697</ele>
      </trkpt>
      <trkpt lat="45.82726" lon="1.9091">
        <ele>694</ele>
      </trkpt>
      <trkpt lat="45.8278" lon="1.90905">
        <ele>694</ele>
      </trkpt>
      <trkpt lat="45.82814" lon="1.90934">
        <ele>695</ele>
      </trkpt>
      <trkpt lat="45.82838" lon="1.90953">
        <ele>696</ele>
      </trkpt>
      <trkpt lat="45.83187" lon="1.90927">
        <ele>701</ele>
      </trkpt>
      <trkpt lat="45.83237" lon="1.90911">
        <ele>699</ele>
      </trkpt>
      <trkpt lat="45.83301" lon="1.90869">
        <ele>698</ele>
      </trkpt>
      <trkpt lat="45.83344" lon="1.90883">
        <ele>700</ele>
      </trkpt>
      <trkpt lat="45.83405" lon="1.9091">
        <ele>706</ele>
      </trkpt>
      <trkpt lat="45.83428" lon="1.90919">
        <ele>707</ele>
      </trkpt>
      <trkpt lat="45.83614" lon="1.91033">
        <ele>711</ele>
        <time>2013-08-09T17:14:30Z</time>
      </trkpt>
    </trkseg>
  </trk>
</gpx>